"Fossies" - the Fresh Open Source Software Archive

Contents of Cain-1_10.zip (2 Jul 2012, 21845101 Bytes)

About: Cain performs stochastic and deterministic simulations for chemical kinetics.



Fossies downloads: /linux/privatCain-1_10.zip  (tar.gz|tar.bz2|tar.xz)
Fossies services: Doxygen docs | CLOC analysis
Original URL: http://sourceforge.net/projects/cain/files/cain/Cain-1.10/Cain-1_10.zip
Home page: http://cain.sourceforge.net/
VirusTotal check: Ok
Member paths+URLs:  Full
Member sort order:  docs related | original | size (top100) | date | path | name | ext | top-path files

Archive:  Cain-1_10.zip
  Length      Date    Time    Name
---------  ---------- -----   ----
        0  2012-07-02 06:07   Cain/
     1897  2012-07-02 06:07   Cain/Cain.py
        0  2012-07-02 06:07   Cain/examples/
     6148  2012-07-02 06:07   Cain/examples/.DS_Store
        0  2012-07-02 06:07   __MACOSX/
        0  2012-07-02 06:07   __MACOSX/Cain/
        0  2012-07-02 06:07   __MACOSX/Cain/examples/
       82  2012-07-02 06:07   __MACOSX/Cain/examples/._.DS_Store
        0  2012-07-02 06:07   Cain/examples/cain/
    12292  2012-07-02 06:07   Cain/examples/cain/.DS_Store
        0  2012-07-02 06:07   __MACOSX/Cain/examples/cain/
       82  2012-07-02 06:07   __MACOSX/Cain/examples/cain/._.DS_Store
      855  2012-07-02 06:07   Cain/examples/cain/Birth.xml
      171  2012-07-02 06:07   __MACOSX/Cain/examples/cain/._Birth.xml
     3684  2012-07-02 06:07   Cain/examples/cain/BirthDeath.xml
     2316  2012-07-02 06:07   Cain/examples/cain/CaoPetzold2006_Schlogl.xml
     4696  2012-07-02 06:07   Cain/examples/cain/Death.xml
     1895  2012-07-02 06:07   Cain/examples/cain/DecayingDimerizing.xml
        0  2012-07-02 06:07   Cain/examples/cain/dsmts23/
     1094  2012-07-02 06:07   Cain/examples/cain/dsmts23/dsmts-001-01.xml
     1093  2012-07-02 06:07   Cain/examples/cain/dsmts23/dsmts-001-03.xml
     1093  2012-07-02 06:07   Cain/examples/cain/dsmts23/dsmts-001-04.xml
     1096  2012-07-02 06:07   Cain/examples/cain/dsmts23/dsmts-001-05.xml
     1243  2012-07-02 06:07   Cain/examples/cain/dsmts23/dsmts-001-07.xml
      984  2012-07-02 06:07   Cain/examples/cain/dsmts23/dsmts-002-01.xml
      985  2012-07-02 06:07   Cain/examples/cain/dsmts23/dsmts-002-02.xml
      984  2012-07-02 06:07   Cain/examples/cain/dsmts23/dsmts-002-03.xml
      987  2012-07-02 06:07   Cain/examples/cain/dsmts23/dsmts-002-04.xml
     1279  2012-07-02 06:07   Cain/examples/cain/dsmts23/dsmts-003-01.xml
     1282  2012-07-02 06:07   Cain/examples/cain/dsmts23/dsmts-003-02.xml
     1013  2012-07-02 06:07   Cain/examples/cain/dsmts23/dsmts-004-01.xml
     1014  2012-07-02 06:07   Cain/examples/cain/dsmts23/dsmts-004-02.xml
     1015  2012-07-02 06:07   Cain/examples/cain/dsmts23/dsmts-004-03.xml
      137  2012-07-02 06:07   Cain/examples/cain/dsmts23/Readme.txt
        0  2012-07-02 06:07   Cain/examples/cain/dsmts31/
     1015  2012-07-02 06:07   Cain/examples/cain/dsmts31/convertSolutions.py
      964  2012-07-02 06:07   Cain/examples/cain/dsmts31/dsmts-001-01.txt
     3185  2012-07-02 06:07   Cain/examples/cain/dsmts31/dsmts-001-01.xml
      964  2012-07-02 06:07   Cain/examples/cain/dsmts31/dsmts-001-02.txt
     3185  2012-07-02 06:07   Cain/examples/cain/dsmts31/dsmts-001-02.xml
      921  2012-07-02 06:07   Cain/examples/cain/dsmts31/dsmts-001-03.txt
     3133  2012-07-02 06:07   Cain/examples/cain/dsmts31/dsmts-001-03.xml
     1055  2012-07-02 06:07   Cain/examples/cain/dsmts31/dsmts-001-04.txt
     3485  2012-07-02 06:07   Cain/examples/cain/dsmts31/dsmts-001-04.xml
     1116  2012-07-02 06:07   Cain/examples/cain/dsmts31/dsmts-001-05.txt
     3237  2012-07-02 06:07   Cain/examples/cain/dsmts31/dsmts-001-05.xml
     1148  2012-07-02 06:07   Cain/examples/cain/dsmts31/dsmts-001-06.txt
     3642  2012-07-02 06:07   Cain/examples/cain/dsmts31/dsmts-001-06.xml
     1828  2012-07-02 06:07   Cain/examples/cain/dsmts31/dsmts-001-07.txt
     4224  2012-07-02 06:07   Cain/examples/cain/dsmts31/dsmts-001-07.xml
      964  2012-07-02 06:07   Cain/examples/cain/dsmts31/dsmts-001-08.txt
     3185  2012-07-02 06:07   Cain/examples/cain/dsmts31/dsmts-001-08.xml
      964  2012-07-02 06:07   Cain/examples/cain/dsmts31/dsmts-001-09.txt
     3185  2012-07-02 06:07   Cain/examples/cain/dsmts31/dsmts-001-09.xml
      959  2012-07-02 06:07   Cain/examples/cain/dsmts31/dsmts-001-10.txt
     3185  2012-07-02 06:07   Cain/examples/cain/dsmts31/dsmts-001-10.xml
     1096  2012-07-02 06:07   Cain/examples/cain/dsmts31/dsmts-001-11.txt
     3337  2012-07-02 06:07   Cain/examples/cain/dsmts31/dsmts-001-11.xml
      964  2012-07-02 06:07   Cain/examples/cain/dsmts31/dsmts-001-12.txt
     2998  2012-07-02 06:07   Cain/examples/cain/dsmts31/dsmts-001-12.xml
      964  2012-07-02 06:07   Cain/examples/cain/dsmts31/dsmts-001-13.txt
     2996  2012-07-02 06:07   Cain/examples/cain/dsmts31/dsmts-001-13.xml
      964  2012-07-02 06:07   Cain/examples/cain/dsmts31/dsmts-001-14.txt
     2998  2012-07-02 06:07   Cain/examples/cain/dsmts31/dsmts-001-14.xml
      964  2012-07-02 06:07   Cain/examples/cain/dsmts31/dsmts-001-15.txt
     3000  2012-07-02 06:07   Cain/examples/cain/dsmts31/dsmts-001-15.xml
      964  2012-07-02 06:07   Cain/examples/cain/dsmts31/dsmts-001-16.txt
     2998  2012-07-02 06:07   Cain/examples/cain/dsmts31/dsmts-001-16.xml
      964  2012-07-02 06:07   Cain/examples/cain/dsmts31/dsmts-001-17.txt
     3176  2012-07-02 06:07   Cain/examples/cain/dsmts31/dsmts-001-17.xml
     1096  2012-07-02 06:07   Cain/examples/cain/dsmts31/dsmts-001-18.txt
     3330  2012-07-02 06:07   Cain/examples/cain/dsmts31/dsmts-001-18.xml
     1931  2012-07-02 06:07   Cain/examples/cain/dsmts31/dsmts-001-19.txt
     1089  2012-07-02 06:07   Cain/examples/cain/dsmts31/dsmts-002-01.txt
     3231  2012-07-02 06:07   Cain/examples/cain/dsmts31/dsmts-002-01.xml
     1089  2012-07-02 06:07   Cain/examples/cain/dsmts31/dsmts-002-02.txt
     3024  2012-07-02 06:07   Cain/examples/cain/dsmts31/dsmts-002-02.xml
      892  2012-07-02 06:07   Cain/examples/cain/dsmts31/dsmts-002-03.txt
      937  2012-07-02 06:07   Cain/examples/cain/dsmts31/dsmts-002-04.txt
     2874  2012-07-02 06:07   Cain/examples/cain/dsmts31/dsmts-002-04.xml
     1497  2012-07-02 06:07   Cain/examples/cain/dsmts31/dsmts-002-05.txt
     2038  2012-07-02 06:07   Cain/examples/cain/dsmts31/dsmts-002-06.txt
     1497  2012-07-02 06:07   Cain/examples/cain/dsmts31/dsmts-002-07.txt
     1089  2012-07-02 06:07   Cain/examples/cain/dsmts31/dsmts-002-08.txt
     1257  2012-07-02 06:07   Cain/examples/cain/dsmts31/dsmts-002-09.txt
     3306  2012-07-02 06:07   Cain/examples/cain/dsmts31/dsmts-002-09.xml
     1289  2012-07-02 06:07   Cain/examples/cain/dsmts31/dsmts-002-10.txt
     3340  2012-07-02 06:07   Cain/examples/cain/dsmts31/dsmts-002-10.xml
     1940  2012-07-02 06:07   Cain/examples/cain/dsmts31/dsmts-003-01.txt
     4186  2012-07-02 06:07   Cain/examples/cain/dsmts31/dsmts-003-01.xml
     2095  2012-07-02 06:07   Cain/examples/cain/dsmts31/dsmts-003-02.txt
     4344  2012-07-02 06:07   Cain/examples/cain/dsmts31/dsmts-003-02.xml
     1907  2012-07-02 06:07   Cain/examples/cain/dsmts31/dsmts-003-03.txt
     4282  2012-07-02 06:07   Cain/examples/cain/dsmts31/dsmts-003-03.xml
     1967  2012-07-02 06:07   Cain/examples/cain/dsmts31/dsmts-003-04.txt
     4349  2012-07-02 06:07   Cain/examples/cain/dsmts31/dsmts-003-04.xml
      995  2012-07-02 06:07   Cain/examples/cain/dsmts31/dsmts-003-05.txt
     3088  2012-07-02 06:07   Cain/examples/cain/dsmts31/dsmts-003-05.xml
      995  2012-07-02 06:07   Cain/examples/cain/dsmts31/dsmts-003-06.txt
     3093  2012-07-02 06:07   Cain/examples/cain/dsmts31/dsmts-003-06.xml
      995  2012-07-02 06:07   Cain/examples/cain/dsmts31/dsmts-003-07.txt
     3093  2012-07-02 06:07   Cain/examples/cain/dsmts31/dsmts-003-07.xml
     1020  2012-07-02 06:07   Cain/examples/cain/dsmts31/dsmts-004-01.txt
     2966  2012-07-02 06:07   Cain/examples/cain/dsmts31/dsmts-004-01.xml
     1067  2012-07-02 06:07   Cain/examples/cain/dsmts31/dsmts-004-02.txt
     2988  2012-07-02 06:07   Cain/examples/cain/dsmts31/dsmts-004-02.xml
      967  2012-07-02 06:07   Cain/examples/cain/dsmts31/dsmts-004-03.txt
     2735  2012-07-02 06:07   Cain/examples/cain/dsmts31/dsmts-004-03.xml
    19980  2012-07-02 06:07   Cain/examples/cain/HeatShockResponse.xml
     1610  2012-07-02 06:07   Cain/examples/cain/Immigration.xml
      604  2012-07-02 06:07   Cain/examples/cain/ImmigrationDeath.py
     5581  2012-07-02 06:07   Cain/examples/cain/ImmigrationDeath.xml
       40  2012-07-02 06:07   Cain/examples/cain/ImmigrationDeathSteadyState.txt
     1903  2012-07-02 06:07   Cain/examples/cain/ImmigrationDeathTransient.txt
      795  2012-07-02 06:07   Cain/examples/cain/IrreversibleIsomerization.xml
     4934  2012-07-02 06:07   Cain/examples/cain/Kierzek2002_LacZ.xml
     1305  2012-07-02 06:07   Cain/examples/cain/Lipshtat2007_ProteinDegradation.xml
    44234  2012-07-02 06:07   Cain/examples/cain/Proctor2005_Hsp90.xml
    40573  2012-07-02 06:07   Cain/examples/cain/Proctor2007_ubiquitin.xml
        0  2012-07-02 06:07   Cain/examples/cain/SAfSB/
     6148  2012-07-02 06:07   Cain/examples/cain/SAfSB/.DS_Store
        0  2012-07-02 06:07   __MACOSX/Cain/examples/cain/SAfSB/
       82  2012-07-02 06:07   __MACOSX/Cain/examples/cain/SAfSB/._.DS_Store
        0  2012-07-02 06:07   Cain/examples/cain/SAfSB/Chapter2/
     6148  2012-07-02 06:07   Cain/examples/cain/SAfSB/Chapter2/.DS_Store
        0  2012-07-02 06:07   __MACOSX/Cain/examples/cain/SAfSB/Chapter2/
       82  2012-07-02 06:07   __MACOSX/Cain/examples/cain/SAfSB/Chapter2/._.DS_Store
     1181  2012-07-02 06:07   Cain/examples/cain/SAfSB/Chapter2/Example-2_08-StdMod.xml
     1341  2012-07-02 06:07   Cain/examples/cain/SAfSB/Chapter2/Example-2_09-HetDim.xml
     1477  2012-07-02 06:07   Cain/examples/cain/SAfSB/Chapter2/Example-2_10-LotVol.xml
     1698  2012-07-02 06:07   Cain/examples/cain/SAfSB/Chapter2/Example-2_11-EnzKin.xml
     1806  2012-07-02 06:07   Cain/examples/cain/SAfSB/Chapter2/Example-2_12-Schlogl.xml
     2426  2012-07-02 06:07   Cain/examples/cain/SAfSB/Chapter2/Example-2_15-GeneReg.xml
        0  2012-07-02 06:07   Cain/examples/cain/SAfSB/Chapter5/
     1545  2012-07-02 06:07   Cain/examples/cain/SAfSB/Chapter5/Example-5_07-StdMod.xml
     1924  2012-07-02 06:07   Cain/examples/cain/SAfSB/Chapter5/Example-5_08-HetDim.xml
     1453  2012-07-02 06:07   Cain/examples/cain/SAfSB/Chapter5/Example-5_09-LotVol.xml
     3965  2012-07-02 06:07   Cain/examples/cain/SAfSB/Chapter5/Example-5_10-EnzKin.xml
    23817  2012-07-02 06:07   Cain/examples/cain/SAfSB/Chapter5/Example-5_12-Schlogl.xml
     6850  2012-07-02 06:07   Cain/examples/cain/SAfSB/Chapter5/Example-5_13-GeneReg.xml
        0  2012-07-02 06:07   Cain/examples/cain/WilkinsonSMfSB/
     3318  2012-07-02 06:07   Cain/examples/cain/WilkinsonSMfSB/autoreg-2-1.xml
     1184  2012-07-02 06:07   Cain/examples/cain/WilkinsonSMfSB/ch05-act.xml
      938  2012-07-02 06:07   Cain/examples/cain/WilkinsonSMfSB/ch05-imdeath.xml
     1522  2012-07-02 06:07   Cain/examples/cain/WilkinsonSMfSB/ch06-lv.xml
     1280  2012-07-02 06:07   Cain/examples/cain/WilkinsonSMfSB/ch07-dimer-stoch.xml
     6538  2012-07-02 06:07   Cain/examples/cain/WilkinsonSMfSB/ch07-lac-stoch.xml
     1757  2012-07-02 06:07   Cain/examples/cain/WilkinsonSMfSB/ch07-mm-stoch.xml
     1273  2012-07-02 06:07   Cain/examples/cain/WilkinsonSMfSB/ch07-mm-stoch2.xml
        0  2012-07-02 06:07   Cain/examples/sbml/
        0  2012-07-02 06:07   Cain/examples/sbml/dsmts23/
     1706  2012-07-02 06:07   Cain/examples/sbml/dsmts23/dsmts-001-01.xml
     1789  2012-07-02 06:07   Cain/examples/sbml/dsmts23/dsmts-001-02.xml
     1703  2012-07-02 06:07   Cain/examples/sbml/dsmts23/dsmts-001-03.xml
     1705  2012-07-02 06:07   Cain/examples/sbml/dsmts23/dsmts-001-04.xml
     1708  2012-07-02 06:07   Cain/examples/sbml/dsmts23/dsmts-001-05.xml
     1920  2012-07-02 06:07   Cain/examples/sbml/dsmts23/dsmts-001-06.xml
     1895  2012-07-02 06:07   Cain/examples/sbml/dsmts23/dsmts-001-07.xml
     1715  2012-07-02 06:07   Cain/examples/sbml/dsmts23/dsmts-001-08.xml
     1715  2012-07-02 06:07   Cain/examples/sbml/dsmts23/dsmts-001-09.xml
     1686  2012-07-02 06:07   Cain/examples/sbml/dsmts23/dsmts-001-10.xml
     1686  2012-07-02 06:07   Cain/examples/sbml/dsmts23/dsmts-001-11.xml
     1777  2012-07-02 06:07   Cain/examples/sbml/dsmts23/dsmts-001-12.xml
     1735  2012-07-02 06:07   Cain/examples/sbml/dsmts23/dsmts-001-13.xml
     1935  2012-07-02 06:07   Cain/examples/sbml/dsmts23/dsmts-001-14.xml
     1935  2012-07-02 06:07   Cain/examples/sbml/dsmts23/dsmts-001-15.xml
     1940  2012-07-02 06:07   Cain/examples/sbml/dsmts23/dsmts-001-16.xml
     1775  2012-07-02 06:07   Cain/examples/sbml/dsmts23/dsmts-001-17.xml
     1777  2012-07-02 06:07   Cain/examples/sbml/dsmts23/dsmts-001-18.xml
     1505  2012-07-02 06:07   Cain/examples/sbml/dsmts23/dsmts-002-01.xml
     1506  2012-07-02 06:07   Cain/examples/sbml/dsmts23/dsmts-002-02.xml
     1611  2012-07-02 06:07   Cain/examples/sbml/dsmts23/dsmts-002-03.xml
     1508  2012-07-02 06:07   Cain/examples/sbml/dsmts23/dsmts-002-04.xml
     1940  2012-07-02 06:07   Cain/examples/sbml/dsmts23/dsmts-002-05.xml
     1915  2012-07-02 06:07   Cain/examples/sbml/dsmts23/dsmts-002-06.xml
     1956  2012-07-02 06:07   Cain/examples/sbml/dsmts23/dsmts-002-07.xml
     1661  2012-07-02 06:07   Cain/examples/sbml/dsmts23/dsmts-002-08.xml
     2194  2012-07-02 06:07   Cain/examples/sbml/dsmts23/dsmts-003-01.xml
     2197  2012-07-02 06:07   Cain/examples/sbml/dsmts23/dsmts-003-02.xml
     3058  2012-07-02 06:07   Cain/examples/sbml/dsmts23/dsmts-003-03.xml
     2978  2012-07-02 06:07   Cain/examples/sbml/dsmts23/dsmts-003-04.xml
     2149  2012-07-02 06:07   Cain/examples/sbml/dsmts23/dsmts-003-05.xml
     2412  2012-07-02 06:07   Cain/examples/sbml/dsmts23/dsmts-003-06.xml
     2412  2012-07-02 06:07   Cain/examples/sbml/dsmts23/dsmts-003-07.xml
     1534  2012-07-02 06:07   Cain/examples/sbml/dsmts23/dsmts-004-01.xml
     1535  2012-07-02 06:07   Cain/examples/sbml/dsmts23/dsmts-004-02.xml
     1534  2012-07-02 06:07   Cain/examples/sbml/dsmts23/dsmts-004-03.xml
        0  2012-07-02 06:07   Cain/examples/sbml/dsmts31/
      610  2012-07-02 06:07   Cain/examples/sbml/dsmts31/dsmts-001-01-mean.csv
     3695  2012-07-02 06:07   Cain/examples/sbml/dsmts31/dsmts-001-01-mean.pdf
      603  2012-07-02 06:07   Cain/examples/sbml/dsmts31/dsmts-001-01-sd.csv
     3716  2012-07-02 06:07   Cain/examples/sbml/dsmts31/dsmts-001-01-sd.pdf
      227  2012-07-02 06:07   Cain/examples/sbml/dsmts31/dsmts-001-01.mod
     1782  2012-07-02 06:07   Cain/examples/sbml/dsmts31/dsmts-001-01.xml
      610  2012-07-02 06:07   Cain/examples/sbml/dsmts31/dsmts-001-02-mean.csv
     3695  2012-07-02 06:07   Cain/examples/sbml/dsmts31/dsmts-001-02-mean.pdf
      603  2012-07-02 06:07   Cain/examples/sbml/dsmts31/dsmts-001-02-sd.csv
     3716  2012-07-02 06:07   Cain/examples/sbml/dsmts31/dsmts-001-02-sd.pdf
      217  2012-07-02 06:07   Cain/examples/sbml/dsmts31/dsmts-001-02.mod
     1863  2012-07-02 06:07   Cain/examples/sbml/dsmts31/dsmts-001-02.xml
      583  2012-07-02 06:07   Cain/examples/sbml/dsmts31/dsmts-001-03-mean.csv
     3772  2012-07-02 06:07   Cain/examples/sbml/dsmts31/dsmts-001-03-mean.pdf
      587  2012-07-02 06:07   Cain/examples/sbml/dsmts31/dsmts-001-03-sd.csv
     3716  2012-07-02 06:07   Cain/examples/sbml/dsmts31/dsmts-001-03-sd.pdf
      224  2012-07-02 06:07   Cain/examples/sbml/dsmts31/dsmts-001-03.mod
     1779  2012-07-02 06:07   Cain/examples/sbml/dsmts31/dsmts-001-03.xml
      559  2012-07-02 06:07   Cain/examples/sbml/dsmts31/dsmts-001-04-mean.csv
     3690  2012-07-02 06:07   Cain/examples/sbml/dsmts31/dsmts-001-04-mean.pdf
      745  2012-07-02 06:07   Cain/examples/sbml/dsmts31/dsmts-001-04-sd.csv
     3992  2012-07-02 06:07   Cain/examples/sbml/dsmts31/dsmts-001-04-sd.pdf
      226  2012-07-02 06:07   Cain/examples/sbml/dsmts31/dsmts-001-04.mod
     1781  2012-07-02 06:07   Cain/examples/sbml/dsmts31/dsmts-001-04.xml
      712  2012-07-02 06:07   Cain/examples/sbml/dsmts31/dsmts-001-05-mean.csv
     3705  2012-07-02 06:07   Cain/examples/sbml/dsmts31/dsmts-001-05-mean.pdf
      653  2012-07-02 06:07   Cain/examples/sbml/dsmts31/dsmts-001-05-sd.csv
     3720  2012-07-02 06:07   Cain/examples/sbml/dsmts31/dsmts-001-05-sd.pdf
      229  2012-07-02 06:07   Cain/examples/sbml/dsmts31/dsmts-001-05.mod
     1784  2012-07-02 06:07   Cain/examples/sbml/dsmts31/dsmts-001-05.xml
      706  2012-07-02 06:07   Cain/examples/sbml/dsmts31/dsmts-001-06-mean.csv
     4701  2012-07-02 06:07   Cain/examples/sbml/dsmts31/dsmts-001-06-mean.pdf
      701  2012-07-02 06:07   Cain/examples/sbml/dsmts31/dsmts-001-06-sd.csv
     4626  2012-07-02 06:07   Cain/examples/sbml/dsmts31/dsmts-001-06-sd.pdf
      247  2012-07-02 06:07   Cain/examples/sbml/dsmts31/dsmts-001-06.mod
     2048  2012-07-02 06:07   Cain/examples/sbml/dsmts31/dsmts-001-06.xml
     1042  2012-07-02 06:07   Cain/examples/sbml/dsmts31/dsmts-001-07-mean.csv
     4659  2012-07-02 06:07   Cain/examples/sbml/dsmts31/dsmts-001-07-mean.pdf
     1045  2012-07-02 06:07   Cain/examples/sbml/dsmts31/dsmts-001-07-sd.csv
     4959  2012-07-02 06:07   Cain/examples/sbml/dsmts31/dsmts-001-07-sd.pdf
      246  2012-07-02 06:07   Cain/examples/sbml/dsmts31/dsmts-001-07.mod
     2049  2012-07-02 06:07   Cain/examples/sbml/dsmts31/dsmts-001-07.xml
      610  2012-07-02 06:07   Cain/examples/sbml/dsmts31/dsmts-001-08-mean.csv
     3695  2012-07-02 06:07   Cain/examples/sbml/dsmts31/dsmts-001-08-mean.pdf
      603  2012-07-02 06:07   Cain/examples/sbml/dsmts31/dsmts-001-08-sd.csv
     3716  2012-07-02 06:07   Cain/examples/sbml/dsmts31/dsmts-001-08-sd.pdf
      229  2012-07-02 06:07   Cain/examples/sbml/dsmts31/dsmts-001-08.mod
     1791  2012-07-02 06:07   Cain/examples/sbml/dsmts31/dsmts-001-08.xml
      610  2012-07-02 06:07   Cain/examples/sbml/dsmts31/dsmts-001-09-mean.csv
     3695  2012-07-02 06:07   Cain/examples/sbml/dsmts31/dsmts-001-09-mean.pdf
      603  2012-07-02 06:07   Cain/examples/sbml/dsmts31/dsmts-001-09-sd.csv
     3716  2012-07-02 06:07   Cain/examples/sbml/dsmts31/dsmts-001-09-sd.pdf
      229  2012-07-02 06:07   Cain/examples/sbml/dsmts31/dsmts-001-09.mod
     1791  2012-07-02 06:07   Cain/examples/sbml/dsmts31/dsmts-001-09.xml
      605  2012-07-02 06:07   Cain/examples/sbml/dsmts31/dsmts-001-10-mean.csv
     3695  2012-07-02 06:07   Cain/examples/sbml/dsmts31/dsmts-001-10-mean.pdf
      603  2012-07-02 06:07   Cain/examples/sbml/dsmts31/dsmts-001-10-sd.csv
     3716  2012-07-02 06:07   Cain/examples/sbml/dsmts31/dsmts-001-10-sd.pdf
      227  2012-07-02 06:07   Cain/examples/sbml/dsmts31/dsmts-001-10.mod
     1792  2012-07-02 06:07   Cain/examples/sbml/dsmts31/dsmts-001-10.xml
      598  2012-07-02 06:07   Cain/examples/sbml/dsmts31/dsmts-001-11-mean.csv
     3699  2012-07-02 06:07   Cain/examples/sbml/dsmts31/dsmts-001-11-mean.pdf
      747  2012-07-02 06:07   Cain/examples/sbml/dsmts31/dsmts-001-11-sd.csv
     3622  2012-07-02 06:07   Cain/examples/sbml/dsmts31/dsmts-001-11-sd.pdf
      227  2012-07-02 06:07   Cain/examples/sbml/dsmts31/dsmts-001-11.mod
     1792  2012-07-02 06:07   Cain/examples/sbml/dsmts31/dsmts-001-11.xml
      610  2012-07-02 06:07   Cain/examples/sbml/dsmts31/dsmts-001-12-mean.csv
     3695  2012-07-02 06:07   Cain/examples/sbml/dsmts31/dsmts-001-12-mean.pdf
      603  2012-07-02 06:07   Cain/examples/sbml/dsmts31/dsmts-001-12-sd.csv
     3716  2012-07-02 06:07   Cain/examples/sbml/dsmts31/dsmts-001-12-sd.pdf
      233  2012-07-02 06:07   Cain/examples/sbml/dsmts31/dsmts-001-12.mod
     1853  2012-07-02 06:07   Cain/examples/sbml/dsmts31/dsmts-001-12.xml
      610  2012-07-02 06:07   Cain/examples/sbml/dsmts31/dsmts-001-13-mean.csv
     3695  2012-07-02 06:07   Cain/examples/sbml/dsmts31/dsmts-001-13-mean.pdf
      603  2012-07-02 06:07   Cain/examples/sbml/dsmts31/dsmts-001-13-sd.csv
     3716  2012-07-02 06:07   Cain/examples/sbml/dsmts31/dsmts-001-13-sd.pdf
      231  2012-07-02 06:07   Cain/examples/sbml/dsmts31/dsmts-001-13.mod
     1811  2012-07-02 06:07   Cain/examples/sbml/dsmts31/dsmts-001-13.xml
      610  2012-07-02 06:07   Cain/examples/sbml/dsmts31/dsmts-001-14-mean.csv
     3695  2012-07-02 06:07   Cain/examples/sbml/dsmts31/dsmts-001-14-mean.pdf
      603  2012-07-02 06:07   Cain/examples/sbml/dsmts31/dsmts-001-14-sd.csv
     3716  2012-07-02 06:07   Cain/examples/sbml/dsmts31/dsmts-001-14-sd.pdf
      233  2012-07-02 06:07   Cain/examples/sbml/dsmts31/dsmts-001-14.mod
     2011  2012-07-02 06:07   Cain/examples/sbml/dsmts31/dsmts-001-14.xml
      610  2012-07-02 06:07   Cain/examples/sbml/dsmts31/dsmts-001-15-mean.csv
     3695  2012-07-02 06:07   Cain/examples/sbml/dsmts31/dsmts-001-15-mean.pdf
      603  2012-07-02 06:07   Cain/examples/sbml/dsmts31/dsmts-001-15-sd.csv
     3716  2012-07-02 06:07   Cain/examples/sbml/dsmts31/dsmts-001-15-sd.pdf
      235  2012-07-02 06:07   Cain/examples/sbml/dsmts31/dsmts-001-15.mod
     2011  2012-07-02 06:07   Cain/examples/sbml/dsmts31/dsmts-001-15.xml
      610  2012-07-02 06:07   Cain/examples/sbml/dsmts31/dsmts-001-16-mean.csv
     3695  2012-07-02 06:07   Cain/examples/sbml/dsmts31/dsmts-001-16-mean.pdf
      603  2012-07-02 06:07   Cain/examples/sbml/dsmts31/dsmts-001-16-sd.csv
     3716  2012-07-02 06:07   Cain/examples/sbml/dsmts31/dsmts-001-16-sd.pdf
      233  2012-07-02 06:07   Cain/examples/sbml/dsmts31/dsmts-001-16.mod
     2016  2012-07-02 06:07   Cain/examples/sbml/dsmts31/dsmts-001-16.xml
      610  2012-07-02 06:07   Cain/examples/sbml/dsmts31/dsmts-001-17-mean.csv
     3695  2012-07-02 06:07   Cain/examples/sbml/dsmts31/dsmts-001-17-mean.pdf
      603  2012-07-02 06:07   Cain/examples/sbml/dsmts31/dsmts-001-17-sd.csv
     3716  2012-07-02 06:07   Cain/examples/sbml/dsmts31/dsmts-001-17-sd.pdf
      239  2012-07-02 06:07   Cain/examples/sbml/dsmts31/dsmts-001-17.mod
     1851  2012-07-02 06:07   Cain/examples/sbml/dsmts31/dsmts-001-17.xml
      598  2012-07-02 06:07   Cain/examples/sbml/dsmts31/dsmts-001-18-mean.csv
     3699  2012-07-02 06:07   Cain/examples/sbml/dsmts31/dsmts-001-18-mean.pdf
      747  2012-07-02 06:07   Cain/examples/sbml/dsmts31/dsmts-001-18-sd.csv
     3622  2012-07-02 06:07   Cain/examples/sbml/dsmts31/dsmts-001-18-sd.pdf
      241  2012-07-02 06:07   Cain/examples/sbml/dsmts31/dsmts-001-18.mod
     1853  2012-07-02 06:07   Cain/examples/sbml/dsmts31/dsmts-001-18.xml
     1128  2012-07-02 06:07   Cain/examples/sbml/dsmts31/dsmts-001-19-mean.csv
     4934  2012-07-02 06:07   Cain/examples/sbml/dsmts31/dsmts-001-19-mean.pdf
     1068  2012-07-02 06:07   Cain/examples/sbml/dsmts31/dsmts-001-19-sd.csv
     4674  2012-07-02 06:07   Cain/examples/sbml/dsmts31/dsmts-001-19-sd.pdf
      255  2012-07-02 06:07   Cain/examples/sbml/dsmts31/dsmts-001-19.mod
     2209  2012-07-02 06:07   Cain/examples/sbml/dsmts31/dsmts-001-19.xml
      591  2012-07-02 06:07   Cain/examples/sbml/dsmts31/dsmts-002-01-mean.csv
     3785  2012-07-02 06:07   Cain/examples/sbml/dsmts31/dsmts-002-01-mean.pdf
      747  2012-07-02 06:07   Cain/examples/sbml/dsmts31/dsmts-002-01-sd.csv
     3913  2012-07-02 06:07   Cain/examples/sbml/dsmts31/dsmts-002-01-sd.pdf
      226  2012-07-02 06:07   Cain/examples/sbml/dsmts31/dsmts-002-01.mod
     1564  2012-07-02 06:07   Cain/examples/sbml/dsmts31/dsmts-002-01.xml
      589  2012-07-02 06:07   Cain/examples/sbml/dsmts31/dsmts-002-02-mean.csv
     3790  2012-07-02 06:07   Cain/examples/sbml/dsmts31/dsmts-002-02-mean.pdf
      749  2012-07-02 06:07   Cain/examples/sbml/dsmts31/dsmts-002-02-sd.csv
     3807  2012-07-02 06:07   Cain/examples/sbml/dsmts31/dsmts-002-02-sd.pdf
      227  2012-07-02 06:07   Cain/examples/sbml/dsmts31/dsmts-002-02.mod
     1565  2012-07-02 06:07   Cain/examples/sbml/dsmts31/dsmts-002-02.xml
      594  2012-07-02 06:07   Cain/examples/sbml/dsmts31/dsmts-002-03-mean.csv
     3789  2012-07-02 06:07   Cain/examples/sbml/dsmts31/dsmts-002-03-mean.pdf
      547  2012-07-02 06:07   Cain/examples/sbml/dsmts31/dsmts-002-03-sd.csv
     3992  2012-07-02 06:07   Cain/examples/sbml/dsmts31/dsmts-002-03-sd.pdf
      237  2012-07-02 06:07   Cain/examples/sbml/dsmts31/dsmts-002-03.mod
     1685  2012-07-02 06:07   Cain/examples/sbml/dsmts31/dsmts-002-03.xml
      590  2012-07-02 06:07   Cain/examples/sbml/dsmts31/dsmts-002-04-mean.csv
     3800  2012-07-02 06:07   Cain/examples/sbml/dsmts31/dsmts-002-04-mean.pdf
      596  2012-07-02 06:07   Cain/examples/sbml/dsmts31/dsmts-002-04-sd.csv
     3812  2012-07-02 06:07   Cain/examples/sbml/dsmts31/dsmts-002-04-sd.pdf
      229  2012-07-02 06:07   Cain/examples/sbml/dsmts31/dsmts-002-04.mod
     1567  2012-07-02 06:07   Cain/examples/sbml/dsmts31/dsmts-002-04.xml
      805  2012-07-02 06:07   Cain/examples/sbml/dsmts31/dsmts-002-05-mean.csv
     5612  2012-07-02 06:07   Cain/examples/sbml/dsmts31/dsmts-002-05-mean.pdf
      965  2012-07-02 06:07   Cain/examples/sbml/dsmts31/dsmts-002-05-sd.csv
     5629  2012-07-02 06:07   Cain/examples/sbml/dsmts31/dsmts-002-05-sd.pdf
      272  2012-07-02 06:07   Cain/examples/sbml/dsmts31/dsmts-002-05.mod
     2103  2012-07-02 06:07   Cain/examples/sbml/dsmts31/dsmts-002-05.xml
     1153  2012-07-02 06:07   Cain/examples/sbml/dsmts31/dsmts-002-06-mean.csv
     5564  2012-07-02 06:07   Cain/examples/sbml/dsmts31/dsmts-002-06-mean.pdf
     1158  2012-07-02 06:07   Cain/examples/sbml/dsmts31/dsmts-002-06-sd.csv
     5587  2012-07-02 06:07   Cain/examples/sbml/dsmts31/dsmts-002-06-sd.pdf
      271  2012-07-02 06:07   Cain/examples/sbml/dsmts31/dsmts-002-06.mod
     2104  2012-07-02 06:07   Cain/examples/sbml/dsmts31/dsmts-002-06.xml
      805  2012-07-02 06:07   Cain/examples/sbml/dsmts31/dsmts-002-07-mean.csv
     5612  2012-07-02 06:07   Cain/examples/sbml/dsmts31/dsmts-002-07-mean.pdf
      965  2012-07-02 06:07   Cain/examples/sbml/dsmts31/dsmts-002-07-sd.csv
     5629  2012-07-02 06:07   Cain/examples/sbml/dsmts31/dsmts-002-07-sd.pdf
      273  2012-07-02 06:07   Cain/examples/sbml/dsmts31/dsmts-002-07.mod
     2102  2012-07-02 06:07   Cain/examples/sbml/dsmts31/dsmts-002-07.xml
      591  2012-07-02 06:07   Cain/examples/sbml/dsmts31/dsmts-002-08-mean.csv
     3785  2012-07-02 06:07   Cain/examples/sbml/dsmts31/dsmts-002-08-mean.pdf
      747  2012-07-02 06:07   Cain/examples/sbml/dsmts31/dsmts-002-08-sd.csv
     3913  2012-07-02 06:07   Cain/examples/sbml/dsmts31/dsmts-002-08-sd.pdf
      223  2012-07-02 06:07   Cain/examples/sbml/dsmts31/dsmts-002-08.mod
     1734  2012-07-02 06:07   Cain/examples/sbml/dsmts31/dsmts-002-08.xml
      718  2012-07-02 06:07   Cain/examples/sbml/dsmts31/dsmts-002-09-mean.csv
     3787  2012-07-02 06:07   Cain/examples/sbml/dsmts31/dsmts-002-09-mean.pdf
      787  2012-07-02 06:07   Cain/examples/sbml/dsmts31/dsmts-002-09-sd.csv
     3712  2012-07-02 06:07   Cain/examples/sbml/dsmts31/dsmts-002-09-sd.pdf
      255  2012-07-02 06:07   Cain/examples/sbml/dsmts31/dsmts-002-09.mod
     2232  2012-07-02 06:07   Cain/examples/sbml/dsmts31/dsmts-002-09.xml
      735  2012-07-02 06:07   Cain/examples/sbml/dsmts31/dsmts-002-10-mean.csv
     3694  2012-07-02 06:07   Cain/examples/sbml/dsmts31/dsmts-002-10-mean.pdf
      803  2012-07-02 06:07   Cain/examples/sbml/dsmts31/dsmts-002-10-sd.csv
     3913  2012-07-02 06:07   Cain/examples/sbml/dsmts31/dsmts-002-10-sd.pdf
      257  2012-07-02 06:07   Cain/examples/sbml/dsmts31/dsmts-002-10.mod
     2219  2012-07-02 06:07   Cain/examples/sbml/dsmts31/dsmts-002-10.xml
     1145  2012-07-02 06:07   Cain/examples/sbml/dsmts31/dsmts-003-01-mean.csv
     4749  2012-07-02 06:07   Cain/examples/sbml/dsmts31/dsmts-003-01-mean.pdf
     1050  2012-07-02 06:07   Cain/examples/sbml/dsmts31/dsmts-003-01-sd.csv
     4764  2012-07-02 06:07   Cain/examples/sbml/dsmts31/dsmts-003-01-sd.pdf
      267  2012-07-02 06:07   Cain/examples/sbml/dsmts31/dsmts-003-01.mod
     2330  2012-07-02 06:07   Cain/examples/sbml/dsmts31/dsmts-003-01.xml
     1254  2012-07-02 06:07   Cain/examples/sbml/dsmts31/dsmts-003-02-mean.csv
     4754  2012-07-02 06:07   Cain/examples/sbml/dsmts31/dsmts-003-02-mean.pdf
     1096  2012-07-02 06:07   Cain/examples/sbml/dsmts31/dsmts-003-02-sd.csv
     4580  2012-07-02 06:07   Cain/examples/sbml/dsmts31/dsmts-003-02-sd.pdf
      270  2012-07-02 06:07   Cain/examples/sbml/dsmts31/dsmts-003-02.mod
     2333  2012-07-02 06:07   Cain/examples/sbml/dsmts31/dsmts-003-02.xml
     1127  2012-07-02 06:07   Cain/examples/sbml/dsmts31/dsmts-003-03-mean.csv
     4748  2012-07-02 06:07   Cain/examples/sbml/dsmts31/dsmts-003-03-mean.pdf
     1035  2012-07-02 06:07   Cain/examples/sbml/dsmts31/dsmts-003-03-sd.csv
     4762  2012-07-02 06:07   Cain/examples/sbml/dsmts31/dsmts-003-03-sd.pdf
      303  2012-07-02 06:07   Cain/examples/sbml/dsmts31/dsmts-003-03.mod
     3194  2012-07-02 06:07   Cain/examples/sbml/dsmts31/dsmts-003-03.xml
     1141  2012-07-02 06:07   Cain/examples/sbml/dsmts31/dsmts-003-04-mean.csv
     4749  2012-07-02 06:07   Cain/examples/sbml/dsmts31/dsmts-003-04-mean.pdf
     1081  2012-07-02 06:07   Cain/examples/sbml/dsmts31/dsmts-003-04-sd.csv
     4674  2012-07-02 06:07   Cain/examples/sbml/dsmts31/dsmts-003-04-sd.pdf
      303  2012-07-02 06:07   Cain/examples/sbml/dsmts31/dsmts-003-04.mod
     3114  2012-07-02 06:07   Cain/examples/sbml/dsmts31/dsmts-003-04.xml
      645  2012-07-02 06:07   Cain/examples/sbml/dsmts31/dsmts-003-05-mean.csv
     3977  2012-07-02 06:07   Cain/examples/sbml/dsmts31/dsmts-003-05-mean.pdf
      601  2012-07-02 06:07   Cain/examples/sbml/dsmts31/dsmts-003-05-sd.csv
     3819  2012-07-02 06:07   Cain/examples/sbml/dsmts31/dsmts-003-05-sd.pdf
      262  2012-07-02 06:07   Cain/examples/sbml/dsmts31/dsmts-003-05.mod
     2208  2012-07-02 06:07   Cain/examples/sbml/dsmts31/dsmts-003-05.xml
      645  2012-07-02 06:07   Cain/examples/sbml/dsmts31/dsmts-003-06-mean.csv
     3977  2012-07-02 06:07   Cain/examples/sbml/dsmts31/dsmts-003-06-mean.pdf
      601  2012-07-02 06:07   Cain/examples/sbml/dsmts31/dsmts-003-06-sd.csv
     3819  2012-07-02 06:07   Cain/examples/sbml/dsmts31/dsmts-003-06-sd.pdf
      263  2012-07-02 06:07   Cain/examples/sbml/dsmts31/dsmts-003-06.mod
     2471  2012-07-02 06:07   Cain/examples/sbml/dsmts31/dsmts-003-06.xml
      645  2012-07-02 06:07   Cain/examples/sbml/dsmts31/dsmts-003-07-mean.csv
     3977  2012-07-02 06:07   Cain/examples/sbml/dsmts31/dsmts-003-07-mean.pdf
      601  2012-07-02 06:07   Cain/examples/sbml/dsmts31/dsmts-003-07-sd.csv
     3819  2012-07-02 06:07   Cain/examples/sbml/dsmts31/dsmts-003-07-sd.pdf
      265  2012-07-02 06:07   Cain/examples/sbml/dsmts31/dsmts-003-07.mod
     2471  2012-07-02 06:07   Cain/examples/sbml/dsmts31/dsmts-003-07.xml
      660  2012-07-02 06:07   Cain/examples/sbml/dsmts31/dsmts-004-01-mean.csv
     3788  2012-07-02 06:07   Cain/examples/sbml/dsmts31/dsmts-004-01-mean.pdf
      609  2012-07-02 06:07   Cain/examples/sbml/dsmts31/dsmts-004-01-sd.csv
     3713  2012-07-02 06:07   Cain/examples/sbml/dsmts31/dsmts-004-01-sd.pdf
      238  2012-07-02 06:07   Cain/examples/sbml/dsmts31/dsmts-004-01.mod
     1575  2012-07-02 06:07   Cain/examples/sbml/dsmts31/dsmts-004-01.xml
      658  2012-07-02 06:07   Cain/examples/sbml/dsmts31/dsmts-004-02-mean.csv
     3788  2012-07-02 06:07   Cain/examples/sbml/dsmts31/dsmts-004-02-mean.pdf
      658  2012-07-02 06:07   Cain/examples/sbml/dsmts31/dsmts-004-02-sd.csv
     3901  2012-07-02 06:07   Cain/examples/sbml/dsmts31/dsmts-004-02-sd.pdf
      239  2012-07-02 06:07   Cain/examples/sbml/dsmts31/dsmts-004-02.mod
     1576  2012-07-02 06:07   Cain/examples/sbml/dsmts31/dsmts-004-02.xml
      608  2012-07-02 06:07   Cain/examples/sbml/dsmts31/dsmts-004-03-mean.csv
     3788  2012-07-02 06:07   Cain/examples/sbml/dsmts31/dsmts-004-03-mean.pdf
      608  2012-07-02 06:07   Cain/examples/sbml/dsmts31/dsmts-004-03-sd.csv
     3998  2012-07-02 06:07   Cain/examples/sbml/dsmts31/dsmts-004-03-sd.pdf
      238  2012-07-02 06:07   Cain/examples/sbml/dsmts31/dsmts-004-03.mod
     1575  2012-07-02 06:07   Cain/examples/sbml/dsmts31/dsmts-004-03.xml
   418841  2012-07-02 06:07   Cain/examples/sbml/dsmts31/dsmts-userguide.pdf
      507  2012-07-02 06:07   Cain/examples/sbml/dsmts31/model-list
      597  2012-07-02 06:07   Cain/examples/sbml/dsmts31/README.txt
        0  2012-07-02 06:07   Cain/examples/sbml/WilkinsonSMfSB/
     6294  2012-07-02 06:07   Cain/examples/sbml/WilkinsonSMfSB/autoreg-2-1.xml
     1750  2012-07-02 06:07   Cain/examples/sbml/WilkinsonSMfSB/ch05-act.xml
     1563  2012-07-02 06:07   Cain/examples/sbml/WilkinsonSMfSB/ch05-imdeath.xml
     2628  2012-07-02 06:07   Cain/examples/sbml/WilkinsonSMfSB/ch06-lv.xml
     2309  2012-07-02 06:07   Cain/examples/sbml/WilkinsonSMfSB/ch07-dimer-stoch.xml
    12584  2012-07-02 06:07   Cain/examples/sbml/WilkinsonSMfSB/ch07-lac-stoch.xml
     2941  2012-07-02 06:07   Cain/examples/sbml/WilkinsonSMfSB/ch07-mm-stoch.xml
     3066  2012-07-02 06:07   Cain/examples/sbml/WilkinsonSMfSB/ch07-mm-stoch2.xml
        0  2012-07-02 06:07   Cain/fio/
       91  2012-07-02 06:07   Cain/fio/__init__.py
      355  2012-07-02 06:07   Cain/fio/CompartmentTextParser.py
    26134  2012-07-02 06:07   Cain/fio/ContentHandler.py
    18311  2012-07-02 06:07   Cain/fio/ContentHandlerSbml.py
      387  2012-07-02 06:07   Cain/fio/gnuplot.py
     3156  2012-07-02 06:07   Cain/fio/MathematicaWriter.py
      347  2012-07-02 06:07   Cain/fio/ParameterTextParser.py
     9257  2012-07-02 06:07   Cain/fio/ReactionTextParser.py
     3420  2012-07-02 06:07   Cain/fio/readModelText.py
      490  2012-07-02 06:07   Cain/fio/SbmlLevel1To2.py
     3225  2012-07-02 06:07   Cain/fio/SbmlReader.py
     4724  2012-07-02 06:07   Cain/fio/SpeciesTextParser.py
     4054  2012-07-02 06:07   Cain/fio/TimeEventTextParser.py
     4279  2012-07-02 06:07   Cain/fio/TriggerEventTextParser.py
     3392  2012-07-02 06:07   Cain/fio/ValueTextParser.py
     2670  2012-07-02 06:07   Cain/fio/XmlWriter.py
        0  2012-07-02 06:07   Cain/gui/
        0  2012-07-02 06:07   Cain/gui/__init__.py
     1235  2012-07-02 06:07   Cain/gui/About.py
     1393  2012-07-02 06:07   Cain/gui/Application.py
     5410  2012-07-02 06:07   Cain/gui/CheckBoxSelectAll.py
     1745  2012-07-02 06:07   Cain/gui/DuplicateDialog.py
     4834  2012-07-02 06:07   Cain/gui/Export.py
    10338  2012-07-02 06:07   Cain/gui/ExportHistogram.py
     4207  2012-07-02 06:07   Cain/gui/ExportHistogramGrid.py
    26808  2012-07-02 06:07   Cain/gui/ExportTimeSeries.py
     4619  2012-07-02 06:07   Cain/gui/ExportTimeSeriesGrid.py
      443  2012-07-02 06:07   Cain/gui/FigureNumber.py
        0  2012-07-02 06:07   Cain/gui/figures/
        0  2012-07-02 06:07   Cain/gui/figures/BirthDeath/
     9161  2012-07-02 06:07   Cain/gui/figures/BirthDeath/BirthDeath-0-1-1-DAR-Populations.jpg
    12264  2012-07-02 06:07   Cain/gui/figures/BirthDeath/BirthDeath-0-1-1-DAR-Populations.pdf
    14254  2012-07-02 06:07   Cain/gui/figures/BirthDeath/BirthDeath-0-1-1-DAR-Reactions.pdf
    18850  2012-07-02 06:07   Cain/gui/figures/BirthDeath/BirthDeath-0-1-DAR-ODE-Populations.jpg
    15173  2012-07-02 06:07   Cain/gui/figures/BirthDeath/BirthDeath-0-1-DAR-ODE-Populations.pdf
    17479  2012-07-02 06:07   Cain/gui/figures/BirthDeath/BirthDeath-0-1-DAR-Populations.pdf
    21462  2012-07-02 06:07   Cain/gui/figures/BirthDeath/BirthDeath-0-1-DAR-Reactions.pdf
     9423  2012-07-02 06:07   Cain/gui/figures/BirthDeath/BirthDeath-0-1-ODE-Populations.jpg
    12119  2012-07-02 06:07   Cain/gui/figures/BirthDeath/BirthDeath-0-1-ODE-Populations.pdf
     9941  2012-07-02 06:07   Cain/gui/figures/BirthDeath/BirthDeath-0-1-ODE-Reactions.jpg
    14044  2012-07-02 06:07   Cain/gui/figures/BirthDeath/BirthDeath-0-1-ODE-Reactions.pdf
    10774  2012-07-02 06:07   Cain/gui/figures/BirthDeath/BirthDeath-0-1-Populations.jpg
     9723  2012-07-02 06:07   Cain/gui/figures/BirthDeath/BirthDeath-0-1-Reactions.jpg
     7295  2012-07-02 06:07   Cain/gui/figures/BirthDeath/BirthDeath-0-1.dat
      848  2012-07-02 06:07   Cain/gui/figures/BirthDeath/BirthDeath-0-1.gnu
    23449  2012-07-02 06:07   Cain/gui/figures/BirthDeath/BirthDeath-10-11-1-DAR-Populations.pdf
    32416  2012-07-02 06:07   Cain/gui/figures/BirthDeath/BirthDeath-10-11-1-DAR-Reactions.pdf
    25226  2012-07-02 06:07   Cain/gui/figures/BirthDeath/BirthDeath-10-11-DAR-ODE-Populations.jpg
    66900  2012-07-02 06:07   Cain/gui/figures/BirthDeath/BirthDeath-10-11-DAR-ODE-Populations.pdf
   127239  2012-07-02 06:07   Cain/gui/figures/BirthDeath/BirthDeath-10-11-DAR-Populations.pdf
    12320  2012-07-02 06:07   Cain/gui/figures/BirthDeath/BirthDeath-10-11-ODE-Reactions.jpg
    15101  2012-07-02 06:07   Cain/gui/figures/BirthDeath/BirthDeath-10-11-ODE-Reactions.pdf
    13352  2012-07-02 06:07   Cain/gui/figures/BirthDeath/BirthDeath-10-11-Populations.jpg
    13193  2012-07-02 06:07   Cain/gui/figures/BirthDeath/BirthDeath-10-11-Reactions.jpg
     9490  2012-07-02 06:07   Cain/gui/figures/BirthDeath/BirthDeath-10-11.dat
      870  2012-07-02 06:07   Cain/gui/figures/BirthDeath/BirthDeath-10-11.gnu
    11470  2012-07-02 06:07   Cain/gui/figures/BirthDeath/BirthDeath-3-4-BinnedReactionCountStatistics.jpg
    14392  2012-07-02 06:07   Cain/gui/figures/BirthDeath/BirthDeath-3-4-BinnedReactionCountTrajectories.jpg
    15425  2012-07-02 06:07   Cain/gui/figures/BirthDeath/BirthDeath-3-4-CumulativeReactionCountStatistics.jpg
    15229  2012-07-02 06:07   Cain/gui/figures/BirthDeath/BirthDeath-3-4-CumulativeReactionCountTrajectories.jpg
    22557  2012-07-02 06:07   Cain/gui/figures/BirthDeath/BirthDeath-3-4-DAR-ODE-Populations.jpg
    36994  2012-07-02 06:07   Cain/gui/figures/BirthDeath/BirthDeath-3-4-DAR-ODE-Populations.pdf
    14319  2012-07-02 06:07   Cain/gui/figures/BirthDeath/BirthDeath-3-4-Populations.jpg
     9738  2012-07-02 06:07   Cain/gui/figures/BirthDeath/BirthDeath-3-4-PopulationStatistics.jpg
    12879  2012-07-02 06:07   Cain/gui/figures/BirthDeath/BirthDeath-3-4-PopulationTrajectories.jpg
    15592  2012-07-02 06:07   Cain/gui/figures/BirthDeath/BirthDeath-3-4-Reactions.jpg
     9088  2012-07-02 06:07   Cain/gui/figures/BirthDeath/BirthDeath-3-4.dat
      848  2012-07-02 06:07   Cain/gui/figures/BirthDeath/BirthDeath-3-4.gnu
    25432  2012-07-02 06:07   Cain/gui/figures/BirthDeath/BirthDeath-7-8-DAR-ODE-Populations.jpg
    45129  2012-07-02 06:07   Cain/gui/figures/BirthDeath/BirthDeath-7-8-DAR-ODE-Populations.pdf
    15292  2012-07-02 06:07   Cain/gui/figures/BirthDeath/BirthDeath-7-8-Populations.jpg
    14629  2012-07-02 06:07   Cain/gui/figures/BirthDeath/BirthDeath-7-8-Reactions.jpg
     9362  2012-07-02 06:07   Cain/gui/figures/BirthDeath/BirthDeath-7-8.dat
      848  2012-07-02 06:07   Cain/gui/figures/BirthDeath/BirthDeath-7-8.gnu
    14302  2012-07-02 06:07   Cain/gui/figures/BirthDeath/BirthDeath2.5Lambda0.jpg
    17319  2012-07-02 06:07   Cain/gui/figures/BirthDeath/BirthDeath2.5Lambda0.pdf
     9638  2012-07-02 06:07   Cain/gui/figures/BirthDeath/BirthDeath2.5Lambda10.jpg
    18589  2012-07-02 06:07   Cain/gui/figures/BirthDeath/BirthDeath2.5Lambda10.pdf
    12732  2012-07-02 06:07   Cain/gui/figures/BirthDeath/BirthDeath2.5Lambda3.jpg
    18412  2012-07-02 06:07   Cain/gui/figures/BirthDeath/BirthDeath2.5Lambda3.pdf
     9800  2012-07-02 06:07   Cain/gui/figures/BirthDeath/BirthDeath2.5Lambda7.jpg
    18569  2012-07-02 06:07   Cain/gui/figures/BirthDeath/BirthDeath2.5Lambda7.pdf
    71029  2012-07-02 06:07   Cain/gui/figures/CainCapture.png
     9695  2012-07-02 06:07   Cain/gui/figures/CainCapture.svg
   236380  2012-07-02 06:07   Cain/gui/figures/capture.tiff
    38696  2012-07-02 06:07   Cain/gui/figures/HistogramPlottingWindow.png
        0  2012-07-02 06:07   Cain/gui/figures/ImmigrationDeath/
    12379  2012-07-02 06:07   Cain/gui/figures/ImmigrationDeath/ImmigrationDeathSteadyState.jpg
    18956  2012-07-02 06:07   Cain/gui/figures/ImmigrationDeath/ImmigrationDeathSteadyState.pdf
        0  2012-07-02 06:07   Cain/gui/figures/Performance/
    66004  2012-07-02 06:07   Cain/gui/figures/Performance/AutoRegulatory5.jpg
    32791  2012-07-02 06:07   Cain/gui/figures/Performance/AutoRegulatory5.pdf
    58996  2012-07-02 06:07   Cain/gui/figures/Performance/AutoRegulatory50.jpg
   786279  2012-07-02 06:07   Cain/gui/figures/Performance/AutoRegulatory50.pdf
    34244  2012-07-02 06:07   Cain/gui/figures/Performance/Death.jpg
    21157  2012-07-02 06:07   Cain/gui/figures/Performance/Death.pdf
    34538  2012-07-02 06:07   Cain/gui/figures/Performance/DecayingDimerizing0.5.jpg
    35377  2012-07-02 06:07   Cain/gui/figures/Performance/DecayingDimerizing0.5.pdf
    36149  2012-07-02 06:07   Cain/gui/figures/Performance/DecayingDimerizing30.jpg
    38078  2012-07-02 06:07   Cain/gui/figures/Performance/DecayingDimerizing30.pdf
    50003  2012-07-02 06:07   Cain/gui/figures/Performance/ImmigrationDeath.jpg
    24297  2012-07-02 06:07   Cain/gui/figures/Performance/ImmigrationDeath.pdf
   162542  2012-07-02 06:07   Cain/gui/figures/PlottingWindow.png
    18153  2012-07-02 06:07   Cain/gui/GridRowEditor.py
   144517  2012-07-02 06:07   Cain/gui/help.html
     3270  2012-07-02 06:07   Cain/gui/Help.py
     7980  2012-07-02 06:07   Cain/gui/HistogramDistance.py
     1703  2012-07-02 06:07   Cain/gui/HtmlWindow.py
        0  2012-07-02 06:07   Cain/gui/icons/
        0  2012-07-02 06:07   Cain/gui/icons/16x16/
      792  2012-07-02 06:07   Cain/gui/icons/16x16/add.png
     1487  2012-07-02 06:07   Cain/gui/icons/16x16/addDisabled.png
      173  2012-07-02 06:07   Cain/gui/icons/16x16/blank.png
      986  2012-07-02 06:07   Cain/gui/icons/16x16/cancel.png
     1665  2012-07-02 06:07   Cain/gui/icons/16x16/cancelDisabled.png
      194  2012-07-02 06:07   Cain/gui/icons/16x16/chess-board.png
     2793  2012-07-02 06:07   Cain/gui/icons/16x16/chess-boardDisabled.png
      588  2012-07-02 06:07   Cain/gui/icons/16x16/compile.png
     1248  2012-07-02 06:07   Cain/gui/icons/16x16/compileDisabled.png
      357  2012-07-02 06:07   Cain/gui/icons/16x16/csv.png
      843  2012-07-02 06:07   Cain/gui/icons/16x16/destroy.png
      876  2012-07-02 06:07   Cain/gui/icons/16x16/dice.png
     3457  2012-07-02 06:07   Cain/gui/icons/16x16/diceDisabled.png
      311  2012-07-02 06:07   Cain/gui/icons/16x16/display-all.png
      220  2012-07-02 06:07   Cain/gui/icons/16x16/display-last.png
      767  2012-07-02 06:07   Cain/gui/icons/16x16/down.png
     1495  2012-07-02 06:07   Cain/gui/icons/16x16/downDisabled.png
      498  2012-07-02 06:07   Cain/gui/icons/16x16/editcopy.png
     1215  2012-07-02 06:07   Cain/gui/icons/16x16/editcopyDisabled.png
     1023  2012-07-02 06:07   Cain/gui/icons/16x16/exit.png
     1725  2012-07-02 06:07   Cain/gui/icons/16x16/exitDisabled.png
      547  2012-07-02 06:07   Cain/gui/icons/16x16/filenew.png
     1211  2012-07-02 06:07   Cain/gui/icons/16x16/filenewDisabled.png
      661  2012-07-02 06:07   Cain/gui/icons/16x16/fileopen.png
     1392  2012-07-02 06:07   Cain/gui/icons/16x16/fileopenDisabled.png
      820  2012-07-02 06:07   Cain/gui/icons/16x16/filesave.png
      918  2012-07-02 06:07   Cain/gui/icons/16x16/filesaveas.png
     1529  2012-07-02 06:07   Cain/gui/icons/16x16/filesaveasDisabled.png
     1429  2012-07-02 06:07   Cain/gui/icons/16x16/filesaveDisabled.png
      474  2012-07-02 06:07   Cain/gui/icons/16x16/gnuplot.png
     1324  2012-07-02 06:07   Cain/gui/icons/16x16/gnuplotDisabled.png
      917  2012-07-02 06:07   Cain/gui/icons/16x16/help.png
     1568  2012-07-02 06:07   Cain/gui/icons/16x16/helpDisabled.png
      221  2012-07-02 06:07   Cain/gui/icons/16x16/HistogramDistance.png
     2880  2012-07-02 06:07   Cain/gui/icons/16x16/HistogramDistanceDisabled.png
      954  2012-07-02 06:07   Cain/gui/icons/16x16/launch.png
     1623  2012-07-02 06:07   Cain/gui/icons/16x16/launchDisabled.png
      247  2012-07-02 06:07   Cain/gui/icons/16x16/list-remove.png
      988  2012-07-02 06:07   Cain/gui/icons/16x16/list-removeDisabled.png
      667  2012-07-02 06:07   Cain/gui/icons/16x16/lock.png
      789  2012-07-02 06:07   Cain/gui/icons/16x16/Mathematica.png
     3479  2012-07-02 06:07   Cain/gui/icons/16x16/MathematicaDisabled.png
      388  2012-07-02 06:07   Cain/gui/icons/16x16/plot.png
     1162  2012-07-02 06:07   Cain/gui/icons/16x16/plotDisabled.png
      384  2012-07-02 06:07   Cain/gui/icons/16x16/PlotPopulations.png
      325  2012-07-02 06:07   Cain/gui/icons/16x16/PlotReactions.png
      611  2012-07-02 06:07   Cain/gui/icons/16x16/preferences-system.png
     1376  2012-07-02 06:07   Cain/gui/icons/16x16/preferences-systemDisabled.png
      317  2012-07-02 06:07   Cain/gui/icons/16x16/pValue.png
     2979  2012-07-02 06:07   Cain/gui/icons/16x16/pValueDisabled.png
      718  2012-07-02 06:07   Cain/gui/icons/16x16/scale.png
     1400  2012-07-02 06:07   Cain/gui/icons/16x16/scaleDisabled.png
      376  2012-07-02 06:07   Cain/gui/icons/16x16/sort.png
     3110  2012-07-02 06:07   Cain/gui/icons/16x16/sortDisabled.png
      926  2012-07-02 06:07   Cain/gui/icons/16x16/stop.png
     1633  2012-07-02 06:07   Cain/gui/icons/16x16/stopDisabled.png
      935  2012-07-02 06:07   Cain/gui/icons/16x16/system-search.png
     1661  2012-07-02 06:07   Cain/gui/icons/16x16/system-searchDisabled.png
      333  2012-07-02 06:07   Cain/gui/icons/16x16/text-x-generic.png
      744  2012-07-02 06:07   Cain/gui/icons/16x16/up.png
     1479  2012-07-02 06:07   Cain/gui/icons/16x16/upDisabled.png
      668  2012-07-02 06:07   Cain/gui/icons/16x16/utilities-terminal.png
     1354  2012-07-02 06:07   Cain/gui/icons/16x16/utilities-terminalDisabled.png
      912  2012-07-02 06:07   Cain/gui/icons/16x16/view-refresh.png
     1675  2012-07-02 06:07   Cain/gui/icons/16x16/view-refreshDisabled.png
      704  2012-07-02 06:07   Cain/gui/icons/16x16/x-office-spreadsheet.png
     1415  2012-07-02 06:07   Cain/gui/icons/16x16/x-office-spreadsheetDisabled.png
     4382  2012-07-02 06:07   Cain/gui/icons/1998cacrbanner.gif
        0  2012-07-02 06:07   Cain/gui/icons/32x32/
     1482  2012-07-02 06:07   Cain/gui/icons/32x32/add.png
      187  2012-07-02 06:07   Cain/gui/icons/32x32/blank.png
     2224  2012-07-02 06:07   Cain/gui/icons/32x32/cancel.png
      212  2012-07-02 06:07   Cain/gui/icons/32x32/chess-board.png
     2544  2012-07-02 06:07   Cain/gui/icons/32x32/compile.png
      597  2012-07-02 06:07   Cain/gui/icons/32x32/csv.png
     1890  2012-07-02 06:07   Cain/gui/icons/32x32/destroy.png
     1962  2012-07-02 06:07   Cain/gui/icons/32x32/dice.png
      371  2012-07-02 06:07   Cain/gui/icons/32x32/display-all.png
      263  2012-07-02 06:07   Cain/gui/icons/32x32/display-last.png
     1558  2012-07-02 06:07   Cain/gui/icons/32x32/down.png
      723  2012-07-02 06:07   Cain/gui/icons/32x32/editcopy.png
     2507  2012-07-02 06:07   Cain/gui/icons/32x32/exit.png
      949  2012-07-02 06:07   Cain/gui/icons/32x32/filenew.png
     1415  2012-07-02 06:07   Cain/gui/icons/32x32/fileopen.png
     1667  2012-07-02 06:07   Cain/gui/icons/32x32/filesave.png
     2075  2012-07-02 06:07   Cain/gui/icons/32x32/filesaveas.png
      959  2012-07-02 06:07   Cain/gui/icons/32x32/gnuplot.png
     2341  2012-07-02 06:07   Cain/gui/icons/32x32/help.png
     2151  2012-07-02 06:07   Cain/gui/icons/32x32/launch.png
      317  2012-07-02 06:07   Cain/gui/icons/32x32/list-remove.png
     1213  2012-07-02 06:07   Cain/gui/icons/32x32/lock.png
     2116  2012-07-02 06:07   Cain/gui/icons/32x32/Mathematica.png
      679  2012-07-02 06:07   Cain/gui/icons/32x32/plot.png
      701  2012-07-02 06:07   Cain/gui/icons/32x32/PlotPopulations.png
      544  2012-07-02 06:07   Cain/gui/icons/32x32/PlotReactions.png
     2129  2012-07-02 06:07   Cain/gui/icons/32x32/preferences-system.png
     1356  2012-07-02 06:07   Cain/gui/icons/32x32/scale.png
     2108  2012-07-02 06:07   Cain/gui/icons/32x32/stop.png
     2215  2012-07-02 06:07   Cain/gui/icons/32x32/system-search.png
      744  2012-07-02 06:07   Cain/gui/icons/32x32/text-x-generic.png
     1771  2012-07-02 06:07   Cain/gui/icons/32x32/up.png
     1488  2012-07-02 06:07   Cain/gui/icons/32x32/utilities-terminal.png
     2024  2012-07-02 06:07   Cain/gui/icons/32x32/view-refresh.png
     1518  2012-07-02 06:07   Cain/gui/icons/32x32/x-office-spreadsheet.png
    14504  2012-07-02 06:07   Cain/gui/icons/beakers.png
     2802  2012-07-02 06:07   Cain/gui/icons/cacr.115.png
    39597  2012-07-02 06:07   Cain/gui/icons/Cain.icns
    67646  2012-07-02 06:07   Cain/gui/icons/cain.ico
    15009  2012-07-02 06:07   Cain/gui/icons/cain.png
     8160  2012-07-02 06:07   Cain/gui/icons/citlogo.gif
    13839  2012-07-02 06:07   Cain/gui/icons/dice.png
     4861  2012-07-02 06:07   Cain/gui/icons/diceSmall.png
      190  2012-07-02 06:07   Cain/gui/icons/icons.txt
    72205  2012-07-02 06:07   Cain/gui/icons/NIH_logo.png
    35815  2012-07-02 06:07   Cain/gui/icons/NIH_logo.svg
        0  2012-07-02 06:07   Cain/gui/icons/scalable/
      174  2012-07-02 06:07   Cain/gui/icons/scalable/chess-board.png
    16099  2012-07-02 06:07   Cain/gui/icons/scalable/compile.svg
     2585  2012-07-02 06:07   Cain/gui/icons/scalable/csv.svg
     3069  2012-07-02 06:07   Cain/gui/icons/scalable/display-all.svg
     2267  2012-07-02 06:07   Cain/gui/icons/scalable/display-last.svg
     2867  2012-07-02 06:07   Cain/gui/icons/scalable/gnuplot.svg
    13731  2012-07-02 06:07   Cain/gui/icons/scalable/list-remove.svg
     8071  2012-07-02 06:07   Cain/gui/icons/scalable/OpenOffice.org_2_icon.svg
     3750  2012-07-02 06:07   Cain/gui/icons/scalable/plot.svg
     2606  2012-07-02 06:07   Cain/gui/icons/scalable/PlotPopulations.svg
     2613  2012-07-02 06:07   Cain/gui/icons/scalable/PlotReactions.svg
     1308  2012-07-02 06:07   Cain/gui/icons/scalable/pValue.xcf
     1559  2012-07-02 06:07   Cain/gui/icons/scalable/sort.xcf
    15756  2012-07-02 06:07   Cain/gui/icons/scalable/system-search.svg
    21216  2012-07-02 06:07   Cain/gui/icons/scalable/utilities-terminal.svg
    16810  2012-07-02 06:07   Cain/gui/icons/scalable/view-refresh.svg
     1445  2012-07-02 06:07   Cain/gui/icons/seanEmail.png
    14288  2012-07-02 06:07   Cain/gui/IdentifierListEditor.py
    15693  2012-07-02 06:07   Cain/gui/Launcher.py
    74514  2012-07-02 06:07   Cain/gui/MainFrame.py
     3899  2012-07-02 06:07   Cain/gui/messages.py
    12038  2012-07-02 06:07   Cain/gui/MethodEditor.py
     1894  2012-07-02 06:07   Cain/gui/MethodHelp.py
     8817  2012-07-02 06:07   Cain/gui/ModelEditor.py
     5318  2012-07-02 06:07   Cain/gui/Plot.py
    16875  2012-07-02 06:07   Cain/gui/PlotHistogram.py
    11737  2012-07-02 06:07   Cain/gui/PlotHistogramGrid.py
    10816  2012-07-02 06:07   Cain/gui/PlotOptions.py
     9147  2012-07-02 06:07   Cain/gui/PlotStatistics.py
    20236  2012-07-02 06:07   Cain/gui/PlotTimeSeries.py
    13719  2012-07-02 06:07   Cain/gui/PlotTimeSeriesGrid.py
     2426  2012-07-02 06:07   Cain/gui/Preferences.py
     3764  2012-07-02 06:07   Cain/gui/PreferencesDialog.py
    16394  2012-07-02 06:07   Cain/gui/PValueMean.py
     2838  2012-07-02 06:07   Cain/gui/Record.py
     2299  2012-07-02 06:07   Cain/gui/SpeciesFrameDialog.py
   134693  2012-07-02 06:07   Cain/gui/splash.png
      971  2012-07-02 06:07   Cain/gui/StateModified.py
      966  2012-07-02 06:07   Cain/gui/statistics.py
      913  2012-07-02 06:07   Cain/gui/TableBase.py
     2488  2012-07-02 06:07   Cain/gui/TableHistogram.py
     2778  2012-07-02 06:07   Cain/gui/TableHistogramAverage.py
     3456  2012-07-02 06:07   Cain/gui/TableHistogramAverageStatistics.py
     3031  2012-07-02 06:07   Cain/gui/TableHistogramFrames.py
     3595  2012-07-02 06:07   Cain/gui/TableHistogramFramesStatistics.py
     2179  2012-07-02 06:07   Cain/gui/TableStatisticsAverage.py
     2551  2012-07-02 06:07   Cain/gui/TableStatisticsFrames.py
     6071  2012-07-02 06:07   Cain/gui/TableTimeSeriesAllReactions.py
    10170  2012-07-02 06:07   Cain/gui/TableTimeSeriesFrames.py
    29736  2012-07-02 06:07   Cain/gui/TrajectoriesList.py
     4090  2012-07-02 06:07   Cain/gui/VolumeEditor.py
        0  2012-07-02 06:07   Cain/help/
    43012  2012-07-02 06:07   Cain/help/.DS_Store
        0  2012-07-02 06:07   __MACOSX/Cain/help/
       82  2012-07-02 06:07   __MACOSX/Cain/help/._.DS_Store
      730  2012-07-02 06:07   Cain/help/Acknowledgments.htd
      708  2012-07-02 06:07   Cain/help/Acknowledgments.htm
      792  2012-07-02 06:07   Cain/help/add.png
      694  2012-07-02 06:07   Cain/help/add.prv.jpg
    66004  2012-07-02 06:07   Cain/help/AutoRegulatory5.jpg
     3322  2012-07-02 06:07   Cain/help/AutoRegulatory5.prv.jpg
    58996  2012-07-02 06:07   Cain/help/AutoRegulatory50.jpg
     3045  2012-07-02 06:07   Cain/help/AutoRegulatory50.prv.jpg
     6524  2012-07-02 06:07   Cain/help/Bibliography.htd
     6367  2012-07-02 06:07   Cain/help/Bibliography.htm
     9161  2012-07-02 06:07   Cain/help/BirthDeath-0-1-1-DAR-Populations.jpg
     1736  2012-07-02 06:07   Cain/help/BirthDeath-0-1-1-DAR-Populations.prv.jpg
    18850  2012-07-02 06:07   Cain/help/BirthDeath-0-1-DAR-ODE-Populations.jpg
     2137  2012-07-02 06:07   Cain/help/BirthDeath-0-1-DAR-ODE-Populations.prv.jpg
     9423  2012-07-02 06:07   Cain/help/BirthDeath-0-1-ODE-Populations.jpg
     1731  2012-07-02 06:07   Cain/help/BirthDeath-0-1-ODE-Populations.prv.jpg
     9941  2012-07-02 06:07   Cain/help/BirthDeath-0-1-ODE-Reactions.jpg
     1705  2012-07-02 06:07   Cain/help/BirthDeath-0-1-ODE-Reactions.prv.jpg
    10774  2012-07-02 06:07   Cain/help/BirthDeath-0-1-Populations.jpg
     1750  2012-07-02 06:07   Cain/help/BirthDeath-0-1-Populations.prv.jpg
     9723  2012-07-02 06:07   Cain/help/BirthDeath-0-1-Reactions.jpg
     1537  2012-07-02 06:07   Cain/help/BirthDeath-0-1-Reactions.prv.jpg
    25226  2012-07-02 06:07   Cain/help/BirthDeath-10-11-DAR-ODE-Populations.jpg
     2490  2012-07-02 06:07   Cain/help/BirthDeath-10-11-DAR-ODE-Populations.prv.jpg
    12320  2012-07-02 06:07   Cain/help/BirthDeath-10-11-ODE-Reactions.jpg
     1901  2012-07-02 06:07   Cain/help/BirthDeath-10-11-ODE-Reactions.prv.jpg
    13352  2012-07-02 06:07   Cain/help/BirthDeath-10-11-Populations.jpg
     1876  2012-07-02 06:07   Cain/help/BirthDeath-10-11-Populations.prv.jpg
    13193  2012-07-02 06:07   Cain/help/BirthDeath-10-11-Reactions.jpg
     1969  2012-07-02 06:07   Cain/help/BirthDeath-10-11-Reactions.prv.jpg
    11470  2012-07-02 06:07   Cain/help/BirthDeath-3-4-BinnedReactionCountStatistics.jpg
     1676  2012-07-02 06:07   Cain/help/BirthDeath-3-4-BinnedReactionCountStatistics.prv.jpg
    14392  2012-07-02 06:07   Cain/help/BirthDeath-3-4-BinnedReactionCountTrajectories.jpg
     1866  2012-07-02 06:07   Cain/help/BirthDeath-3-4-BinnedReactionCountTrajectories.prv.jpg
    15425  2012-07-02 06:07   Cain/help/BirthDeath-3-4-CumulativeReactionCountStatistics.jpg
     1828  2012-07-02 06:07   Cain/help/BirthDeath-3-4-CumulativeReactionCountStatistics.prv.jpg
    15229  2012-07-02 06:07   Cain/help/BirthDeath-3-4-CumulativeReactionCountTrajectories.jpg
     2196  2012-07-02 06:07   Cain/help/BirthDeath-3-4-CumulativeReactionCountTrajectories.prv.jpg
    22557  2012-07-02 06:07   Cain/help/BirthDeath-3-4-DAR-ODE-Populations.jpg
     2447  2012-07-02 06:07   Cain/help/BirthDeath-3-4-DAR-ODE-Populations.prv.jpg
    14319  2012-07-02 06:07   Cain/help/BirthDeath-3-4-Populations.jpg
     2010  2012-07-02 06:07   Cain/help/BirthDeath-3-4-Populations.prv.jpg
     9738  2012-07-02 06:07   Cain/help/BirthDeath-3-4-PopulationStatistics.jpg
     1647  2012-07-02 06:07   Cain/help/BirthDeath-3-4-PopulationStatistics.prv.jpg
    12879  2012-07-02 06:07   Cain/help/BirthDeath-3-4-PopulationTrajectories.jpg
     1830  2012-07-02 06:07   Cain/help/BirthDeath-3-4-PopulationTrajectories.prv.jpg
    15592  2012-07-02 06:07   Cain/help/BirthDeath-3-4-Reactions.jpg
     2046  2012-07-02 06:07   Cain/help/BirthDeath-3-4-Reactions.prv.jpg
    25432  2012-07-02 06:07   Cain/help/BirthDeath-7-8-DAR-ODE-Populations.jpg
     2537  2012-07-02 06:07   Cain/help/BirthDeath-7-8-DAR-ODE-Populations.prv.jpg
    15292  2012-07-02 06:07   Cain/help/BirthDeath-7-8-Populations.jpg
     2042  2012-07-02 06:07   Cain/help/BirthDeath-7-8-Populations.prv.jpg
    14629  2012-07-02 06:07   Cain/help/BirthDeath-7-8-Reactions.jpg
     1958  2012-07-02 06:07   Cain/help/BirthDeath-7-8-Reactions.prv.jpg
    14302  2012-07-02 06:07   Cain/help/BirthDeath2.5Lambda0.jpg
     2166  2012-07-02 06:07   Cain/help/BirthDeath2.5Lambda0.prv.jpg
     9638  2012-07-02 06:07   Cain/help/BirthDeath2.5Lambda10.jpg
     1508  2012-07-02 06:07   Cain/help/BirthDeath2.5Lambda10.prv.jpg
    12732  2012-07-02 06:07   Cain/help/BirthDeath2.5Lambda3.jpg
     1833  2012-07-02 06:07   Cain/help/BirthDeath2.5Lambda3.prv.jpg
     9800  2012-07-02 06:07   Cain/help/BirthDeath2.5Lambda7.jpg
     1502  2012-07-02 06:07   Cain/help/BirthDeath2.5Lambda7.prv.jpg
    13814  2012-07-02 06:07   Cain/help/cain.hhc
     9019  2012-07-02 06:07   Cain/help/cain.hhk
     1935  2012-07-02 06:07   Cain/help/cain.hhp
  6792905  2012-07-02 06:07   Cain/help/cain.htb
    15009  2012-07-02 06:07   Cain/help/cain.png
     3186  2012-07-02 06:07   Cain/help/cain.prv.jpg
    77990  2012-07-02 06:07   Cain/help/cain.wxh
       82  2012-07-02 06:07   __MACOSX/Cain/help/._cain.wxh
    78015  2012-07-02 06:07   Cain/help/cain.wxh.bak
       82  2012-07-02 06:07   __MACOSX/Cain/help/._cain.wxh.bak
       41  2012-07-02 06:07   Cain/help/cain_alias.h
       27  2012-07-02 06:07   Cain/help/cain_ids.h
    71029  2012-07-02 06:07   Cain/help/CainCapture.png
     2753  2012-07-02 06:07   Cain/help/CainCapture.prv.jpg
      986  2012-07-02 06:07   Cain/help/cancel.png
      707  2012-07-02 06:07   Cain/help/cancel.prv.jpg
      194  2012-07-02 06:07   Cain/help/chess-board.png
      718  2012-07-02 06:07   Cain/help/chess-board.prv.jpg
     8864  2012-07-02 06:07   Cain/help/CompartmentEditor.png
      588  2012-07-02 06:07   Cain/help/compile.png
      723  2012-07-02 06:07   Cain/help/compile.prv.jpg
     4912  2012-07-02 06:07   Cain/help/Developer.htd
     4796  2012-07-02 06:07   Cain/help/Developer.htm
     3348  2012-07-02 06:07   Cain/help/DeveloperCommand.htd
     3272  2012-07-02 06:07   Cain/help/DeveloperCommand.htm
     2086  2012-07-02 06:07   Cain/help/DeveloperDistributions.htd
     2030  2012-07-02 06:07   Cain/help/DeveloperDistributions.htm
      955  2012-07-02 06:07   Cain/help/DeveloperDocumentation.htd
      928  2012-07-02 06:07   Cain/help/DeveloperDocumentation.htm
    14756  2012-07-02 06:07   Cain/help/DeveloperFile.htd
    14388  2012-07-02 06:07   Cain/help/DeveloperFile.htm
      876  2012-07-02 06:07   Cain/help/dice.png
      728  2012-07-02 06:07   Cain/help/dice.prv.jpg
      767  2012-07-02 06:07   Cain/help/down.png
      696  2012-07-02 06:07   Cain/help/down.prv.jpg
     2348  2012-07-02 06:07   Cain/help/Dsmts.htd
     2349  2012-07-02 06:07   Cain/help/Dsmts.htm
     1615  2012-07-02 06:07   Cain/help/DsmtsBatch.htd
     1616  2012-07-02 06:07   Cain/help/DsmtsBatch.htm
    24536  2012-07-02 06:07   Cain/help/DsmtsBatch01Mean.jpg
    25147  2012-07-02 06:07   Cain/help/DsmtsBatch01StdDev.jpg
    24562  2012-07-02 06:07   Cain/help/DsmtsBatch02Mean.jpg
    24392  2012-07-02 06:07   Cain/help/DsmtsBatch02StdDev.jpg
    24966  2012-07-02 06:07   Cain/help/DsmtsBatch03Mean.jpg
    25679  2012-07-02 06:07   Cain/help/DsmtsBatch03StdDev.jpg
    15775  2012-07-02 06:07   Cain/help/DsmtsBirthDeath.htd
    15776  2012-07-02 06:07   Cain/help/DsmtsBirthDeath.htm
    25715  2012-07-02 06:07   Cain/help/DsmtsBirthDeath01Histogram.jpg
    98008  2012-07-02 06:07   Cain/help/DsmtsBirthDeath01HistogramConfiguration.png
    26682  2012-07-02 06:07   Cain/help/DsmtsBirthDeath01MeanEmpiricalReference.jpg
    45077  2012-07-02 06:07   Cain/help/DsmtsBirthDeath01MeanStdDev.jpg
    91787  2012-07-02 06:07   Cain/help/DsmtsBirthDeath01PlotConfiguration.png
    31920  2012-07-02 06:07   Cain/help/DsmtsBirthDeath01PValue.jpg
   105894  2012-07-02 06:07   Cain/help/DsmtsBirthDeath01PValueAnalysis.png
    45840  2012-07-02 06:07   Cain/help/DsmtsBirthDeath01Reference.jpg
    85248  2012-07-02 06:07   Cain/help/DsmtsBirthDeath01StatisticsConfiguration.png
    25669  2012-07-02 06:07   Cain/help/DsmtsBirthDeath01StdDevEmpiricalReference.jpg
    13877  2012-07-02 06:07   Cain/help/DsmtsBirthDeath02CustomReactions.png
    14036  2012-07-02 06:07   Cain/help/DsmtsBirthDeath02MassActionReactions.png
    23362  2012-07-02 06:07   Cain/help/DsmtsBirthDeath03Mean.jpg
    24832  2012-07-02 06:07   Cain/help/DsmtsBirthDeath03StdDev.jpg
    48355  2012-07-02 06:07   Cain/help/DsmtsBirthDeath04AllReactions.jpg
    25823  2012-07-02 06:07   Cain/help/DsmtsBirthDeath04Mean.jpg
    23117  2012-07-02 06:07   Cain/help/DsmtsBirthDeath04StdDev.jpg
    26414  2012-07-02 06:07   Cain/help/DsmtsBirthDeath05Mean.jpg
    24004  2012-07-02 06:07   Cain/help/DsmtsBirthDeath05StdDev.jpg
    36428  2012-07-02 06:07   Cain/help/DsmtsBirthDeath05Trajectories.jpg
    24658  2012-07-02 06:07   Cain/help/DsmtsBirthDeath06Default.jpg
    25853  2012-07-02 06:07   Cain/help/DsmtsBirthDeath06Limits.jpg
    29481  2012-07-02 06:07   Cain/help/DsmtsBirthDeath07Mean.jpg
    33135  2012-07-02 06:07   Cain/help/DsmtsBirthDeath07MeanStdDev.jpg
    28497  2012-07-02 06:07   Cain/help/DsmtsBirthDeath07StdDev.jpg
     2023  2012-07-02 06:07   Cain/help/DsmtsDimerisation.htm
     4434  2012-07-02 06:07   Cain/help/DsmtsDimerization.htd
     4435  2012-07-02 06:07   Cain/help/DsmtsDimerization.htm
    27205  2012-07-02 06:07   Cain/help/DsmtsDimerization01Mean.jpg
    27661  2012-07-02 06:07   Cain/help/DsmtsDimerization01StdDev.jpg
    29138  2012-07-02 06:07   Cain/help/DsmtsDimerization02Mean.jpg
    29799  2012-07-02 06:07   Cain/help/DsmtsDimerization02StdDev.jpg
    31209  2012-07-02 06:07   Cain/help/DsmtsDimerization03Mean.jpg
    35909  2012-07-02 06:07   Cain/help/DsmtsDimerization03StdDev.jpg
    30047  2012-07-02 06:07   Cain/help/DsmtsDimerization04Mean.jpg
    34374  2012-07-02 06:07   Cain/help/DsmtsDimerization04StdDev.jpg
    75904  2012-07-02 06:07   Cain/help/DsmtsDimerization04Trajectories.jpg
    26072  2012-07-02 06:07   Cain/help/DsmtsDimerization05Mean.jpg
    26659  2012-07-02 06:07   Cain/help/DsmtsDimerization05StdDev.jpg
     5174  2012-07-02 06:07   Cain/help/DsmtsImmigrationDeath.htd
     5175  2012-07-02 06:07   Cain/help/DsmtsImmigrationDeath.htm
    23771  2012-07-02 06:07   Cain/help/DsmtsImmigrationDeath01Mean.jpg
    25550  2012-07-02 06:07   Cain/help/DsmtsImmigrationDeath01StdDev.jpg
    24597  2012-07-02 06:07   Cain/help/DsmtsImmigrationDeath01SteadyState.jpg
    22982  2012-07-02 06:07   Cain/help/DsmtsImmigrationDeath02Mean.jpg
    22416  2012-07-02 06:07   Cain/help/DsmtsImmigrationDeath02StdDev.jpg
    26551  2012-07-02 06:07   Cain/help/DsmtsImmigrationDeath04Mean.jpg
    26451  2012-07-02 06:07   Cain/help/DsmtsImmigrationDeath04StdDev.jpg
    26402  2012-07-02 06:07   Cain/help/DsmtsImmigrationDeath09Mean.jpg
    33644  2012-07-02 06:07   Cain/help/DsmtsImmigrationDeath09StdDev.jpg
    36264  2012-07-02 06:07   Cain/help/DsmtsImmigrationDeath10MeanStdDev.jpg
      498  2012-07-02 06:07   Cain/help/editcopy.png
      720  2012-07-02 06:07   Cain/help/editcopy.prv.jpg
        0  2012-07-02 06:07   Cain/help/Examples/
        0  2012-07-02 06:07   Cain/help/Examples/Chaperones/
    37523  2012-07-02 06:07   Cain/help/Examples/Chaperones/IncreaseHsp.jpg
        0  2012-07-02 06:07   __MACOSX/Cain/help/Examples/
        0  2012-07-02 06:07   __MACOSX/Cain/help/Examples/Chaperones/
       82  2012-07-02 06:07   __MACOSX/Cain/help/Examples/Chaperones/._IncreaseHsp.jpg
    29139  2012-07-02 06:07   Cain/help/Examples/Chaperones/IncreaseHsp.pdf
    39748  2012-07-02 06:07   Cain/help/Examples/Chaperones/IncreaseRosAtpAdp.jpg
       82  2012-07-02 06:07   __MACOSX/Cain/help/Examples/Chaperones/._IncreaseRosAtpAdp.jpg
    28914  2012-07-02 06:07   Cain/help/Examples/Chaperones/IncreaseRosAtpAdp.pdf
   109514  2012-07-02 06:07   Cain/help/Examples/Chaperones/PlotConfigurationUnstressed.png
       82  2012-07-02 06:07   __MACOSX/Cain/help/Examples/Chaperones/._PlotConfigurationUnstressed.png
    18802  2012-07-02 06:07   Cain/help/Examples/Chaperones/StressADP.jpg
       82  2012-07-02 06:07   __MACOSX/Cain/help/Examples/Chaperones/._StressADP.jpg
     7899  2012-07-02 06:07   Cain/help/Examples/Chaperones/StressADP.pdf
    17675  2012-07-02 06:07   Cain/help/Examples/Chaperones/StressATP.jpg
       82  2012-07-02 06:07   __MACOSX/Cain/help/Examples/Chaperones/._StressATP.jpg
     8233  2012-07-02 06:07   Cain/help/Examples/Chaperones/StressATP.pdf
    26496  2012-07-02 06:07   Cain/help/Examples/Chaperones/StressFinal1.png
       82  2012-07-02 06:07   __MACOSX/Cain/help/Examples/Chaperones/._StressFinal1.png
    33166  2012-07-02 06:07   Cain/help/Examples/Chaperones/StressHsp.jpg
       82  2012-07-02 06:07   __MACOSX/Cain/help/Examples/Chaperones/._StressHsp.jpg
    20070  2012-07-02 06:07   Cain/help/Examples/Chaperones/StressHsp.pdf
    16389  2012-07-02 06:07   Cain/help/Examples/Chaperones/StressROS.jpg
       82  2012-07-02 06:07   __MACOSX/Cain/help/Examples/Chaperones/._StressROS.jpg
     8166  2012-07-02 06:07   Cain/help/Examples/Chaperones/StressROS.pdf
    24308  2012-07-02 06:07   Cain/help/Examples/Chaperones/UnstressedADP.jpg
       82  2012-07-02 06:07   __MACOSX/Cain/help/Examples/Chaperones/._UnstressedADP.jpg
    13766  2012-07-02 06:07   Cain/help/Examples/Chaperones/UnstressedADP.pdf
    21927  2012-07-02 06:07   Cain/help/Examples/Chaperones/UnstressedATP.jpg
       82  2012-07-02 06:07   __MACOSX/Cain/help/Examples/Chaperones/._UnstressedATP.jpg
    13658  2012-07-02 06:07   Cain/help/Examples/Chaperones/UnstressedATP.pdf
    31623  2012-07-02 06:07   Cain/help/Examples/Chaperones/UnstressedHsp.jpg
       82  2012-07-02 06:07   __MACOSX/Cain/help/Examples/Chaperones/._UnstressedHsp.jpg
    23377  2012-07-02 06:07   Cain/help/Examples/Chaperones/UnstressedHsp.pdf
    46114  2012-07-02 06:07   Cain/help/Examples/Chaperones/UnstressedHspZoom.jpg
       82  2012-07-02 06:07   __MACOSX/Cain/help/Examples/Chaperones/._UnstressedHspZoom.jpg
    31398  2012-07-02 06:07   Cain/help/Examples/Chaperones/UnstressedHspZoom.pdf
    26323  2012-07-02 06:07   Cain/help/Examples/Chaperones/UnstressedROS.jpg
       82  2012-07-02 06:07   __MACOSX/Cain/help/Examples/Chaperones/._UnstressedROS.jpg
    11854  2012-07-02 06:07   Cain/help/Examples/Chaperones/UnstressedROS.pdf
      684  2012-07-02 06:07   Cain/help/Examples.htd
      664  2012-07-02 06:07   Cain/help/Examples.htm
    12573  2012-07-02 06:07   Cain/help/ExamplesBirthDeath.htd
    12218  2012-07-02 06:07   Cain/help/ExamplesBirthDeath.htm
    93735  2012-07-02 06:07   Cain/help/ExamplesBirthDeathDeterministicReactionsPlotWindow.png
     3130  2012-07-02 06:07   Cain/help/ExamplesBirthDeathDeterministicReactionsPlotWindow.prv.jpg
    95377  2012-07-02 06:07   Cain/help/ExamplesBirthDeathDeterministicSpeciesPlotWindow.png
       82  2012-07-02 06:07   __MACOSX/Cain/help/._ExamplesBirthDeathDeterministicSpeciesPlotWindow.png
     2991  2012-07-02 06:07   Cain/help/ExamplesBirthDeathDeterministicSpeciesPlotWindow.prv.jpg
    73384  2012-07-02 06:07   Cain/help/ExamplesBirthDeathPlotWindowHistograms.png
     3045  2012-07-02 06:07   Cain/help/ExamplesBirthDeathPlotWindowHistograms.prv.jpg
     9840  2012-07-02 06:07   Cain/help/ExamplesChaperones.htd
     9586  2012-07-02 06:07   Cain/help/ExamplesChaperones.htm
     4466  2012-07-02 06:07   Cain/help/ExamplesImmigrationDeath.htd
     4354  2012-07-02 06:07   Cain/help/ExamplesImmigrationDeath.htm
    36555  2012-07-02 06:07   Cain/help/ExamplesImmigrationDeathInhomogeneous.jpg
    10496  2012-07-02 06:07   Cain/help/ExamplesImmigrationDeathInhomogeneous.pdf
      412  2012-07-02 06:07   __MACOSX/Cain/help/._ExamplesImmigrationDeathInhomogeneous.pdf
    17773  2012-07-02 06:07   Cain/help/ExamplesImmigrationDeathSteadyState.jpg
     2215  2012-07-02 06:07   Cain/help/ExamplesImmigrationDeathSteadyState.prv.jpg
    12563  2012-07-02 06:07   Cain/help/ExamplesImmigrationDeathTimeSeriesDeterministic.jpg
     1582  2012-07-02 06:07   Cain/help/ExamplesImmigrationDeathTimeSeriesDeterministic.prv.jpg
    38448  2012-07-02 06:07   Cain/help/ExamplesImmigrationDeathTimeSeriesDirect.jpg
     3229  2012-07-02 06:07   Cain/help/ExamplesImmigrationDeathTimeSeriesDirect.prv.jpg
     1790  2012-07-02 06:07   Cain/help/ExamplesLacOperon.htd
     1791  2012-07-02 06:07   Cain/help/ExamplesLacOperon.htm
   133877  2012-07-02 06:07   Cain/help/ExamplesLacOperonPlotWindow.png
     1023  2012-07-02 06:07   Cain/help/exit.png
      701  2012-07-02 06:07   Cain/help/exit.prv.jpg
        0  2012-07-02 06:07   Cain/help/ExportR/
        0  2012-07-02 06:07   Cain/help/ExportR/Multiple/
    98969  2012-07-02 06:07   Cain/help/ExportR/Multiple/lvMultiple.pdf
        0  2012-07-02 06:07   __MACOSX/Cain/help/ExportR/
        0  2012-07-02 06:07   __MACOSX/Cain/help/ExportR/Multiple/
      412  2012-07-02 06:07   __MACOSX/Cain/help/ExportR/Multiple/._lvMultiple.pdf
   114295  2012-07-02 06:07   Cain/help/ExportR/Multiple/lvMultiple.png
    51996  2012-07-02 06:07   Cain/help/ExportR/Multiple/lvPrey.pdf
      412  2012-07-02 06:07   __MACOSX/Cain/help/ExportR/Multiple/._lvPrey.pdf
    76538  2012-07-02 06:07   Cain/help/ExportR/Multiple/lvPrey.png
    92133  2012-07-02 06:07   Cain/help/ExportR/Multiple/lvSplit.pdf
      412  2012-07-02 06:07   __MACOSX/Cain/help/ExportR/Multiple/._lvSplit.pdf
    70174  2012-07-02 06:07   Cain/help/ExportR/Multiple/lvSplit.png
        0  2012-07-02 06:07   Cain/help/ExportR/Probability/
    24087  2012-07-02 06:07   Cain/help/ExportR/Probability/density.pdf
        0  2012-07-02 06:07   __MACOSX/Cain/help/ExportR/Probability/
      412  2012-07-02 06:07   __MACOSX/Cain/help/ExportR/Probability/._density.pdf
    49456  2012-07-02 06:07   Cain/help/ExportR/Probability/density.png
    12782  2012-07-02 06:07   Cain/help/ExportR/Probability/hist.pdf
      412  2012-07-02 06:07   __MACOSX/Cain/help/ExportR/Probability/._hist.pdf
    23129  2012-07-02 06:07   Cain/help/ExportR/Probability/hist.png
    13635  2012-07-02 06:07   Cain/help/ExportR/Probability/histCust.pdf
      412  2012-07-02 06:07   __MACOSX/Cain/help/ExportR/Probability/._histCust.pdf
    32565  2012-07-02 06:07   Cain/help/ExportR/Probability/histCust.png
        0  2012-07-02 06:07   Cain/help/ExportR/Single/
    52025  2012-07-02 06:07   Cain/help/ExportR/Single/Configuration.png
    20158  2012-07-02 06:07   Cain/help/ExportR/Single/lvAcf.pdf
        0  2012-07-02 06:07   __MACOSX/Cain/help/ExportR/Single/
      412  2012-07-02 06:07   __MACOSX/Cain/help/ExportR/Single/._lvAcf.pdf
    49030  2012-07-02 06:07   Cain/help/ExportR/Single/lvAcf.png
    16479  2012-07-02 06:07   Cain/help/ExportR/Single/lvMultiple.pdf
    55402  2012-07-02 06:07   Cain/help/ExportR/Single/lvMultiple.png
    15739  2012-07-02 06:07   Cain/help/ExportR/Single/lvSingle.pdf
      412  2012-07-02 06:07   __MACOSX/Cain/help/ExportR/Single/._lvSingle.pdf
    61569  2012-07-02 06:07   Cain/help/ExportR/Single/lvSingle.png
      382  2012-07-02 06:07   __MACOSX/Cain/help/ExportR/Single/._lvSingle.png
      496  2012-07-02 06:07   Cain/help/ExportR.htd
      497  2012-07-02 06:07   Cain/help/ExportR.htm
     3237  2012-07-02 06:07   Cain/help/ExportRMultiple.htd
     3238  2012-07-02 06:07   Cain/help/ExportRMultiple.htm
     2230  2012-07-02 06:07   Cain/help/ExportRProbability.htd
     2231  2012-07-02 06:07   Cain/help/ExportRProbability.htm
     2133  2012-07-02 06:07   Cain/help/ExportRSingle.htd
     2134  2012-07-02 06:07   Cain/help/ExportRSingle.htm
     2373  2012-07-02 06:07   Cain/help/Faq.htd
     2306  2012-07-02 06:07   Cain/help/Faq.htm
      547  2012-07-02 06:07   Cain/help/filenew.png
      698  2012-07-02 06:07   Cain/help/filenew.prv.jpg
      661  2012-07-02 06:07   Cain/help/fileopen.png
      699  2012-07-02 06:07   Cain/help/fileopen.prv.jpg
      820  2012-07-02 06:07   Cain/help/filesave.png
      712  2012-07-02 06:07   Cain/help/filesave.prv.jpg
      918  2012-07-02 06:07   Cain/help/filesaveas.png
      712  2012-07-02 06:07   Cain/help/filesaveas.prv.jpg
      474  2012-07-02 06:07   Cain/help/gnuplot.png
      631  2012-07-02 06:07   Cain/help/gnuplot.prv.jpg
      917  2012-07-02 06:07   Cain/help/help.png
      713  2012-07-02 06:07   Cain/help/help.prv.jpg
      221  2012-07-02 06:07   Cain/help/HistogramDistance.png
      754  2012-07-02 06:07   Cain/help/HistogramDistance.prv.jpg
     5142  2012-07-02 06:07   Cain/help/index.html
      503  2012-07-02 06:07   Cain/help/Installation.htd
      487  2012-07-02 06:07   Cain/help/Installation.htm
      552  2012-07-02 06:07   Cain/help/InstallationDebian-6.htd
      171  2012-07-02 06:07   __MACOSX/Cain/help/._InstallationDebian-6.htd
      527  2012-07-02 06:07   Cain/help/InstallationDebian-6.htm
      619  2012-07-02 06:07   Cain/help/InstallationDebian.htd
      588  2012-07-02 06:07   Cain/help/InstallationDebian.htm
      919  2012-07-02 06:07   Cain/help/InstallationFedora-15.htd
      885  2012-07-02 06:07   Cain/help/InstallationFedora-15.htm
      953  2012-07-02 06:07   Cain/help/InstallationFedora-16.htd
      954  2012-07-02 06:07   Cain/help/InstallationFedora-16.htm
     2387  2012-07-02 06:07   Cain/help/InstallationLinux.htd
      171  2012-07-02 06:07   __MACOSX/Cain/help/._InstallationLinux.htd
     2320  2012-07-02 06:07   Cain/help/InstallationLinux.htm
     3827  2012-07-02 06:07   Cain/help/InstallationMac.htd
     3738  2012-07-02 06:07   Cain/help/InstallationMac.htm
     2031  2012-07-02 06:07   Cain/help/InstallationMicrosoft.htd
     1966  2012-07-02 06:07   Cain/help/InstallationMicrosoft.htm
     2226  2012-07-02 06:07   Cain/help/InstallationRedHat-5.6.htd
     2162  2012-07-02 06:07   Cain/help/InstallationRedHat-5.6.htm
     2018  2012-07-02 06:07   Cain/help/InstallationRedHat-6.0.htd
     1955  2012-07-02 06:07   Cain/help/InstallationRedHat-6.0.htm
     1094  2012-07-02 06:07   Cain/help/InstallationUbuntu-11.htd
     1056  2012-07-02 06:07   Cain/help/InstallationUbuntu-11.htm
     1094  2012-07-02 06:07   Cain/help/InstallationUbuntu-12.htd
     1056  2012-07-02 06:07   Cain/help/InstallationUbuntu-12.htm
      516  2012-07-02 06:07   Cain/help/KnownIssues.htd
      495  2012-07-02 06:07   Cain/help/KnownIssues.htm
    13618  2012-07-02 06:07   Cain/help/LacOperonLactose.jpg
    17107  2012-07-02 06:07   Cain/help/LacOperonRna.jpg
    14637  2012-07-02 06:07   Cain/help/LacOperonZ.jpg
      954  2012-07-02 06:07   Cain/help/launch.png
      713  2012-07-02 06:07   Cain/help/launch.prv.jpg
    16362  2012-07-02 06:07   Cain/help/Launcher.png
     1779  2012-07-02 06:07   Cain/help/License.htd
     1731  2012-07-02 06:07   Cain/help/License.htm
     3524  2012-07-02 06:07   Cain/help/Links.htd
     3433  2012-07-02 06:07   Cain/help/Links.htm
      247  2012-07-02 06:07   Cain/help/list-remove.png
      700  2012-07-02 06:07   Cain/help/list-remove.prv.jpg
       69  2012-07-02 06:07   Cain/help/macros.db
      210  2012-07-02 06:07   Cain/help/macros.h
      789  2012-07-02 06:07   Cain/help/Mathematica.png
      747  2012-07-02 06:07   Cain/help/Mathematica.prv.jpg
    27456  2012-07-02 06:07   Cain/help/MethodEditor.png
     8540  2012-07-02 06:07   Cain/help/MethodList.png
    11055  2012-07-02 06:07   Cain/help/ModelList.png
    15698  2012-07-02 06:07   Cain/help/ParameterEditor.png
      396  2012-07-02 06:07   Cain/help/Performance.htd
      382  2012-07-02 06:07   Cain/help/Performance.htm
    15998  2012-07-02 06:07   Cain/help/PerformanceExact.htd
    15471  2012-07-02 06:07   Cain/help/PerformanceExact.htm
      388  2012-07-02 06:07   Cain/help/plot.png
      766  2012-07-02 06:07   Cain/help/plot.prv.jpg
      611  2012-07-02 06:07   Cain/help/preferences-system.png
      738  2012-07-02 06:07   Cain/help/preferences-system.prv.jpg
      317  2012-07-02 06:07   Cain/help/pValue.png
    17078  2012-07-02 06:07   Cain/help/ReactionEditor.png
     9029  2012-07-02 06:07   Cain/help/Recorder.png
        0  2012-07-02 06:07   Cain/help/SAfSB/
     6148  2012-07-02 06:07   Cain/help/SAfSB/.DS_Store
        0  2012-07-02 06:07   __MACOSX/Cain/help/SAfSB/
       82  2012-07-02 06:07   __MACOSX/Cain/help/SAfSB/._.DS_Store
        0  2012-07-02 06:07   Cain/help/SAfSB/Chapter2/
    12292  2012-07-02 06:07   Cain/help/SAfSB/Chapter2/.DS_Store
        0  2012-07-02 06:07   __MACOSX/Cain/help/SAfSB/Chapter2/
       82  2012-07-02 06:07   __MACOSX/Cain/help/SAfSB/Chapter2/._.DS_Store
    21901  2012-07-02 06:07   Cain/help/SAfSB/Chapter2/Example-2_08-StdMod-BR.jpg
       82  2012-07-02 06:07   __MACOSX/Cain/help/SAfSB/Chapter2/._Example-2_08-StdMod-BR.jpg
    11074  2012-07-02 06:07   Cain/help/SAfSB/Chapter2/Example-2_08-StdMod-BR.pdf
    21092  2012-07-02 06:07   Cain/help/SAfSB/Chapter2/Example-2_08-StdMod-Sp.jpg
       82  2012-07-02 06:07   __MACOSX/Cain/help/SAfSB/Chapter2/._Example-2_08-StdMod-Sp.jpg
    12498  2012-07-02 06:07   Cain/help/SAfSB/Chapter2/Example-2_08-StdMod-Sp.pdf
    24919  2012-07-02 06:07   Cain/help/SAfSB/Chapter2/Example-2_09-HetDim-BR.jpg
       82  2012-07-02 06:07   __MACOSX/Cain/help/SAfSB/Chapter2/._Example-2_09-HetDim-BR.jpg
    13083  2012-07-02 06:07   Cain/help/SAfSB/Chapter2/Example-2_09-HetDim-BR.pdf
    27190  2012-07-02 06:07   Cain/help/SAfSB/Chapter2/Example-2_09-HetDim-S.jpg
       82  2012-07-02 06:07   __MACOSX/Cain/help/SAfSB/Chapter2/._Example-2_09-HetDim-S.jpg
    12808  2012-07-02 06:07   Cain/help/SAfSB/Chapter2/Example-2_09-HetDim-S.pdf
    52648  2012-07-02 06:07   Cain/help/SAfSB/Chapter2/Example-2_10-LotVol-BR.jpg
       82  2012-07-02 06:07   __MACOSX/Cain/help/SAfSB/Chapter2/._Example-2_10-LotVol-BR.jpg
    15746  2012-07-02 06:07   Cain/help/SAfSB/Chapter2/Example-2_10-LotVol-BR.pdf
    40063  2012-07-02 06:07   Cain/help/SAfSB/Chapter2/Example-2_10-LotVol-S.jpg
       82  2012-07-02 06:07   __MACOSX/Cain/help/SAfSB/Chapter2/._Example-2_10-LotVol-S.jpg
    12265  2012-07-02 06:07   Cain/help/SAfSB/Chapter2/Example-2_10-LotVol-S.pdf
    31394  2012-07-02 06:07   Cain/help/SAfSB/Chapter2/Example-2_11-EnzKin-BR.jpg
       82  2012-07-02 06:07   __MACOSX/Cain/help/SAfSB/Chapter2/._Example-2_11-EnzKin-BR.jpg
    15208  2012-07-02 06:07   Cain/help/SAfSB/Chapter2/Example-2_11-EnzKin-BR.pdf
    34540  2012-07-02 06:07   Cain/help/SAfSB/Chapter2/Example-2_11-EnzKin-S.jpg
       82  2012-07-02 06:07   __MACOSX/Cain/help/SAfSB/Chapter2/._Example-2_11-EnzKin-S.jpg
    15085  2012-07-02 06:07   Cain/help/SAfSB/Chapter2/Example-2_11-EnzKin-S.pdf
    27557  2012-07-02 06:07   Cain/help/SAfSB/Chapter2/Example-2_12-Schlogl-BR.jpg
       82  2012-07-02 06:07   __MACOSX/Cain/help/SAfSB/Chapter2/._Example-2_12-Schlogl-BR.jpg
    13432  2012-07-02 06:07   Cain/help/SAfSB/Chapter2/Example-2_12-Schlogl-BR.pdf
    21143  2012-07-02 06:07   Cain/help/SAfSB/Chapter2/Example-2_12-Schlogl-S.jpg
       82  2012-07-02 06:07   __MACOSX/Cain/help/SAfSB/Chapter2/._Example-2_12-Schlogl-S.jpg
    12494  2012-07-02 06:07   Cain/help/SAfSB/Chapter2/Example-2_12-Schlogl-S.pdf
    36206  2012-07-02 06:07   Cain/help/SAfSB/Chapter2/Example-2_15-GeneReg-BR.jpg
       82  2012-07-02 06:07   __MACOSX/Cain/help/SAfSB/Chapter2/._Example-2_15-GeneReg-BR.jpg
    19635  2012-07-02 06:07   Cain/help/SAfSB/Chapter2/Example-2_15-GeneReg-BR.pdf
    26852  2012-07-02 06:07   Cain/help/SAfSB/Chapter2/Example-2_15-GeneReg-S.jpg
       82  2012-07-02 06:07   __MACOSX/Cain/help/SAfSB/Chapter2/._Example-2_15-GeneReg-S.jpg
    16050  2012-07-02 06:07   Cain/help/SAfSB/Chapter2/Example-2_15-GeneReg-S.pdf
        0  2012-07-02 06:07   Cain/help/SAfSB/Chapter5/
    12292  2012-07-02 06:07   Cain/help/SAfSB/Chapter5/.DS_Store
        0  2012-07-02 06:07   __MACOSX/Cain/help/SAfSB/Chapter5/
       82  2012-07-02 06:07   __MACOSX/Cain/help/SAfSB/Chapter5/._.DS_Store
    12295  2012-07-02 06:07   Cain/help/SAfSB/Chapter5/Example-5_07-StdMod-1-3.pdf
      412  2012-07-02 06:07   __MACOSX/Cain/help/SAfSB/Chapter5/._Example-5_07-StdMod-1-3.pdf
    95824  2012-07-02 06:07   Cain/help/SAfSB/Chapter5/Example-5_07-StdMod-1-3.png
    10407  2012-07-02 06:07   Cain/help/SAfSB/Chapter5/Example-5_07-StdMod-HTB.pdf
      412  2012-07-02 06:07   __MACOSX/Cain/help/SAfSB/Chapter5/._Example-5_07-StdMod-HTB.pdf
    28682  2012-07-02 06:07   Cain/help/SAfSB/Chapter5/Example-5_07-StdMod-HTB.png
    92410  2012-07-02 06:07   Cain/help/SAfSB/Chapter5/Example-5_07-StdMod-PCHTB.png
    91584  2012-07-02 06:07   Cain/help/SAfSB/Chapter5/Example-5_07-StdMod-PCTSAR.png
    90154  2012-07-02 06:07   Cain/help/SAfSB/Chapter5/Example-5_07-StdMod-PCTSU.png
     8633  2012-07-02 06:07   Cain/help/SAfSB/Chapter5/Example-5_07-StdMod-TSAR.pdf
      412  2012-07-02 06:07   __MACOSX/Cain/help/SAfSB/Chapter5/._Example-5_07-StdMod-TSAR.pdf
    34149  2012-07-02 06:07   Cain/help/SAfSB/Chapter5/Example-5_07-StdMod-TSAR.png
    13453  2012-07-02 06:07   Cain/help/SAfSB/Chapter5/Example-5_07-StdMod-TSU.pdf
      412  2012-07-02 06:07   __MACOSX/Cain/help/SAfSB/Chapter5/._Example-5_07-StdMod-TSU.pdf
    48729  2012-07-02 06:07   Cain/help/SAfSB/Chapter5/Example-5_07-StdMod-TSU.png
    11734  2012-07-02 06:07   Cain/help/SAfSB/Chapter5/Example-5_08-HetDim-H.pdf
      412  2012-07-02 06:07   __MACOSX/Cain/help/SAfSB/Chapter5/._Example-5_08-HetDim-H.pdf
    29717  2012-07-02 06:07   Cain/help/SAfSB/Chapter5/Example-5_08-HetDim-H.png
    17215  2012-07-02 06:07   Cain/help/SAfSB/Chapter5/Example-5_08-HetDim-TS.pdf
      412  2012-07-02 06:07   __MACOSX/Cain/help/SAfSB/Chapter5/._Example-5_08-HetDim-TS.pdf
    63571  2012-07-02 06:07   Cain/help/SAfSB/Chapter5/Example-5_08-HetDim-TS.png
    11710  2012-07-02 06:07   Cain/help/SAfSB/Chapter5/Example-5_09-LotVol-TS.pdf
      412  2012-07-02 06:07   __MACOSX/Cain/help/SAfSB/Chapter5/._Example-5_09-LotVol-TS.pdf
    69148  2012-07-02 06:07   Cain/help/SAfSB/Chapter5/Example-5_09-LotVol-TS.png
    14390  2012-07-02 06:07   Cain/help/SAfSB/Chapter5/Example-5_10-EnzKin-HL.pdf
      412  2012-07-02 06:07   __MACOSX/Cain/help/SAfSB/Chapter5/._Example-5_10-EnzKin-HL.pdf
    34591  2012-07-02 06:07   Cain/help/SAfSB/Chapter5/Example-5_10-EnzKin-HL.png
    14023  2012-07-02 06:07   Cain/help/SAfSB/Chapter5/Example-5_10-EnzKin-HS.pdf
      412  2012-07-02 06:07   __MACOSX/Cain/help/SAfSB/Chapter5/._Example-5_10-EnzKin-HS.pdf
    38489  2012-07-02 06:07   Cain/help/SAfSB/Chapter5/Example-5_10-EnzKin-HS.png
    15878  2012-07-02 06:07   Cain/help/SAfSB/Chapter5/Example-5_10-EnzKin-ML.pdf
      412  2012-07-02 06:07   __MACOSX/Cain/help/SAfSB/Chapter5/._Example-5_10-EnzKin-ML.pdf
    75648  2012-07-02 06:07   Cain/help/SAfSB/Chapter5/Example-5_10-EnzKin-ML.png
    16728  2012-07-02 06:07   Cain/help/SAfSB/Chapter5/Example-5_10-EnzKin-MS.pdf
      412  2012-07-02 06:07   __MACOSX/Cain/help/SAfSB/Chapter5/._Example-5_10-EnzKin-MS.pdf
    74061  2012-07-02 06:07   Cain/help/SAfSB/Chapter5/Example-5_10-EnzKin-MS.png
    75534  2012-07-02 06:07   Cain/help/SAfSB/Chapter5/Example-5_10-EnzKin-PCL.png
    76760  2012-07-02 06:07   Cain/help/SAfSB/Chapter5/Example-5_10-EnzKin-PCS.png
    21417  2012-07-02 06:07   Cain/help/SAfSB/Chapter5/Example-5_10-EnzKin-TL.pdf
      412  2012-07-02 06:07   __MACOSX/Cain/help/SAfSB/Chapter5/._Example-5_10-EnzKin-TL.pdf
   103326  2012-07-02 06:07   Cain/help/SAfSB/Chapter5/Example-5_10-EnzKin-TL.png
    19769  2012-07-02 06:07   Cain/help/SAfSB/Chapter5/Example-5_10-EnzKin-TS.pdf
      412  2012-07-02 06:07   __MACOSX/Cain/help/SAfSB/Chapter5/._Example-5_10-EnzKin-TS.pdf
   123676  2012-07-02 06:07   Cain/help/SAfSB/Chapter5/Example-5_10-EnzKin-TS.png
    39431  2012-07-02 06:07   Cain/help/SAfSB/Chapter5/Example-5_13-GeneReg-1.pdf
      412  2012-07-02 06:07   __MACOSX/Cain/help/SAfSB/Chapter5/._Example-5_13-GeneReg-1.pdf
    55031  2012-07-02 06:07   Cain/help/SAfSB/Chapter5/Example-5_13-GeneReg-1.png
    22721  2012-07-02 06:07   Cain/help/SAfSB/Chapter5/Example-5_13-GeneReg-2.pdf
      412  2012-07-02 06:07   __MACOSX/Cain/help/SAfSB/Chapter5/._Example-5_13-GeneReg-2.pdf
    60910  2012-07-02 06:07   Cain/help/SAfSB/Chapter5/Example-5_13-GeneReg-2.png
    33089  2012-07-02 06:07   Cain/help/SAfSB/Chapter5/Example-5_13-GeneReg-3.pdf
      412  2012-07-02 06:07   __MACOSX/Cain/help/SAfSB/Chapter5/._Example-5_13-GeneReg-3.pdf
    67236  2012-07-02 06:07   Cain/help/SAfSB/Chapter5/Example-5_13-GeneReg-3.png
    24524  2012-07-02 06:07   Cain/help/SAfSB/Chapter5/Example-5_13-GeneReg-S1.png
    23938  2012-07-02 06:07   Cain/help/SAfSB/Chapter5/Example-5_13-GeneReg-S2.png
    24488  2012-07-02 06:07   Cain/help/SAfSB/Chapter5/Example-5_13-GeneReg-S3.png
      567  2012-07-02 06:07   Cain/help/SAfSB.htd
      568  2012-07-02 06:07   Cain/help/SAfSB.htm
     3237  2012-07-02 06:07   Cain/help/SAfSB2.htd
     3238  2012-07-02 06:07   Cain/help/SAfSB2.htm
     9276  2012-07-02 06:07   Cain/help/SAfSB5.htd
     9277  2012-07-02 06:07   Cain/help/SAfSB5.htm
      718  2012-07-02 06:07   Cain/help/scale.png
      708  2012-07-02 06:07   Cain/help/scale.prv.jpg
     1445  2012-07-02 06:07   Cain/help/seanEmail.png
     1531  2012-07-02 06:07   Cain/help/seanEmail.prv.jpg
     2589  2012-07-02 06:07   Cain/help/Simulation.htd
     2530  2012-07-02 06:07   Cain/help/Simulation.htm
     7811  2012-07-02 06:07   Cain/help/SimulationDirect.htd
     7635  2012-07-02 06:07   Cain/help/SimulationDirect.htm
     3779  2012-07-02 06:07   Cain/help/SimulationDirectTime.htd
     3780  2012-07-02 06:07   Cain/help/SimulationDirectTime.htm
     2265  2012-07-02 06:07   Cain/help/SimulationDiscrete.htd
     2214  2012-07-02 06:07   Cain/help/SimulationDiscrete.htm
     1922  2012-07-02 06:07   Cain/help/SimulationFirst.htd
     1874  2012-07-02 06:07   Cain/help/SimulationFirst.htm
     2459  2012-07-02 06:07   Cain/help/SimulationHybrid.htd
     2406  2012-07-02 06:07   Cain/help/SimulationHybrid.htm
     7576  2012-07-02 06:07   Cain/help/SimulationNext.htd
     7412  2012-07-02 06:07   Cain/help/SimulationNext.htm
      830  2012-07-02 06:07   Cain/help/SimulationOde.htd
      831  2012-07-02 06:07   Cain/help/SimulationOde.htm
    15545  2012-07-02 06:07   Cain/help/SimulationOutput.png
      573  2012-07-02 06:07   Cain/help/SimulationSal.htd
      554  2012-07-02 06:07   Cain/help/SimulationSal.htm
     2338  2012-07-02 06:07   Cain/help/SimulationTau.htd
     2288  2012-07-02 06:07   Cain/help/SimulationTau.htm
      376  2012-07-02 06:07   Cain/help/sort.png
      631  2012-07-02 06:07   Cain/help/sort.prv.jpg
    10967  2012-07-02 06:07   Cain/help/SpeciesEditor.png
      926  2012-07-02 06:07   Cain/help/stop.png
      720  2012-07-02 06:07   Cain/help/stop.prv.jpg
      935  2012-07-02 06:07   Cain/help/system-search.png
      737  2012-07-02 06:07   Cain/help/system-search.prv.jpg
    10760  2012-07-02 06:07   Cain/help/TimeEventsEditor.png
     3009  2012-07-02 06:07   Cain/help/ToDo.htd
     2941  2012-07-02 06:07   Cain/help/ToDo.htm
     5676  2012-07-02 06:07   Cain/help/ToolBar.png
    12436  2012-07-02 06:07   Cain/help/TriggerEventsEditor.png
      744  2012-07-02 06:07   Cain/help/up.png
      696  2012-07-02 06:07   Cain/help/up.prv.jpg
     1393  2012-07-02 06:07   Cain/help/User.htd
     1355  2012-07-02 06:07   Cain/help/User.htm
      564  2012-07-02 06:07   Cain/help/UserCompartment.htd
      543  2012-07-02 06:07   Cain/help/UserCompartment.htm
     8809  2012-07-02 06:07   Cain/help/UserLauncher.htd
     8629  2012-07-02 06:07   Cain/help/UserLauncher.htm
     1119  2012-07-02 06:07   Cain/help/UserMathematical.htd
     1091  2012-07-02 06:07   Cain/help/UserMathematical.htm
      775  2012-07-02 06:07   Cain/help/UserMethod.htd
      752  2012-07-02 06:07   Cain/help/UserMethod.htm
     7434  2012-07-02 06:07   Cain/help/UserMethodEditor.htd
     7289  2012-07-02 06:07   Cain/help/UserMethodEditor.htm
     3027  2012-07-02 06:07   Cain/help/UserModel.htd
     2954  2012-07-02 06:07   Cain/help/UserModel.htm
     1948  2012-07-02 06:07   Cain/help/UserParameter.htd
     1881  2012-07-02 06:07   Cain/help/UserParameter.htm
     1790  2012-07-02 06:07   Cain/help/UserQuick.htd
     1748  2012-07-02 06:07   Cain/help/UserQuick.htm
     5710  2012-07-02 06:07   Cain/help/UserReaction.htd
     5574  2012-07-02 06:07   Cain/help/UserReaction.htm
      874  2012-07-02 06:07   Cain/help/UserRecorder.htd
      848  2012-07-02 06:07   Cain/help/UserRecorder.htm
     3084  2012-07-02 06:07   Cain/help/UserSimulation.htd
     3011  2012-07-02 06:07   Cain/help/UserSimulation.htm
    20518  2012-07-02 06:07   Cain/help/UserSolvers.htd
    20519  2012-07-02 06:07   Cain/help/UserSolvers.htm
     5347  2012-07-02 06:07   Cain/help/UserSpecies.htd
     5205  2012-07-02 06:07   Cain/help/UserSpecies.htm
     1426  2012-07-02 06:07   Cain/help/UserTimeEvents.htd
     1427  2012-07-02 06:07   Cain/help/UserTimeEvents.htm
     1296  2012-07-02 06:07   Cain/help/UserTool.htd
     1255  2012-07-02 06:07   Cain/help/UserTool.htm
      999  2012-07-02 06:07   Cain/help/UserTriggerEvents.htd
     1000  2012-07-02 06:07   Cain/help/UserTriggerEvents.htm
      668  2012-07-02 06:07   Cain/help/utilities-terminal.png
      729  2012-07-02 06:07   Cain/help/utilities-terminal.prv.jpg
      912  2012-07-02 06:07   Cain/help/view-refresh.png
      742  2012-07-02 06:07   Cain/help/view-refresh.prv.jpg
      575  2012-07-02 06:07   Cain/help/Visualization.htd
      558  2012-07-02 06:07   Cain/help/Visualization.htm
    34696  2012-07-02 06:07   Cain/help/VisualizationDataExportWindowHistograms.jpg
     2948  2012-07-02 06:07   Cain/help/VisualizationDataExportWindowHistograms.prv.jpg
    44216  2012-07-02 06:07   Cain/help/VisualizationDataExportWindowTimeSeries.jpg
     3157  2012-07-02 06:07   Cain/help/VisualizationDataExportWindowTimeSeries.prv.jpg
     2817  2012-07-02 06:07   Cain/help/VisualizationExporting.htd
     2818  2012-07-02 06:07   Cain/help/VisualizationExporting.htm
     2071  2012-07-02 06:07   Cain/help/VisualizationHistogram.htd
     2012  2012-07-02 06:07   Cain/help/VisualizationHistogram.htm
    35159  2012-07-02 06:07   Cain/help/VisualizationHistogramSchloglDistance_0_2.jpg
     1771  2012-07-02 06:07   Cain/help/VisualizationHistogramSchloglDistance_0_2.prv.jpg
    35102  2012-07-02 06:07   Cain/help/VisualizationHistogramSchloglDistance_2_4.jpg
     1762  2012-07-02 06:07   Cain/help/VisualizationHistogramSchloglDistance_2_4.prv.jpg
    35133  2012-07-02 06:07   Cain/help/VisualizationHistogramSchloglDistance_4_6.jpg
     1769  2012-07-02 06:07   Cain/help/VisualizationHistogramSchloglDistance_4_6.prv.jpg
    35154  2012-07-02 06:07   Cain/help/VisualizationHistogramSchloglDistance_6_8.jpg
     1769  2012-07-02 06:07   Cain/help/VisualizationHistogramSchloglDistance_6_8.prv.jpg
    35276  2012-07-02 06:07   Cain/help/VisualizationHistogramSchloglDistance_8_10.jpg
     1769  2012-07-02 06:07   Cain/help/VisualizationHistogramSchloglDistance_8_10.prv.jpg
    23772  2012-07-02 06:07   Cain/help/VisualizationImmigrationDeathMean.jpg
    25494  2012-07-02 06:07   Cain/help/VisualizationImmigrationDeathStdDev.jpg
   106310  2012-07-02 06:07   Cain/help/VisualizationPlottingAutoregSpeciesFigure.jpg
     4113  2012-07-02 06:07   Cain/help/VisualizationPlottingAutoregSpeciesFigure.prv.jpg
     6030  2012-07-02 06:07   Cain/help/VisualizationPlottingHistograms.htd
     5881  2012-07-02 06:07   Cain/help/VisualizationPlottingHistograms.htm
    99617  2012-07-02 06:07   Cain/help/VisualizationPlottingHistogramsConfigurationAll.jpg
     4184  2012-07-02 06:07   Cain/help/VisualizationPlottingHistogramsConfigurationAll.prv.jpg
   105705  2012-07-02 06:07   Cain/help/VisualizationPlottingHistogramsConfigurationNonzero.jpg
     4256  2012-07-02 06:07   Cain/help/VisualizationPlottingHistogramsConfigurationNonzero.prv.jpg
    82796  2012-07-02 06:07   Cain/help/VisualizationPlottingHistogramsConfImDeCustom.jpg
     3438  2012-07-02 06:07   Cain/help/VisualizationPlottingHistogramsConfImDeCustom.prv.jpg
    83982  2012-07-02 06:07   Cain/help/VisualizationPlottingHistogramsConfImDeDefault.jpg
     3283  2012-07-02 06:07   Cain/help/VisualizationPlottingHistogramsConfImDeDefault.prv.jpg
    31845  2012-07-02 06:07   Cain/help/VisualizationPlottingHistogramsPlotImDeCustom.jpg
     2210  2012-07-02 06:07   Cain/help/VisualizationPlottingHistogramsPlotImDeCustom.prv.jpg
    23199  2012-07-02 06:07   Cain/help/VisualizationPlottingHistogramsPlotImDeDefault.jpg
     1669  2012-07-02 06:07   Cain/help/VisualizationPlottingHistogramsPlotImDeDefault.prv.jpg
    23808  2012-07-02 06:07   Cain/help/VisualizationPlottingHistogramsSchloglAll.jpg
     1796  2012-07-02 06:07   Cain/help/VisualizationPlottingHistogramsSchloglAll.prv.jpg
    38060  2012-07-02 06:07   Cain/help/VisualizationPlottingHistogramsSchloglNonzero.jpg
     2254  2012-07-02 06:07   Cain/help/VisualizationPlottingHistogramsSchloglNonzero.prv.jpg
    36868  2012-07-02 06:07   Cain/help/VisualizationPlottingHistogramsSchloglZoom.jpg
     2152  2012-07-02 06:07   Cain/help/VisualizationPlottingHistogramsSchloglZoom.prv.jpg
     6791  2012-07-02 06:07   Cain/help/VisualizationPlottingTimeSeries.htd
     6640  2012-07-02 06:07   Cain/help/VisualizationPlottingTimeSeries.htm
   115118  2012-07-02 06:07   Cain/help/VisualizationPlottingWindowAutoregSpecies.jpg
     3357  2012-07-02 06:07   Cain/help/VisualizationPlottingWindowAutoregSpecies.prv.jpg
     6277  2012-07-02 06:07   Cain/help/VisualizationSignificance.htd
     6133  2012-07-02 06:07   Cain/help/VisualizationSignificance.htm
    34365  2012-07-02 06:07   Cain/help/VisualizationSignificancePValue.jpg
   108456  2012-07-02 06:07   Cain/help/VisualizationSignificancePValueAnalysis.png
     4030  2012-07-02 06:07   Cain/help/VisualizationTables.htd
     3906  2012-07-02 06:07   Cain/help/VisualizationTables.htm
    96264  2012-07-02 06:07   Cain/help/VisualizationTablesSchloglHistogramsTransientBins.jpg
     2587  2012-07-02 06:07   Cain/help/VisualizationTablesSchloglHistogramsTransientBins.prv.jpg
    21555  2012-07-02 06:07   Cain/help/VisualizationTablesSchloglHistogramsTransientBinsChoice.jpg
     1863  2012-07-02 06:07   Cain/help/VisualizationTablesSchloglHistogramsTransientBinsChoice.prv.jpg
    35566  2012-07-02 06:07   Cain/help/VisualizationTablesSchloglHistogramsTransientError.jpg
     1576  2012-07-02 06:07   Cain/help/VisualizationTablesSchloglHistogramsTransientError.prv.jpg
    39575  2012-07-02 06:07   Cain/help/VisualizationTablesSchloglHistogramsTransientMean.jpg
     2067  2012-07-02 06:07   Cain/help/VisualizationTablesSchloglHistogramsTransientMean.prv.jpg
    33629  2012-07-02 06:07   Cain/help/VisualizationTablesSchloglHistogramsTransientTableChoice.jpg
     3194  2012-07-02 06:07   Cain/help/VisualizationTablesSchloglHistogramsTransientTableChoice.prv.jpg
    70215  2012-07-02 06:07   Cain/help/VisualizationTablesSchloglTimeSeriesPlot.jpg
     2261  2012-07-02 06:07   Cain/help/VisualizationTablesSchloglTimeSeriesPlot.prv.jpg
    33248  2012-07-02 06:07   Cain/help/VisualizationTablesSchloglTimeSeriesTableChoice.jpg
     3172  2012-07-02 06:07   Cain/help/VisualizationTablesSchloglTimeSeriesTableChoice.prv.jpg
    40760  2012-07-02 06:07   Cain/help/VisualizationTablesSchloglTimeSeriesTableSpeciesChoice.jpg
     3750  2012-07-02 06:07   Cain/help/VisualizationTablesSchloglTimeSeriesTableSpeciesChoice.prv.jpg
   103569  2012-07-02 06:07   Cain/help/VisualizationTablesSchloglTimeSeriesTableSpeciesStatistics.jpg
     3758  2012-07-02 06:07   Cain/help/VisualizationTablesSchloglTimeSeriesTableSpeciesStatistics.prv.jpg
     3340  2012-07-02 06:07   Cain/help/Welcome.htd
     3253  2012-07-02 06:07   Cain/help/Welcome.htm
      704  2012-07-02 06:07   Cain/help/x-office-spreadsheet.png
      732  2012-07-02 06:07   Cain/help/x-office-spreadsheet.prv.jpg
     2128  2012-07-02 06:07   Cain/help/Xml.htd
     2076  2012-07-02 06:07   Cain/help/Xml.htm
     3548  2012-07-02 06:07   Cain/help/XmlMethods.htd
     3476  2012-07-02 06:07   Cain/help/XmlMethods.htm
     5037  2012-07-02 06:07   Cain/help/XmlModels.htd
     4922  2012-07-02 06:07   Cain/help/XmlModels.htm
     7327  2012-07-02 06:07   Cain/help/XmlOutput.htd
     7143  2012-07-02 06:07   Cain/help/XmlOutput.htm
      611  2012-07-02 06:07   Cain/help/XmlRandom.htd
      590  2012-07-02 06:07   Cain/help/XmlRandom.htm
     2615  2012-07-02 06:07   Cain/Makefile
       92  2012-07-02 06:07   Cain/resourcePath.py
        0  2012-07-02 06:07   Cain/simulation/
        0  2012-07-02 06:07   Cain/simulation/__init__.py
     3555  2012-07-02 06:07   Cain/simulation/Direct.py
     1538  2012-07-02 06:07   Cain/simulation/Event.py
     2599  2012-07-02 06:07   Cain/simulation/FirstReaction.py
     3067  2012-07-02 06:07   Cain/simulation/Model.py
        0  2012-07-02 06:07   __MACOSX/Cain/simulation/
      171  2012-07-02 06:07   __MACOSX/Cain/simulation/._Model.py
      912  2012-07-02 06:07   Cain/simulation/Parameter.py
     1484  2012-07-02 06:07   Cain/simulation/Reaction.py
     1073  2012-07-02 06:07   Cain/simulation/Solver.py
      861  2012-07-02 06:07   Cain/simulation/Species.py
      692  2012-07-02 06:07   Cain/simulation/SpeciesReference.py
      226  2012-07-02 06:07   Cain/simulation/TimeEvent.py
     3338  2012-07-02 06:07   Cain/simulation/TimeSeriesUniform.py
      874  2012-07-02 06:07   Cain/simulation/TriggerEvent.py
        0  2012-07-02 06:07   Cain/solvers/
    21508  2012-07-02 06:07   Cain/solvers/.DS_Store
        0  2012-07-02 06:07   __MACOSX/Cain/solvers/
       82  2012-07-02 06:07   __MACOSX/Cain/solvers/._.DS_Store
   164373  2012-07-02 06:07   Cain/solvers/.sconsign.dblite
    90208  2012-07-02 06:07   Cain/solvers/HomogeneousDirect2DSearch
   102856  2012-07-02 06:07   Cain/solvers/HomogeneousDirect2DSearchBubbleSort
   102400  2012-07-02 06:07   Cain/solvers/HomogeneousDirect2DSearchSorted
    90808  2012-07-02 06:07   Cain/solvers/HomogeneousDirectAllReactions2DSearch
    88904  2012-07-02 06:07   Cain/solvers/HomogeneousDirectBinarySearch
    89832  2012-07-02 06:07   Cain/solvers/HomogeneousDirectBinarySearchRecursiveCdf
    97880  2012-07-02 06:07   Cain/solvers/HomogeneousDirectBinarySearchSorted
   105432  2012-07-02 06:07   Cain/solvers/HomogeneousDirectCompositionRejection
    88824  2012-07-02 06:07   Cain/solvers/HomogeneousDirectLinearSearch
    96808  2012-07-02 06:07   Cain/solvers/HomogeneousDirectLinearSearchBubbleSort
    88592  2012-07-02 06:07   Cain/solvers/HomogeneousDirectLinearSearchDelayedUpdate
   101944  2012-07-02 06:07   Cain/solvers/HomogeneousDirectLinearSearchSorted
   102608  2012-07-02 06:07   Cain/solvers/HomogeneousDirectRejectionBinsSplitting
    74416  2012-07-02 06:07   Cain/solvers/HomogeneousFirstReaction
    87224  2012-07-02 06:07   Cain/solvers/HomogeneousFirstReactionAbsoluteTime
    88416  2012-07-02 06:07   Cain/solvers/HomogeneousFirstReactionInfluence
   105032  2012-07-02 06:07   Cain/solvers/HomogeneousHistogramFinalHypoexponentialDirect2DSearch
   107744  2012-07-02 06:07   Cain/solvers/HomogeneousHistogramsAverage
   107752  2012-07-02 06:07   Cain/solvers/HomogeneousHistogramsAverageAps
   108888  2012-07-02 06:07   Cain/solvers/HomogeneousHistogramsAverageElapsedTime
   107184  2012-07-02 06:07   Cain/solvers/HomogeneousHistogramsDirect2DSearch
   119560  2012-07-02 06:07   Cain/solvers/HomogeneousHistogramsDirectTree
   108480  2012-07-02 06:07   Cain/solvers/HomogeneousHistogramsMultiTimeDirect2DSearch
   107352  2012-07-02 06:07   Cain/solvers/HomogeneousHistogramsTransientDirectTreeExponentialLast
   107352  2012-07-02 06:07   Cain/solvers/HomogeneousHistogramsTransientDirectTreeExponentialLimit
   113400  2012-07-02 06:07   Cain/solvers/HomogeneousHistogramsTransientDirectTreeHypoexponentialLimit
   111600  2012-07-02 06:07   Cain/solvers/HomogeneousHistogramsTransientDirectTreeNormalApproximation
   103380  2012-07-02 06:07   Cain/solvers/HomogeneousHybridDirectTauLeapingForward
   103380  2012-07-02 06:07   Cain/solvers/HomogeneousHybridDirectTauLeapingMidpoint
   103636  2012-07-02 06:07   Cain/solvers/HomogeneousHybridDirectTauLeapingRungeKutta4
    93640  2012-07-02 06:07   Cain/solvers/HomogeneousNextReactionBinaryHeapGibsonBruck
    93520  2012-07-02 06:07   Cain/solvers/HomogeneousNextReactionBinaryHeapPair
    93456  2012-07-02 06:07   Cain/solvers/HomogeneousNextReactionBinaryHeapPointer
   102536  2012-07-02 06:07   Cain/solvers/HomogeneousNextReactionHashing
   102552  2012-07-02 06:07   Cain/solvers/HomogeneousNextReactionHashingGenericList
   102952  2012-07-02 06:07   Cain/solvers/HomogeneousNextReactionHashingGenericVector
   102504  2012-07-02 06:07   Cain/solvers/HomogeneousNextReactionHashingVector
    89056  2012-07-02 06:07   Cain/solvers/HomogeneousNextReactionLinearSearch
    93432  2012-07-02 06:07   Cain/solvers/HomogeneousNextReactionLinearSearchPointer
    89024  2012-07-02 06:07   Cain/solvers/HomogeneousNextReactionLinearSearchUnrolled
    96768  2012-07-02 06:07   Cain/solvers/HomogeneousNextReactionPartitionCostAdaptive
    95960  2012-07-02 06:07   Cain/solvers/HomogeneousNextReactionPartitionFixedSize
    95160  2012-07-02 06:07   Cain/solvers/HomogeneousNextReactionPartitionPropensities
    96744  2012-07-02 06:07   Cain/solvers/HomogeneousNextReactionPartitionSizeAdaptive
    68168  2012-07-02 06:07   Cain/solvers/HomogeneousOdeReactionFixedForward
    72280  2012-07-02 06:07   Cain/solvers/HomogeneousOdeReactionFixedMidpoint
    72536  2012-07-02 06:07   Cain/solvers/HomogeneousOdeReactionFixedRungeKutta4
    72832  2012-07-02 06:07   Cain/solvers/HomogeneousOdeReactionFixedRungeKuttaCashKarp
    77288  2012-07-02 06:07   Cain/solvers/HomogeneousOdeReactionRungeKuttaCashKarp
    90340  2012-07-02 06:07   Cain/solvers/HomogeneousTauLeapingFixedForward
    90340  2012-07-02 06:07   Cain/solvers/HomogeneousTauLeapingFixedMidpoint
    90596  2012-07-02 06:07   Cain/solvers/HomogeneousTauLeapingFixedRungeKutta4
    91252  2012-07-02 06:07   Cain/solvers/HomogeneousTauLeapingForward
    90892  2012-07-02 06:07   Cain/solvers/HomogeneousTauLeapingForwardNoCorrection
   131868  2012-07-02 06:07   Cain/solvers/HomogeneousTauLeapingImplicitFixedEuler
    91244  2012-07-02 06:07   Cain/solvers/HomogeneousTauLeapingMidpoint
    90892  2012-07-02 06:07   Cain/solvers/HomogeneousTauLeapingMidpointNoCorrection
    95612  2012-07-02 06:07   Cain/solvers/HomogeneousTauLeapingRungeKutta4
    91124  2012-07-02 06:07   Cain/solvers/HomogeneousTauLeapingRungeKutta4NoCorrection
    90964  2012-07-02 06:07   Cain/solvers/HomogeneousTauLeapingSalFixedLinear
    90948  2012-07-02 06:07   Cain/solvers/HomogeneousTauLeapingSalLinear
   103944  2012-07-02 06:07   Cain/solvers/HomogeneousTrajectoryTreeFull
        0  2012-07-02 06:07   Cain/src/
     6148  2012-07-02 06:07   Cain/src/.DS_Store
        0  2012-07-02 06:07   __MACOSX/Cain/src/
       82  2012-07-02 06:07   __MACOSX/Cain/src/._.DS_Store
        0  2012-07-02 06:07   Cain/src/ads/
     3670  2012-07-02 06:07   Cain/src/ads/ads.h
        0  2012-07-02 06:07   Cain/src/ads/algorithm/
     2783  2012-07-02 06:07   Cain/src/ads/algorithm/extremeElement.h
     9863  2012-07-02 06:07   Cain/src/ads/algorithm/extremeElement.ipp
      847  2012-07-02 06:07   Cain/src/ads/algorithm/insertion_sort.h
     1778  2012-07-02 06:07   Cain/src/ads/algorithm/insertion_sort.ipp
     1302  2012-07-02 06:07   Cain/src/ads/algorithm/is_sorted.h
     4178  2012-07-02 06:07   Cain/src/ads/algorithm/min_max.h
     3450  2012-07-02 06:07   Cain/src/ads/algorithm/OrderedPair.h
      660  2012-07-02 06:07   Cain/src/ads/algorithm/sign.h
     1604  2012-07-02 06:07   Cain/src/ads/algorithm/skipElements.h
     1467  2012-07-02 06:07   Cain/src/ads/algorithm/skipElements.ipp
     3027  2012-07-02 06:07   Cain/src/ads/algorithm/sort.h
     5352  2012-07-02 06:07   Cain/src/ads/algorithm/sort.ipp
     4048  2012-07-02 06:07   Cain/src/ads/algorithm/statistics.h
     5073  2012-07-02 06:07   Cain/src/ads/algorithm/statistics.ipp
     3038  2012-07-02 06:07   Cain/src/ads/algorithm/Triplet.h
     1050  2012-07-02 06:07   Cain/src/ads/algorithm/unique.h
     1194  2012-07-02 06:07   Cain/src/ads/algorithm/unique.ipp
     1921  2012-07-02 06:07   Cain/src/ads/algorithm.h
        0  2012-07-02 06:07   Cain/src/ads/array/
    20562  2012-07-02 06:07   Cain/src/ads/array/Array.h
     2008  2012-07-02 06:07   Cain/src/ads/array/Array.ipp
    22520  2012-07-02 06:07   Cain/src/ads/array/Array1.h
     1890  2012-07-02 06:07   Cain/src/ads/array/Array1.ipp
    23579  2012-07-02 06:07   Cain/src/ads/array/ArrayContainer.h
     7171  2012-07-02 06:07   Cain/src/ads/array/ArrayContainer.ipp
    21343  2012-07-02 06:07   Cain/src/ads/array/ArrayIndexing.h
     3718  2012-07-02 06:07   Cain/src/ads/array/ArrayIndexing.ipp
     9031  2012-07-02 06:07   Cain/src/ads/array/ArrayIndexingBase.h
     6002  2012-07-02 06:07   Cain/src/ads/array/ArrayIndexingBase1.h
     7036  2012-07-02 06:07   Cain/src/ads/array/ArrayIndexIterator.h
     1758  2012-07-02 06:07   Cain/src/ads/array/ArrayTypes.h
     4257  2012-07-02 06:07   Cain/src/ads/array/ArrayWithNullHoles.h
     3047  2012-07-02 06:07   Cain/src/ads/array/ArrayWithNullHoles.ipp
    30095  2012-07-02 06:07   Cain/src/ads/array/FixedArray.h
    11569  2012-07-02 06:07   Cain/src/ads/array/FixedArray.ipp
     9172  2012-07-02 06:07   Cain/src/ads/array/FixedArray0.h
      799  2012-07-02 06:07   Cain/src/ads/array/FixedArray0.ipp
    10363  2012-07-02 06:07   Cain/src/ads/array/FixedArray1.h
     3060  2012-07-02 06:07   Cain/src/ads/array/FixedArray1.ipp
    12111  2012-07-02 06:07   Cain/src/ads/array/FixedArray2.h
     3702  2012-07-02 06:07   Cain/src/ads/array/FixedArray2.ipp
    13988  2012-07-02 06:07   Cain/src/ads/array/FixedArray3.h
     4377  2012-07-02 06:07   Cain/src/ads/array/FixedArray3.ipp
     5920  2012-07-02 06:07   Cain/src/ads/array/IndexIterator.h
    13126  2012-07-02 06:07   Cain/src/ads/array/IndexRange.h
     3134  2012-07-02 06:07   Cain/src/ads/array/SparseArray.h
    14401  2012-07-02 06:07   Cain/src/ads/array/SparseArray1.h
    18449  2012-07-02 06:07   Cain/src/ads/array/SparseArray1.ipp
     6907  2012-07-02 06:07   Cain/src/ads/array/SparseArray2.h
     4655  2012-07-02 06:07   Cain/src/ads/array/SparseArray2.ipp
     3237  2012-07-02 06:07   Cain/src/ads/array/SparseArraySigned.h
     8680  2012-07-02 06:07   Cain/src/ads/array/SparseArraySigned1.h
    18573  2012-07-02 06:07   Cain/src/ads/array/SparseArraySigned1.ipp
     2855  2012-07-02 06:07   Cain/src/ads/array.h
        0  2012-07-02 06:07   Cain/src/ads/counter/
     2490  2012-07-02 06:07   Cain/src/ads/counter/Counter.h
     2821  2012-07-02 06:07   Cain/src/ads/counter/CounterWithReset.h
      372  2012-07-02 06:07   Cain/src/ads/counter.h
        0  2012-07-02 06:07   Cain/src/ads/functor/
     1267  2012-07-02 06:07   Cain/src/ads/functor/Address.h
    12356  2012-07-02 06:07   Cain/src/ads/functor/compare_handle.h
     6558  2012-07-02 06:07   Cain/src/ads/functor/compose.h
     6764  2012-07-02 06:07   Cain/src/ads/functor/composite_compare.h
     4953  2012-07-02 06:07   Cain/src/ads/functor/composite_compare.ipp
     7036  2012-07-02 06:07   Cain/src/ads/functor/constant.h
     1909  2012-07-02 06:07   Cain/src/ads/functor/coordinateCompare.h
     1443  2012-07-02 06:07   Cain/src/ads/functor/Dereference.h
     1742  2012-07-02 06:07   Cain/src/ads/functor/HandleToPointer.h
      833  2012-07-02 06:07   Cain/src/ads/functor/Identity.h
     4795  2012-07-02 06:07   Cain/src/ads/functor/index.h
     1672  2012-07-02 06:07   Cain/src/ads/functor/linear.h
     2727  2012-07-02 06:07   Cain/src/ads/functor/select.h
    13447  2012-07-02 06:07   Cain/src/ads/functor/UniformRandom.h
     1549  2012-07-02 06:07   Cain/src/ads/functor.h
        0  2012-07-02 06:07   Cain/src/ads/indexedPriorityQueue/
    10708  2012-07-02 06:07   Cain/src/ads/indexedPriorityQueue/HashingChaining.h
     8001  2012-07-02 06:07   Cain/src/ads/indexedPriorityQueue/HashingChainingGeneric.h
     8149  2012-07-02 06:07   Cain/src/ads/indexedPriorityQueue/HashingChainingVector.h
     4388  2012-07-02 06:07   Cain/src/ads/indexedPriorityQueue/IndexedPriorityQueueActive.h
     4841  2012-07-02 06:07   Cain/src/ads/indexedPriorityQueue/IndexedPriorityQueueBase.h
     7692  2012-07-02 06:07   Cain/src/ads/indexedPriorityQueue/IndexedPriorityQueueBinaryHeap.h
     9425  2012-07-02 06:07   Cain/src/ads/indexedPriorityQueue/IndexedPriorityQueueBinaryHeapPair.h
     4543  2012-07-02 06:07   Cain/src/ads/indexedPriorityQueue/IndexedPriorityQueueHashing.h
     2459  2012-07-02 06:07   Cain/src/ads/indexedPriorityQueue/IndexedPriorityQueueLinearSearch.h
     3386  2012-07-02 06:07   Cain/src/ads/indexedPriorityQueue/IndexedPriorityQueueLinearSearchSimple.h
     3651  2012-07-02 06:07   Cain/src/ads/indexedPriorityQueue/IndexedPriorityQueueLinearSearchUnrolled.h
     6596  2012-07-02 06:07   Cain/src/ads/indexedPriorityQueue/IndexedPriorityQueuePartitionLinearSearch.h
     5813  2012-07-02 06:07   Cain/src/ads/indexedPriorityQueue/IndexedPriorityQueuePartitionLinearSearchCostAdaptive.h
     5039  2012-07-02 06:07   Cain/src/ads/indexedPriorityQueue/IndexedPriorityQueuePartitionLinearSearchFixedSize.h
     4448  2012-07-02 06:07   Cain/src/ads/indexedPriorityQueue/IndexedPriorityQueuePartitionLinearSearchPropensities.h
     6077  2012-07-02 06:07   Cain/src/ads/indexedPriorityQueue/IndexedPriorityQueuePartitionLinearSearchSizeAdaptive.h
     2709  2012-07-02 06:07   Cain/src/ads/indexedPriorityQueue/IndexedPriorityQueuePlaceboQueue.h
     6651  2012-07-02 06:07   Cain/src/ads/indexedPriorityQueue.h
        0  2012-07-02 06:07   Cain/src/ads/iterator/
     7854  2012-07-02 06:07   Cain/src/ads/iterator/AdaptedIterator.h
    12046  2012-07-02 06:07   Cain/src/ads/iterator/IndirectIterator.h
     7183  2012-07-02 06:07   Cain/src/ads/iterator/IntIterator.h
     7109  2012-07-02 06:07   Cain/src/ads/iterator/MemFunIterator.h
     7064  2012-07-02 06:07   Cain/src/ads/iterator/SingleValueIterator.h
     7556  2012-07-02 06:07   Cain/src/ads/iterator/TransformIterator.h
      688  2012-07-02 06:07   Cain/src/ads/iterator/TrivialAssignable.h
     5113  2012-07-02 06:07   Cain/src/ads/iterator/TrivialOutputIterator.h
     1084  2012-07-02 06:07   Cain/src/ads/iterator.h
        0  2012-07-02 06:07   Cain/src/ads/timer/
     2178  2012-07-02 06:07   Cain/src/ads/timer/Timer.h
     3363  2012-07-02 06:07   Cain/src/ads/timer/Timer.ipp
      463  2012-07-02 06:07   Cain/src/ads/timer.h
        0  2012-07-02 06:07   Cain/src/ads/utility/
     2551  2012-07-02 06:07   Cain/src/ads/utility/ObjectAndBlankSpace.h
     6333  2012-07-02 06:07   Cain/src/ads/utility/ParseOptionsArguments.h
     3127  2012-07-02 06:07   Cain/src/ads/utility/ParseOptionsArguments.ipp
      887  2012-07-02 06:07   Cain/src/ads/utility/string.h
     1693  2012-07-02 06:07   Cain/src/ads/utility/string.ipp
      605  2012-07-02 06:07   Cain/src/ads/utility.h
        0  2012-07-02 06:07   Cain/src/array/
    22619  2012-07-02 06:07   Cain/src/array/all.h
     7370  2012-07-02 06:07   Cain/src/array/Array.h
     2606  2012-07-02 06:07   Cain/src/array/Array.ipp
     3698  2012-07-02 06:07   Cain/src/array/ArrayBase.h
     9383  2012-07-02 06:07   Cain/src/array/ArrayConstRef.h
     7308  2012-07-02 06:07   Cain/src/array/ArrayConstView.h
    10858  2012-07-02 06:07   Cain/src/array/ArrayRef.h
     2182  2012-07-02 06:07   Cain/src/array/ArrayRef.ipp
     1415  2012-07-02 06:07   Cain/src/array/ArrayTypes.h
    12177  2012-07-02 06:07   Cain/src/array/ArrayView.h
     2112  2012-07-02 06:07   Cain/src/array/EquilateralArray.h
    24196  2012-07-02 06:07   Cain/src/array/EquilateralArrayImp.h
     1361  2012-07-02 06:07   Cain/src/array/EquilateralArrayRef.h
     7082  2012-07-02 06:07   Cain/src/array/FixedArrayRef.h
     3578  2012-07-02 06:07   Cain/src/array/IndexRange.h
     1731  2012-07-02 06:07   Cain/src/array/IndexRange.ipp
      579  2012-07-02 06:07   Cain/src/array/IndexTypes.h
    11131  2012-07-02 06:07   Cain/src/array/MultiArray.h
     6264  2012-07-02 06:07   Cain/src/array/MultiArray.ipp
     7358  2012-07-02 06:07   Cain/src/array/MultiArrayBase.h
     1104  2012-07-02 06:07   Cain/src/array/MultiArrayBase.ipp
    14081  2012-07-02 06:07   Cain/src/array/MultiArrayConstRef.h
    10192  2012-07-02 06:07   Cain/src/array/MultiArrayConstView.h
    12968  2012-07-02 06:07   Cain/src/array/MultiArrayRef.h
     8182  2012-07-02 06:07   Cain/src/array/MultiArrayRef.ipp
     2267  2012-07-02 06:07   Cain/src/array/MultiArrayStorage.h
     1490  2012-07-02 06:07   Cain/src/array/MultiArrayTypes.h
    14290  2012-07-02 06:07   Cain/src/array/MultiArrayView.h
     7110  2012-07-02 06:07   Cain/src/array/MultiArrayView.ipp
     6951  2012-07-02 06:07   Cain/src/array/MultiIndexRange.h
     3517  2012-07-02 06:07   Cain/src/array/MultiIndexRange.ipp
     7940  2012-07-02 06:07   Cain/src/array/MultiIndexRangeIterator.h
     8314  2012-07-02 06:07   Cain/src/array/MultiIndexRangeIterator.ipp
     1068  2012-07-02 06:07   Cain/src/array/MultiIndexTypes.h
     8697  2012-07-02 06:07   Cain/src/array/MultiViewIterator.h
     6573  2012-07-02 06:07   Cain/src/array/MultiViewIterator.ipp
    13507  2012-07-02 06:07   Cain/src/array/PackedArrayOfArrays.h
     2425  2012-07-02 06:07   Cain/src/array/PackedArrayOfArrays.ipp
     4913  2012-07-02 06:07   Cain/src/array/SimpleMultiArray.h
     3704  2012-07-02 06:07   Cain/src/array/SimpleMultiArray.ipp
    14229  2012-07-02 06:07   Cain/src/array/SimpleMultiArrayConstRef.h
    10182  2012-07-02 06:07   Cain/src/array/SimpleMultiArrayRef.h
     5443  2012-07-02 06:07   Cain/src/array/SimpleMultiArrayRef.ipp
     7803  2012-07-02 06:07   Cain/src/array/SimpleMultiIndexExtentsIterator.h
     4880  2012-07-02 06:07   Cain/src/array/SimpleMultiIndexExtentsIterator.ipp
     2770  2012-07-02 06:07   Cain/src/array/SimpleMultiIndexRange.h
     1488  2012-07-02 06:07   Cain/src/array/SimpleMultiIndexRange.ipp
     8060  2012-07-02 06:07   Cain/src/array/SimpleMultiIndexRangeIterator.h
     6098  2012-07-02 06:07   Cain/src/array/SimpleMultiIndexRangeIterator.ipp
    17167  2012-07-02 06:07   Cain/src/array/SparseVector.h
     6514  2012-07-02 06:07   Cain/src/array/SparseVector.ipp
    10362  2012-07-02 06:07   Cain/src/array/StaticArrayOfArrays.h
     3020  2012-07-02 06:07   Cain/src/array/StaticArrayOfArrays.ipp
     8133  2012-07-02 06:07   Cain/src/array/SymmetricArray2D.h
    11563  2012-07-02 06:07   Cain/src/array/Tensor.h
     9467  2012-07-02 06:07   Cain/src/array/TriangularArray.h
    12005  2012-07-02 06:07   Cain/src/array/vector.h
      166  2012-07-02 06:07   Cain/src/array/vector.ipp
     7956  2012-07-02 06:07   Cain/src/array/ViewIterator.h
     2791  2012-07-02 06:07   Cain/src/array/ViewIterator.ipp
        0  2012-07-02 06:07   Cain/src/ext/
     5928  2012-07-02 06:07   Cain/src/ext/array.h
    26889  2012-07-02 06:07   Cain/src/ext/arrayCuda.h
    36347  2012-07-02 06:07   Cain/src/ext/arrayStd.h
     1660  2012-07-02 06:07   Cain/src/ext/ext.h
      954  2012-07-02 06:07   Cain/src/ext/pair.h
    12022  2012-07-02 06:07   Cain/src/ext/vector.h
        0  2012-07-02 06:07   Cain/src/loki/
     6259  2012-07-02 06:07   Cain/src/loki/AbstractFactory.h
     5155  2012-07-02 06:07   Cain/src/loki/Allocator.h
    12386  2012-07-02 06:07   Cain/src/loki/AssocVector.h
    40739  2012-07-02 06:07   Cain/src/loki/CachedFactory.h
    19162  2012-07-02 06:07   Cain/src/loki/Checker.h
     5120  2012-07-02 06:07   Cain/src/loki/CheckReturn.h
     2096  2012-07-02 06:07   Cain/src/loki/ConstPolicy.h
     3113  2012-07-02 06:07   Cain/src/loki/DataGenerators.h
     1660  2012-07-02 06:07   Cain/src/loki/EmptyType.h
    46969  2012-07-02 06:07   Cain/src/loki/Factory.h
        0  2012-07-02 06:07   Cain/src/loki/flex/
     7501  2012-07-02 06:07   Cain/src/loki/flex/allocatorstringstorage.h
     7034  2012-07-02 06:07   Cain/src/loki/flex/cowstringopt.h
     1086  2012-07-02 06:07   Cain/src/loki/flex/flex_string.h
     2595  2012-07-02 06:07   Cain/src/loki/flex/flex_string_details.h
    39842  2012-07-02 06:07   Cain/src/loki/flex/flex_string_shell.h
     7740  2012-07-02 06:07   Cain/src/loki/flex/simplestringstorage.h
    13205  2012-07-02 06:07   Cain/src/loki/flex/smallstringopt.h
     5325  2012-07-02 06:07   Cain/src/loki/flex/vectorstringstorage.h
    14543  2012-07-02 06:07   Cain/src/loki/Function.h
    75113  2012-07-02 06:07   Cain/src/loki/Functor.h
    10081  2012-07-02 06:07   Cain/src/loki/HierarchyGenerators.h
    24655  2012-07-02 06:07   Cain/src/loki/Key.h
    48380  2012-07-02 06:07   Cain/src/loki/LevelMutex.h
     3827  2012-07-02 06:07   Cain/src/loki/LockingPtr.h
     1869  2012-07-02 06:07   Cain/src/loki/LokiExport.h
     3252  2012-07-02 06:07   Cain/src/loki/LokiTypeInfo.h
    14519  2012-07-02 06:07   Cain/src/loki/MultiMethods.h
     1377  2012-07-02 06:07   Cain/src/loki/NullType.h
     7241  2012-07-02 06:07   Cain/src/loki/OrderedStatic.h
     4892  2012-07-02 06:07   Cain/src/loki/Pimpl.h
      446  2012-07-02 06:07   Cain/src/loki/readme.txt
     2038  2012-07-02 06:07   Cain/src/loki/RefToValue.h
     5014  2012-07-02 06:07   Cain/src/loki/Register.h
    26936  2012-07-02 06:07   Cain/src/loki/SafeBits.h
    20459  2012-07-02 06:07   Cain/src/loki/SafeFormat.h
    22413  2012-07-02 06:07   Cain/src/loki/ScopeGuard.h
     1730  2012-07-02 06:07   Cain/src/loki/Sequence.h
    28985  2012-07-02 06:07   Cain/src/loki/Singleton.h
    27258  2012-07-02 06:07   Cain/src/loki/SmallObj.h
    52749  2012-07-02 06:07   Cain/src/loki/SmartPtr.h
     7347  2012-07-02 06:07   Cain/src/loki/SPCachedFactory.h
     1914  2012-07-02 06:07   Cain/src/loki/static_check.h
    46143  2012-07-02 06:07   Cain/src/loki/StrongPtr.h
    26362  2012-07-02 06:07   Cain/src/loki/Threads.h
     1227  2012-07-02 06:07   Cain/src/loki/Tuple.h
    16068  2012-07-02 06:07   Cain/src/loki/Typelist.h
    18681  2012-07-02 06:07   Cain/src/loki/TypelistMacros.h
    10046  2012-07-02 06:07   Cain/src/loki/TypeManip.h
    94169  2012-07-02 06:07   Cain/src/loki/TypeTraits.h
    11051  2012-07-02 06:07   Cain/src/loki/Visitor.h
        0  2012-07-02 06:07   Cain/src/loki/yasli/
     1975  2012-07-02 06:07   Cain/src/loki/yasli/platform.h
     1667  2012-07-02 06:07   Cain/src/loki/yasli/random.h
     3996  2012-07-02 06:07   Cain/src/loki/yasli/yasli_fill_iterator.h
    14511  2012-07-02 06:07   Cain/src/loki/yasli/yasli_memory.h
     3307  2012-07-02 06:07   Cain/src/loki/yasli/yasli_protocols.h
     1704  2012-07-02 06:07   Cain/src/loki/yasli/yasli_traits.h
    18662  2012-07-02 06:07   Cain/src/loki/yasli/yasli_vector.h
        0  2012-07-02 06:07   Cain/src/numerical/
        0  2012-07-02 06:07   Cain/src/numerical/constants/
      842  2012-07-02 06:07   Cain/src/numerical/constants/Exponentiation.h
     2551  2012-07-02 06:07   Cain/src/numerical/constants/Exponentiation.ipp
      843  2012-07-02 06:07   Cain/src/numerical/constants/Logarithm.h
     3541  2012-07-02 06:07   Cain/src/numerical/constants/Logarithm.ipp
     2211  2012-07-02 06:07   Cain/src/numerical/constants.h
     2214  2012-07-02 06:07   Cain/src/numerical/numerical.h
        0  2012-07-02 06:07   Cain/src/numerical/random/
        0  2012-07-02 06:07   Cain/src/numerical/random/discrete/
     2859  2012-07-02 06:07   Cain/src/numerical/random/discrete/DgBinConstants.h
     3783  2012-07-02 06:07   Cain/src/numerical/random/discrete/DgPmf.h
     4303  2012-07-02 06:07   Cain/src/numerical/random/discrete/DgPmfAndSum.h
     4908  2012-07-02 06:07   Cain/src/numerical/random/discrete/DgPmfAndSumOrderedPairPointer.h
     7258  2012-07-02 06:07   Cain/src/numerical/random/discrete/DgPmfFixedSize.h
     7650  2012-07-02 06:07   Cain/src/numerical/random/discrete/DgPmfInteger.h
     6963  2012-07-02 06:07   Cain/src/numerical/random/discrete/DgPmfIntegerNoBranching.h
     7442  2012-07-02 06:07   Cain/src/numerical/random/discrete/DgPmfOrderedIndexRank.h
     6525  2012-07-02 06:07   Cain/src/numerical/random/discrete/DgPmfOrderedPairPointer.h
     5990  2012-07-02 06:07   Cain/src/numerical/random/discrete/DgRebuild.h
     6453  2012-07-02 06:07   Cain/src/numerical/random/discrete/DgRepair.h
     6609  2012-07-02 06:07   Cain/src/numerical/random/discrete/DiscreteGenerator2DSearch.h
    19689  2012-07-02 06:07   Cain/src/numerical/random/discrete/DiscreteGenerator2DSearchBubbleSort.h
     7767  2012-07-02 06:07   Cain/src/numerical/random/discrete/DiscreteGenerator2DSearchSorted.h
     9904  2012-07-02 06:07   Cain/src/numerical/random/discrete/DiscreteGenerator2DSearchSortedStatic.h
     8067  2012-07-02 06:07   Cain/src/numerical/random/discrete/DiscreteGenerator2DSearchStatic.h
     5635  2012-07-02 06:07   Cain/src/numerical/random/discrete/DiscreteGeneratorBinarySearch.h
     7741  2012-07-02 06:07   Cain/src/numerical/random/discrete/DiscreteGeneratorBinarySearchRecursiveCdf.h
     3371  2012-07-02 06:07   Cain/src/numerical/random/discrete/DiscreteGeneratorBinarySearchRecursiveCdf.ipp
    11138  2012-07-02 06:07   Cain/src/numerical/random/discrete/DiscreteGeneratorBinarySearchSorted.h
    12066  2012-07-02 06:07   Cain/src/numerical/random/discrete/DiscreteGeneratorBinned.h
        0  2012-07-02 06:07   __MACOSX/Cain/src/numerical/
        0  2012-07-02 06:07   __MACOSX/Cain/src/numerical/random/
        0  2012-07-02 06:07   __MACOSX/Cain/src/numerical/random/discrete/
      171  2012-07-02 06:07   __MACOSX/Cain/src/numerical/random/discrete/._DiscreteGeneratorBinned.h
     9631  2012-07-02 06:07   Cain/src/numerical/random/discrete/DiscreteGeneratorBinned.ipp
      171  2012-07-02 06:07   __MACOSX/Cain/src/numerical/random/discrete/._DiscreteGeneratorBinned.ipp
    16558  2012-07-02 06:07   Cain/src/numerical/random/discrete/DiscreteGeneratorBinsSplitting.h
    10133  2012-07-02 06:07   Cain/src/numerical/random/discrete/DiscreteGeneratorBinsSplitting.ipp
    16876  2012-07-02 06:07   Cain/src/numerical/random/discrete/DiscreteGeneratorBinsSplittingStacking.h
    12516  2012-07-02 06:07   Cain/src/numerical/random/discrete/DiscreteGeneratorBinsSplittingStacking.ipp
    11249  2012-07-02 06:07   Cain/src/numerical/random/discrete/DiscreteGeneratorCompositionRejection.h
    12208  2012-07-02 06:07   Cain/src/numerical/random/discrete/DiscreteGeneratorCompositionRejectionStatic.h
      171  2012-07-02 06:07   __MACOSX/Cain/src/numerical/random/discrete/._DiscreteGeneratorCompositionRejectionStatic.h
     6361  2012-07-02 06:07   Cain/src/numerical/random/discrete/DiscreteGeneratorDynamic.h
     5293  2012-07-02 06:07   Cain/src/numerical/random/discrete/DiscreteGeneratorLinearSearch.h
     7967  2012-07-02 06:07   Cain/src/numerical/random/discrete/DiscreteGeneratorLinearSearchBubbleSort.h
     6217  2012-07-02 06:07   Cain/src/numerical/random/discrete/DiscreteGeneratorLinearSearchDelayedUpdate.h
     5055  2012-07-02 06:07   Cain/src/numerical/random/discrete/DiscreteGeneratorLinearSearchInteger.h
     7411  2012-07-02 06:07   Cain/src/numerical/random/discrete/DiscreteGeneratorLinearSearchSorted.h
     6398  2012-07-02 06:07   Cain/src/numerical/random/discrete/DiscreteGeneratorLinearSearchSortedStatic.h
     6997  2012-07-02 06:07   Cain/src/numerical/random/discrete/DiscreteGeneratorRejectionBinsSplitting.h
     3209  2012-07-02 06:07   Cain/src/numerical/random/discrete/DiscreteGeneratorRejectionBinsSplitting.ipp
    11958  2012-07-02 06:07   Cain/src/numerical/random/discrete/DiscreteGeneratorRejectionBinsSplittingStatic.h
     8450  2012-07-02 06:07   Cain/src/numerical/random/discrete/DiscreteGeneratorRejectionBinsSplittingStatic.ipp
     3352  2012-07-02 06:07   Cain/src/numerical/random/discrete/linearSearch.h
     5372  2012-07-02 06:07   Cain/src/numerical/random/discrete/linearSearch.ipp
    32625  2012-07-02 06:07   Cain/src/numerical/random/discrete.h
      171  2012-07-02 06:07   __MACOSX/Cain/src/numerical/random/._discrete.h
        0  2012-07-02 06:07   Cain/src/numerical/random/exponential/
      478  2012-07-02 06:07   Cain/src/numerical/random/exponential/Default.h
     4061  2012-07-02 06:07   Cain/src/numerical/random/exponential/ExponentialGeneratorAcceptanceComplement.h
     2713  2012-07-02 06:07   Cain/src/numerical/random/exponential/ExponentialGeneratorAcceptanceComplement.ipp
     3854  2012-07-02 06:07   Cain/src/numerical/random/exponential/ExponentialGeneratorInversion.h
     3613  2012-07-02 06:07   Cain/src/numerical/random/exponential/ExponentialGeneratorZiggurat.h
     2292  2012-07-02 06:07   Cain/src/numerical/random/exponential/ExponentialGeneratorZiggurat.ipp
     4777  2012-07-02 06:07   Cain/src/numerical/random/exponential.h
        0  2012-07-02 06:07   Cain/src/numerical/random/gamma/
      436  2012-07-02 06:07   Cain/src/numerical/random/gamma/Default.h
     2806  2012-07-02 06:07   Cain/src/numerical/random/gamma/GammaGeneratorMarsagliaTsang.h
     1051  2012-07-02 06:07   Cain/src/numerical/random/gamma/GammaGeneratorMarsagliaTsang.ipp
     3400  2012-07-02 06:07   Cain/src/numerical/random/gamma.h
        0  2012-07-02 06:07   Cain/src/numerical/random/hypoexponential/
     7852  2012-07-02 06:07   Cain/src/numerical/random/hypoexponential/HypoexponentialDistributionDistinctDynamicMinimumParameters.h
     4823  2012-07-02 06:07   Cain/src/numerical/random/hypoexponential/HypoexponentialDistributionNormalApproximation.h
      924  2012-07-02 06:07   Cain/src/numerical/random/hypoexponential.h
        0  2012-07-02 06:07   Cain/src/numerical/random/normal/
      441  2012-07-02 06:07   Cain/src/numerical/random/normal/Default.h
     3795  2012-07-02 06:07   Cain/src/numerical/random/normal/NormalGeneratorBoxMullerNr.h
     1351  2012-07-02 06:07   Cain/src/numerical/random/normal/NormalGeneratorBoxMullerNr.ipp
     4042  2012-07-02 06:07   Cain/src/numerical/random/normal/NormalGeneratorZigguratVoss.h
     8044  2012-07-02 06:07   Cain/src/numerical/random/normal/NormalGeneratorZigguratVoss.ipp
     3696  2012-07-02 06:07   Cain/src/numerical/random/normal.h
        0  2012-07-02 06:07   Cain/src/numerical/random/poisson/
     1871  2012-07-02 06:07   Cain/src/numerical/random/poisson/PoissonCdf.h
        0  2012-07-02 06:07   __MACOSX/Cain/src/numerical/random/poisson/
      171  2012-07-02 06:07   __MACOSX/Cain/src/numerical/random/poisson/._PoissonCdf.h
     1503  2012-07-02 06:07   Cain/src/numerical/random/poisson/PoissonCdf.ipp
     2421  2012-07-02 06:07   Cain/src/numerical/random/poisson/PoissonCdfAtTheMode.h
     1797  2012-07-02 06:07   Cain/src/numerical/random/poisson/PoissonCdfAtTheMode.ipp
     3857  2012-07-02 06:07   Cain/src/numerical/random/poisson/PoissonGeneratorAcceptanceComplementWinrand.h
     4545  2012-07-02 06:07   Cain/src/numerical/random/poisson/PoissonGeneratorAcceptanceComplementWinrand.ipp
     3447  2012-07-02 06:07   Cain/src/numerical/random/poisson/PoissonGeneratorDirectNr.h
      760  2012-07-02 06:07   Cain/src/numerical/random/poisson/PoissonGeneratorDirectNr.ipp
     5161  2012-07-02 06:07   Cain/src/numerical/random/poisson/PoissonGeneratorDirectRejectionNr.h
      631  2012-07-02 06:07   Cain/src/numerical/random/poisson/PoissonGeneratorDirectRejectionNr.ipp
     6165  2012-07-02 06:07   Cain/src/numerical/random/poisson/PoissonGeneratorExpAcNorm.h
     1435  2012-07-02 06:07   Cain/src/numerical/random/poisson/PoissonGeneratorExpAcNorm.ipp
     5735  2012-07-02 06:07   Cain/src/numerical/random/poisson/PoissonGeneratorExpInvAc.h
     2612  2012-07-02 06:07   Cain/src/numerical/random/poisson/PoissonGeneratorExpInvAc.ipp
     6348  2012-07-02 06:07   Cain/src/numerical/random/poisson/PoissonGeneratorExpInvAcNorm.h
     2901  2012-07-02 06:07   Cain/src/numerical/random/poisson/PoissonGeneratorExpInvAcNorm.ipp
     4282  2012-07-02 06:07   Cain/src/numerical/random/poisson/PoissonGeneratorExponentialInterArrival.h
      673  2012-07-02 06:07   Cain/src/numerical/random/poisson/PoissonGeneratorExponentialInterArrival.ipp
     3248  2012-07-02 06:07   Cain/src/numerical/random/poisson/PoissonGeneratorExponentialInterArrivalUnrolled.h
      738  2012-07-02 06:07   Cain/src/numerical/random/poisson/PoissonGeneratorExponentialInterArrivalUnrolled.ipp
     6319  2012-07-02 06:07   Cain/src/numerical/random/poisson/PoissonGeneratorExponentialInterArrivalUsingUniform.h
     3198  2012-07-02 06:07   Cain/src/numerical/random/poisson/PoissonGeneratorExponentialInterArrivalUsingUniform.ipp
     5278  2012-07-02 06:07   Cain/src/numerical/random/poisson/PoissonGeneratorIfmAcNorm.h
     2003  2012-07-02 06:07   Cain/src/numerical/random/poisson/PoissonGeneratorIfmAcNorm.ipp
     5157  2012-07-02 06:07   Cain/src/numerical/random/poisson/PoissonGeneratorInvAcNorm.h
     2088  2012-07-02 06:07   Cain/src/numerical/random/poisson/PoissonGeneratorInvAcNorm.ipp
     6056  2012-07-02 06:07   Cain/src/numerical/random/poisson/PoissonGeneratorInvAcNormSure.h
     1711  2012-07-02 06:07   Cain/src/numerical/random/poisson/PoissonGeneratorInvAcNormSure.ipp
     4254  2012-07-02 06:07   Cain/src/numerical/random/poisson/PoissonGeneratorInversionBuildUp.h
      171  2012-07-02 06:07   __MACOSX/Cain/src/numerical/random/poisson/._PoissonGeneratorInversionBuildUp.h
     3526  2012-07-02 06:07   Cain/src/numerical/random/poisson/PoissonGeneratorInversionBuildUp.ipp
     3969  2012-07-02 06:07   Cain/src/numerical/random/poisson/PoissonGeneratorInversionBuildUpSimple.h
     1449  2012-07-02 06:07   Cain/src/numerical/random/poisson/PoissonGeneratorInversionBuildUpSimple.ipp
     3885  2012-07-02 06:07   Cain/src/numerical/random/poisson/PoissonGeneratorInversionCheckPdf.h
     3294  2012-07-02 06:07   Cain/src/numerical/random/poisson/PoissonGeneratorInversionCheckPdf.ipp
     6920  2012-07-02 06:07   Cain/src/numerical/random/poisson/PoissonGeneratorInversionChopDown.h
     5536  2012-07-02 06:07   Cain/src/numerical/random/poisson/PoissonGeneratorInversionChopDown.ipp
     4001  2012-07-02 06:07   Cain/src/numerical/random/poisson/PoissonGeneratorInversionChopDownSimple.h
     1386  2012-07-02 06:07   Cain/src/numerical/random/poisson/PoissonGeneratorInversionChopDownSimple.ipp
     5808  2012-07-02 06:07   Cain/src/numerical/random/poisson/PoissonGeneratorInversionChopDownUnrolled.h
      171  2012-07-02 06:07   __MACOSX/Cain/src/numerical/random/poisson/._PoissonGeneratorInversionChopDownUnrolled.h
     2329  2012-07-02 06:07   Cain/src/numerical/random/poisson/PoissonGeneratorInversionChopDownUnrolled.ipp
     3733  2012-07-02 06:07   Cain/src/numerical/random/poisson/PoissonGeneratorInversionFromModeBuildUp.h
     2741  2012-07-02 06:07   Cain/src/numerical/random/poisson/PoissonGeneratorInversionFromModeBuildUp.ipp
     3761  2012-07-02 06:07   Cain/src/numerical/random/poisson/PoissonGeneratorInversionFromModeChopDown.h
     3336  2012-07-02 06:07   Cain/src/numerical/random/poisson/PoissonGeneratorInversionFromModeChopDown.ipp
     1119  2012-07-02 06:07   Cain/src/numerical/random/poisson/PoissonGeneratorInversionMaximumMean.h
     1034  2012-07-02 06:07   Cain/src/numerical/random/poisson/PoissonGeneratorInversionMaximumMean.ipp
     4663  2012-07-02 06:07   Cain/src/numerical/random/poisson/PoissonGeneratorInversionRatioOfUniformsWinrand.h
     5065  2012-07-02 06:07   Cain/src/numerical/random/poisson/PoissonGeneratorInversionRatioOfUniformsWinrand.ipp
     6314  2012-07-02 06:07   Cain/src/numerical/random/poisson/PoissonGeneratorInversionRejectionPatchworkWinrand.h
     8398  2012-07-02 06:07   Cain/src/numerical/random/poisson/PoissonGeneratorInversionRejectionPatchworkWinrand.ipp
     3117  2012-07-02 06:07   Cain/src/numerical/random/poisson/PoissonGeneratorInversionTable.h
     1486  2012-07-02 06:07   Cain/src/numerical/random/poisson/PoissonGeneratorInversionTable.ipp
     5045  2012-07-02 06:07   Cain/src/numerical/random/poisson/PoissonGeneratorInversionTableAcceptanceComplementWinrand.h
     5989  2012-07-02 06:07   Cain/src/numerical/random/poisson/PoissonGeneratorInversionTableAcceptanceComplementWinrand.ipp
     5611  2012-07-02 06:07   Cain/src/numerical/random/poisson/PoissonGeneratorInvIfmAcNorm.h
     2948  2012-07-02 06:07   Cain/src/numerical/random/poisson/PoissonGeneratorInvIfmAcNorm.ipp
     3259  2012-07-02 06:07   Cain/src/numerical/random/poisson/PoissonGeneratorNormal.h
     4222  2012-07-02 06:07   Cain/src/numerical/random/poisson/PoissonGeneratorRanlib.h
     7894  2012-07-02 06:07   Cain/src/numerical/random/poisson/PoissonGeneratorRanlib.ipp
     3724  2012-07-02 06:07   Cain/src/numerical/random/poisson/PoissonGeneratorRejectionNr.h
     1402  2012-07-02 06:07   Cain/src/numerical/random/poisson/PoissonGeneratorRejectionNr.ipp
     3820  2012-07-02 06:07   Cain/src/numerical/random/poisson/PoissonGeneratorStochKit.h
    14881  2012-07-02 06:07   Cain/src/numerical/random/poisson/PoissonGeneratorStochKit.ipp
    56748  2012-07-02 06:07   Cain/src/numerical/random/poisson/poissonNormal.nb
     4011  2012-07-02 06:07   Cain/src/numerical/random/poisson/PoissonPdf.h
     1178  2012-07-02 06:07   Cain/src/numerical/random/poisson/PoissonPdf.ipp
     2184  2012-07-02 06:07   Cain/src/numerical/random/poisson/PoissonPdfAtTheMode.h
     3009  2012-07-02 06:07   Cain/src/numerical/random/poisson/PoissonPdfAtTheMode.ipp
     2328  2012-07-02 06:07   Cain/src/numerical/random/poisson/PoissonPdfCached.h
      772  2012-07-02 06:07   Cain/src/numerical/random/poisson/PoissonPdfCached.ipp
     2061  2012-07-02 06:07   Cain/src/numerical/random/poisson/PoissonPdfCdfAtTheMode.h
     4056  2012-07-02 06:07   Cain/src/numerical/random/poisson/PoissonPdfCdfAtTheMode.ipp
    21950  2012-07-02 06:07   Cain/src/numerical/random/poisson.h
        0  2012-07-02 06:07   Cain/src/numerical/random/uniform/
     6438  2012-07-02 06:07   Cain/src/numerical/random/uniform/ContinuousUniformGenerator.h
      492  2012-07-02 06:07   Cain/src/numerical/random/uniform/Default.h
     2820  2012-07-02 06:07   Cain/src/numerical/random/uniform/DiscreteUniformGeneratorMc32.h
     6347  2012-07-02 06:07   Cain/src/numerical/random/uniform/DiscreteUniformGeneratorMt19937.h
     2664  2012-07-02 06:07   Cain/src/numerical/random/uniform/DiscreteUniformGeneratorMt19937.ipp
     2076  2012-07-02 06:07   Cain/src/numerical/random/uniform/DiscreteUniformGeneratorNr0.h
      621  2012-07-02 06:07   Cain/src/numerical/random/uniform/DiscreteUniformGeneratorNr0.ipp
     2295  2012-07-02 06:07   Cain/src/numerical/random/uniform/DiscreteUniformGeneratorNr1.h
     1360  2012-07-02 06:07   Cain/src/numerical/random/uniform/DiscreteUniformGeneratorNr1.ipp
     2383  2012-07-02 06:07   Cain/src/numerical/random/uniform/DiscreteUniformGeneratorNr2.h
     1638  2012-07-02 06:07   Cain/src/numerical/random/uniform/DiscreteUniformGeneratorNr2.ipp
     3357  2012-07-02 06:07   Cain/src/numerical/random/uniform/DiscreteUniformGeneratorTt800.h
     1593  2012-07-02 06:07   Cain/src/numerical/random/uniform/DiscreteUniformGeneratorTt800.ipp
     6437  2012-07-02 06:07   Cain/src/numerical/random/uniform.h
     3388  2012-07-02 06:07   Cain/src/numerical/random.h
        0  2012-07-02 06:07   Cain/src/numerical/round/
      947  2012-07-02 06:07   Cain/src/numerical/round/ceil.h
      904  2012-07-02 06:07   Cain/src/numerical/round/floor.h
      899  2012-07-02 06:07   Cain/src/numerical/round/round.h
      290  2012-07-02 06:07   Cain/src/numerical/round.h
        0  2012-07-02 06:07   Cain/src/numerical/specialFunctions/
     2605  2012-07-02 06:07   Cain/src/numerical/specialFunctions/BinomialCoefficient.h
      963  2012-07-02 06:07   Cain/src/numerical/specialFunctions/BinomialCoefficient.ipp
      746  2012-07-02 06:07   Cain/src/numerical/specialFunctions/ErrorFunction.h
     1556  2012-07-02 06:07   Cain/src/numerical/specialFunctions/ErrorFunction.ipp
     3982  2012-07-02 06:07   Cain/src/numerical/specialFunctions/ExponentialForSmallArgument.h
     1538  2012-07-02 06:07   Cain/src/numerical/specialFunctions/ExponentialForSmallArgument.ipp
     1940  2012-07-02 06:07   Cain/src/numerical/specialFunctions/Factorial.h
      359  2012-07-02 06:07   Cain/src/numerical/specialFunctions/Factorial.ipp
     3203  2012-07-02 06:07   Cain/src/numerical/specialFunctions/Gamma.h
      568  2012-07-02 06:07   Cain/src/numerical/specialFunctions/Gamma.ipp
     2227  2012-07-02 06:07   Cain/src/numerical/specialFunctions/HarmonicNumber.h
      897  2012-07-02 06:07   Cain/src/numerical/specialFunctions/HarmonicNumber.ipp
     1863  2012-07-02 06:07   Cain/src/numerical/specialFunctions/LogarithmOfFactorial.h
      597  2012-07-02 06:07   Cain/src/numerical/specialFunctions/LogarithmOfFactorial.ipp
     2468  2012-07-02 06:07   Cain/src/numerical/specialFunctions/LogarithmOfFactorialCached.h
      635  2012-07-02 06:07   Cain/src/numerical/specialFunctions/LogarithmOfFactorialCached.ipp
     2678  2012-07-02 06:07   Cain/src/numerical/specialFunctions/LogarithmOfFactorialCachedDynamic.h
      790  2012-07-02 06:07   Cain/src/numerical/specialFunctions/LogarithmOfFactorialCachedDynamic.ipp
     1623  2012-07-02 06:07   Cain/src/numerical/specialFunctions.h
        0  2012-07-02 06:07   Cain/src/solvers/
   224738  2012-07-02 06:07   Cain/src/solvers/.sconsign.dblite
     2136  2012-07-02 06:07   Cain/src/solvers/env.py
     1596  2012-07-02 06:07   Cain/src/solvers/env.pyc
     7004  2012-07-02 06:07   Cain/src/solvers/HomogeneousDirect.ipp
      392  2012-07-02 06:07   Cain/src/solvers/HomogeneousDirect2DSearch.cc
     2350  2012-07-02 06:07   Cain/src/solvers/HomogeneousDirect2DSearch.d
      412  2012-07-02 06:07   Cain/src/solvers/HomogeneousDirect2DSearchBubbleSort.cc
     2696  2012-07-02 06:07   Cain/src/solvers/HomogeneousDirect2DSearchBubbleSort.d
      404  2012-07-02 06:07   Cain/src/solvers/HomogeneousDirect2DSearchSorted.cc
     2750  2012-07-02 06:07   Cain/src/solvers/HomogeneousDirect2DSearchSorted.d
     7300  2012-07-02 06:07   Cain/src/solvers/HomogeneousDirectAllReactions.ipp
      428  2012-07-02 06:07   Cain/src/solvers/HomogeneousDirectAllReactions2DSearch.cc
     2405  2012-07-02 06:07   Cain/src/solvers/HomogeneousDirectAllReactions2DSearch.d
      401  2012-07-02 06:07   Cain/src/solvers/HomogeneousDirectBinarySearch.cc
     2080  2012-07-02 06:07   Cain/src/solvers/HomogeneousDirectBinarySearch.d
      425  2012-07-02 06:07   Cain/src/solvers/HomogeneousDirectBinarySearchRecursiveCdf.cc
     2169  2012-07-02 06:07   Cain/src/solvers/HomogeneousDirectBinarySearchRecursiveCdf.d
      460  2012-07-02 06:07   Cain/src/solvers/HomogeneousDirectBinarySearchSorted.cc
     2589  2012-07-02 06:07   Cain/src/solvers/HomogeneousDirectBinarySearchSorted.d
      417  2012-07-02 06:07   Cain/src/solvers/HomogeneousDirectCompositionRejection.cc
     2372  2012-07-02 06:07   Cain/src/solvers/HomogeneousDirectCompositionRejection.d
      401  2012-07-02 06:07   Cain/src/solvers/HomogeneousDirectLinearSearch.cc
     2346  2012-07-02 06:07   Cain/src/solvers/HomogeneousDirectLinearSearch.d
      421  2012-07-02 06:07   Cain/src/solvers/HomogeneousDirectLinearSearchBubbleSort.cc
     2640  2012-07-02 06:07   Cain/src/solvers/HomogeneousDirectLinearSearchBubbleSort.d
      427  2012-07-02 06:07   Cain/src/solvers/HomogeneousDirectLinearSearchDelayedUpdate.cc
     2354  2012-07-02 06:07   Cain/src/solvers/HomogeneousDirectLinearSearchDelayedUpdate.d
      441  2012-07-02 06:07   Cain/src/solvers/HomogeneousDirectLinearSearchSorted.cc
     2761  2012-07-02 06:07   Cain/src/solvers/HomogeneousDirectLinearSearchSorted.d
      425  2012-07-02 06:07   Cain/src/solvers/HomogeneousDirectRejectionBinsSplitting.cc
     2831  2012-07-02 06:07   Cain/src/solvers/HomogeneousDirectRejectionBinsSplitting.d
      605  2012-07-02 06:07   Cain/src/solvers/HomogeneousFirstReaction.cc
     1771  2012-07-02 06:07   Cain/src/solvers/HomogeneousFirstReaction.d
     5711  2012-07-02 06:07   Cain/src/solvers/HomogeneousFirstReaction.ipp
      663  2012-07-02 06:07   Cain/src/solvers/HomogeneousFirstReactionAbsoluteTime.cc
     1838  2012-07-02 06:07   Cain/src/solvers/HomogeneousFirstReactionAbsoluteTime.d
      657  2012-07-02 06:07   Cain/src/solvers/HomogeneousFirstReactionInfluence.cc
     1885  2012-07-02 06:07   Cain/src/solvers/HomogeneousFirstReactionInfluence.d
     5212  2012-07-02 06:07   Cain/src/solvers/HomogeneousHistogramFinalHypoexponentialDirect.ipp
      336  2012-07-02 06:07   Cain/src/solvers/HomogeneousHistogramFinalHypoexponentialDirect2DSearch.cc
     2285  2012-07-02 06:07   Cain/src/solvers/HomogeneousHistogramFinalHypoexponentialDirect2DSearch.d
      425  2012-07-02 06:07   Cain/src/solvers/HomogeneousHistogramsAverage.cc
     2578  2012-07-02 06:07   Cain/src/solvers/HomogeneousHistogramsAverage.d
     5399  2012-07-02 06:07   Cain/src/solvers/HomogeneousHistogramsAverage.ipp
      434  2012-07-02 06:07   Cain/src/solvers/HomogeneousHistogramsAverageAps.cc
     2597  2012-07-02 06:07   Cain/src/solvers/HomogeneousHistogramsAverageAps.d
     5408  2012-07-02 06:07   Cain/src/solvers/HomogeneousHistogramsAverageAps.ipp
      458  2012-07-02 06:07   Cain/src/solvers/HomogeneousHistogramsAverageElapsedTime.cc
     2684  2012-07-02 06:07   Cain/src/solvers/HomogeneousHistogramsAverageElapsedTime.d
     5432  2012-07-02 06:07   Cain/src/solvers/HomogeneousHistogramsAverageElapsedTime.ipp
     4982  2012-07-02 06:07   Cain/src/solvers/HomogeneousHistogramsDirect.ipp
      422  2012-07-02 06:07   Cain/src/solvers/HomogeneousHistogramsDirect2DSearch.cc
     2575  2012-07-02 06:07   Cain/src/solvers/HomogeneousHistogramsDirect2DSearch.d
      434  2012-07-02 06:07   Cain/src/solvers/HomogeneousHistogramsDirectTree.cc
     2568  2012-07-02 06:07   Cain/src/solvers/HomogeneousHistogramsDirectTree.d
     5183  2012-07-02 06:07   Cain/src/solvers/HomogeneousHistogramsDirectTree.ipp
     5148  2012-07-02 06:07   Cain/src/solvers/HomogeneousHistogramsMultiTimeDirect.ipp
      449  2012-07-02 06:07   Cain/src/solvers/HomogeneousHistogramsMultiTimeDirect2DSearch.cc
     2624  2012-07-02 06:07   Cain/src/solvers/HomogeneousHistogramsMultiTimeDirect2DSearch.d
     4785  2012-07-02 06:07   Cain/src/solvers/HomogeneousHistogramsTransientDirect.ipp
     1021  2012-07-02 06:07   Cain/src/solvers/HomogeneousHistogramsTransientDirectTreeExponentialLast.cc
     2729  2012-07-02 06:07   Cain/src/solvers/HomogeneousHistogramsTransientDirectTreeExponentialLast.d
     1023  2012-07-02 06:07   Cain/src/solvers/HomogeneousHistogramsTransientDirectTreeExponentialLimit.cc
     2733  2012-07-02 06:07   Cain/src/solvers/HomogeneousHistogramsTransientDirectTreeExponentialLimit.d
     1067  2012-07-02 06:07   Cain/src/solvers/HomogeneousHistogramsTransientDirectTreeHypoexponentialLimit.cc
     2865  2012-07-02 06:07   Cain/src/solvers/HomogeneousHistogramsTransientDirectTreeHypoexponentialLimit.d
     1065  2012-07-02 06:07   Cain/src/solvers/HomogeneousHistogramsTransientDirectTreeNormalApproximation.cc
     2848  2012-07-02 06:07   Cain/src/solvers/HomogeneousHistogramsTransientDirectTreeNormalApproximation.d
     4874  2012-07-02 06:07   Cain/src/solvers/HomogeneousHybridDirectTauLeaping.ipp
      181  2012-07-02 06:07   Cain/src/solvers/HomogeneousHybridDirectTauLeapingForward.cc
     3456  2012-07-02 06:07   Cain/src/solvers/HomogeneousHybridDirectTauLeapingForward.d
      182  2012-07-02 06:07   Cain/src/solvers/HomogeneousHybridDirectTauLeapingMidpoint.cc
     3459  2012-07-02 06:07   Cain/src/solvers/HomogeneousHybridDirectTauLeapingMidpoint.d
      187  2012-07-02 06:07   Cain/src/solvers/HomogeneousHybridDirectTauLeapingRungeKutta4.cc
     3468  2012-07-02 06:07   Cain/src/solvers/HomogeneousHybridDirectTauLeapingRungeKutta4.d
     6885  2012-07-02 06:07   Cain/src/solvers/HomogeneousNextReaction.ipp
      310  2012-07-02 06:07   Cain/src/solvers/HomogeneousNextReactionBinaryHeapGibsonBruck.cc
     2350  2012-07-02 06:07   Cain/src/solvers/HomogeneousNextReactionBinaryHeapGibsonBruck.d
      281  2012-07-02 06:07   Cain/src/solvers/HomogeneousNextReactionBinaryHeapPair.cc
     2329  2012-07-02 06:07   Cain/src/solvers/HomogeneousNextReactionBinaryHeapPair.d
      273  2012-07-02 06:07   Cain/src/solvers/HomogeneousNextReactionBinaryHeapPointer.cc
     2334  2012-07-02 06:07   Cain/src/solvers/HomogeneousNextReactionBinaryHeapPointer.d
      284  2012-07-02 06:07   Cain/src/solvers/HomogeneousNextReactionHashing.cc
     2354  2012-07-02 06:07   Cain/src/solvers/HomogeneousNextReactionHashing.d
      484  2012-07-02 06:07   Cain/src/solvers/HomogeneousNextReactionHashingGenericList.cc
     2447  2012-07-02 06:07   Cain/src/solvers/HomogeneousNextReactionHashingGenericList.d
      446  2012-07-02 06:07   Cain/src/solvers/HomogeneousNextReactionHashingGenericVector.cc
     2453  2012-07-02 06:07   Cain/src/solvers/HomogeneousNextReactionHashingGenericVector.d
      417  2012-07-02 06:07   Cain/src/solvers/HomogeneousNextReactionHashingVector.cc
     2431  2012-07-02 06:07   Cain/src/solvers/HomogeneousNextReactionHashingVector.d
      289  2012-07-02 06:07   Cain/src/solvers/HomogeneousNextReactionLinearSearch.cc
     2388  2012-07-02 06:07   Cain/src/solvers/HomogeneousNextReactionLinearSearch.d
      277  2012-07-02 06:07   Cain/src/solvers/HomogeneousNextReactionLinearSearchPointer.cc
     2269  2012-07-02 06:07   Cain/src/solvers/HomogeneousNextReactionLinearSearchPointer.d
      293  2012-07-02 06:07   Cain/src/solvers/HomogeneousNextReactionLinearSearchUnrolled.cc
     2489  2012-07-02 06:07   Cain/src/solvers/HomogeneousNextReactionLinearSearchUnrolled.d
      342  2012-07-02 06:07   Cain/src/solvers/HomogeneousNextReactionPartitionCostAdaptive.cc
     2445  2012-07-02 06:07   Cain/src/solvers/HomogeneousNextReactionPartitionCostAdaptive.d
      313  2012-07-02 06:07   Cain/src/solvers/HomogeneousNextReactionPartitionFixedSize.cc
     2433  2012-07-02 06:07   Cain/src/solvers/HomogeneousNextReactionPartitionFixedSize.d
      319  2012-07-02 06:07   Cain/src/solvers/HomogeneousNextReactionPartitionPropensities.cc
     2445  2012-07-02 06:07   Cain/src/solvers/HomogeneousNextReactionPartitionPropensities.d
      342  2012-07-02 06:07   Cain/src/solvers/HomogeneousNextReactionPartitionSizeAdaptive.cc
     2445  2012-07-02 06:07   Cain/src/solvers/HomogeneousNextReactionPartitionSizeAdaptive.d
     5525  2012-07-02 06:07   Cain/src/solvers/HomogeneousOdeReaction.ipp
      162  2012-07-02 06:07   Cain/src/solvers/HomogeneousOdeReactionFixedForward.cc
     1151  2012-07-02 06:07   Cain/src/solvers/HomogeneousOdeReactionFixedForward.d
      163  2012-07-02 06:07   Cain/src/solvers/HomogeneousOdeReactionFixedMidpoint.cc
     1154  2012-07-02 06:07   Cain/src/solvers/HomogeneousOdeReactionFixedMidpoint.d
      168  2012-07-02 06:07   Cain/src/solvers/HomogeneousOdeReactionFixedRungeKutta4.cc
     1163  2012-07-02 06:07   Cain/src/solvers/HomogeneousOdeReactionFixedRungeKutta4.d
      176  2012-07-02 06:07   Cain/src/solvers/HomogeneousOdeReactionFixedRungeKuttaCashKarp.cc
     1188  2012-07-02 06:07   Cain/src/solvers/HomogeneousOdeReactionFixedRungeKuttaCashKarp.d
      162  2012-07-02 06:07   Cain/src/solvers/HomogeneousOdeReactionRungeKuttaCashKarp.cc
     1169  2012-07-02 06:07   Cain/src/solvers/HomogeneousOdeReactionRungeKuttaCashKarp.d
     5293  2012-07-02 06:07   Cain/src/solvers/HomogeneousTauLeaping.ipp
      207  2012-07-02 06:07   Cain/src/solvers/HomogeneousTauLeapingFixedForward.cc
     2813  2012-07-02 06:07   Cain/src/solvers/HomogeneousTauLeapingFixedForward.d
      208  2012-07-02 06:07   Cain/src/solvers/HomogeneousTauLeapingFixedMidpoint.cc
     2816  2012-07-02 06:07   Cain/src/solvers/HomogeneousTauLeapingFixedMidpoint.d
      213  2012-07-02 06:07   Cain/src/solvers/HomogeneousTauLeapingFixedRungeKutta4.cc
     2825  2012-07-02 06:07   Cain/src/solvers/HomogeneousTauLeapingFixedRungeKutta4.d
      192  2012-07-02 06:07   Cain/src/solvers/HomogeneousTauLeapingForward.cc
     2799  2012-07-02 06:07   Cain/src/solvers/HomogeneousTauLeapingForward.d
      193  2012-07-02 06:07   Cain/src/solvers/HomogeneousTauLeapingForwardNoCorrection.cc
     2834  2012-07-02 06:07   Cain/src/solvers/HomogeneousTauLeapingForwardNoCorrection.d
     4213  2012-07-02 06:07   Cain/src/solvers/HomogeneousTauLeapingImplicit.ipp
      167  2012-07-02 06:07   Cain/src/solvers/HomogeneousTauLeapingImplicitFixedEuler.cc
     6103  2012-07-02 06:07   Cain/src/solvers/HomogeneousTauLeapingImplicitFixedEuler.d
      193  2012-07-02 06:07   Cain/src/solvers/HomogeneousTauLeapingMidpoint.cc
     2802  2012-07-02 06:07   Cain/src/solvers/HomogeneousTauLeapingMidpoint.d
      194  2012-07-02 06:07   Cain/src/solvers/HomogeneousTauLeapingMidpointNoCorrection.cc
     2837  2012-07-02 06:07   Cain/src/solvers/HomogeneousTauLeapingMidpointNoCorrection.d
      198  2012-07-02 06:07   Cain/src/solvers/HomogeneousTauLeapingRungeKutta4.cc
     2811  2012-07-02 06:07   Cain/src/solvers/HomogeneousTauLeapingRungeKutta4.d
      199  2012-07-02 06:07   Cain/src/solvers/HomogeneousTauLeapingRungeKutta4NoCorrection.cc
     2850  2012-07-02 06:07   Cain/src/solvers/HomogeneousTauLeapingRungeKutta4NoCorrection.d
     4772  2012-07-02 06:07   Cain/src/solvers/HomogeneousTauLeapingSal.ipp
      152  2012-07-02 06:07   Cain/src/solvers/HomogeneousTauLeapingSalFixedLinear.cc
     2874  2012-07-02 06:07   Cain/src/solvers/HomogeneousTauLeapingSalFixedLinear.d
      137  2012-07-02 06:07   Cain/src/solvers/HomogeneousTauLeapingSalLinear.cc
     2860  2012-07-02 06:07   Cain/src/solvers/HomogeneousTauLeapingSalLinear.d
     5198  2012-07-02 06:07   Cain/src/solvers/HomogeneousTrajectoryTreeFull.cc
     1959  2012-07-02 06:07   Cain/src/solvers/HomogeneousTrajectoryTreeFull.d
     4236  2012-07-02 06:07   Cain/src/solvers/InhomogeneousHistogramsSteadyStateDirectTimeSteps.cc
     4004  2012-07-02 06:07   Cain/src/solvers/InhomogeneousHistogramsTransientDirect.cc
     4393  2012-07-02 06:07   Cain/src/solvers/InhomogeneousOdeReactionRungeKuttaCashKarp.cc
     5054  2012-07-02 06:07   Cain/src/solvers/InhomogeneousTimeSeriesAllReactionsDirect.cc
     4708  2012-07-02 06:07   Cain/src/solvers/InhomogeneousTimeSeriesUniformDirect.cc
     2744  2012-07-02 06:07   Cain/src/solvers/input.ipp
     1275  2012-07-02 06:07   Cain/src/solvers/Makefile
        0  2012-07-02 06:07   __MACOSX/Cain/src/solvers/
      171  2012-07-02 06:07   __MACOSX/Cain/src/solvers/._Makefile
     3203  2012-07-02 06:07   Cain/src/solvers/Makefile.compilers
     1047  2012-07-02 06:07   Cain/src/solvers/msvs.py
     2339  2012-07-02 06:07   Cain/src/solvers/Propensities.h
      320  2012-07-02 06:07   Cain/src/solvers/SConstruct
     4043  2012-07-02 06:07   Cain/src/solvers/vc10vars32.bat
       31  2012-07-02 06:07   Cain/src/solvers/vcvars32.bat
        0  2012-07-02 06:07   Cain/src/stochastic/
     2630  2012-07-02 06:07   Cain/src/stochastic/api.h
    11808  2012-07-02 06:07   Cain/src/stochastic/api.ipp
     9751  2012-07-02 06:07   Cain/src/stochastic/Direct.h
     2403  2012-07-02 06:07   Cain/src/stochastic/Direct.ipp
     2868  2012-07-02 06:07   Cain/src/stochastic/Erlang.nb
     8132  2012-07-02 06:07   Cain/src/stochastic/EssTerminationCondition.h
     4326  2012-07-02 06:07   Cain/src/stochastic/FirstReaction.h
     2868  2012-07-02 06:07   Cain/src/stochastic/FirstReaction.ipp
     5572  2012-07-02 06:07   Cain/src/stochastic/FirstReactionAbsoluteTime.h
     2594  2012-07-02 06:07   Cain/src/stochastic/FirstReactionAbsoluteTime.ipp
     5712  2012-07-02 06:07   Cain/src/stochastic/FirstReactionInfluence.h
     2187  2012-07-02 06:07   Cain/src/stochastic/FirstReactionInfluence.ipp
     9829  2012-07-02 06:07   Cain/src/stochastic/HistogramFinalHypoexponentialDirect.h
    16144  2012-07-02 06:07   Cain/src/stochastic/HistogramReference.h
     5631  2012-07-02 06:07   Cain/src/stochastic/HistogramsAverage.h
     7702  2012-07-02 06:07   Cain/src/stochastic/HistogramsAverageAps.h
     4779  2012-07-02 06:07   Cain/src/stochastic/HistogramsAverageBase.h
     8769  2012-07-02 06:07   Cain/src/stochastic/HistogramsAverageElapsedMultiTime.h
     7167  2012-07-02 06:07   Cain/src/stochastic/HistogramsAverageElapsedTime.h
     7426  2012-07-02 06:07   Cain/src/stochastic/HistogramsAverageMultiTime.h
     4907  2012-07-02 06:07   Cain/src/stochastic/HistogramsAveragePacked.h
     7065  2012-07-02 06:07   Cain/src/stochastic/HistogramsAveragePackedArray.h
     4134  2012-07-02 06:07   Cain/src/stochastic/HistogramsAveragePackedDouble.h
     4517  2012-07-02 06:07   Cain/src/stochastic/HistogramsBase.h
     5930  2012-07-02 06:07   Cain/src/stochastic/HistogramsDirect.h
    13311  2012-07-02 06:07   Cain/src/stochastic/HistogramsDirectTree.h
     7921  2012-07-02 06:07   Cain/src/stochastic/HistogramsMultiTimeDirect.h
     5461  2012-07-02 06:07   Cain/src/stochastic/HistogramsPacked.h
     7621  2012-07-02 06:07   Cain/src/stochastic/HistogramsPackedArray.h
     4357  2012-07-02 06:07   Cain/src/stochastic/HistogramsPackedDouble.h
    10326  2012-07-02 06:07   Cain/src/stochastic/HomogeneousHistogramsTransientDirectTreeExponentialLast.h
    11175  2012-07-02 06:07   Cain/src/stochastic/HomogeneousHistogramsTransientDirectTreeExponentialLimit.h
     9721  2012-07-02 06:07   Cain/src/stochastic/HomogeneousHistogramsTransientDirectTreeHypoexponentialLimit.h
    11795  2012-07-02 06:07   Cain/src/stochastic/HomogeneousHistogramsTransientDirectTreeNormalApproximation.h
     8684  2012-07-02 06:07   Cain/src/stochastic/HybridDirectTauLeaping.h
    11071  2012-07-02 06:07   Cain/src/stochastic/HybridDirectTauLeaping.ipp
   110532  2012-07-02 06:07   Cain/src/stochastic/Hypoexponential.nb
     8480  2012-07-02 06:07   Cain/src/stochastic/InhomogeneousDirect.h
     5236  2012-07-02 06:07   Cain/src/stochastic/InhomogeneousHistogramsSteadyStateDirect.h
     5434  2012-07-02 06:07   Cain/src/stochastic/InhomogeneousHistogramsTransientDirect.h
     3619  2012-07-02 06:07   Cain/src/stochastic/InhomogeneousTimeSeriesAllReactionsDirect.h
     1601  2012-07-02 06:07   Cain/src/stochastic/InhomogeneousTimeSeriesUniformDirect.h
     2113  2012-07-02 06:07   Cain/src/stochastic/modifiedRecordedSpecies.h
     6521  2012-07-02 06:07   Cain/src/stochastic/NextReaction.h
     4649  2012-07-02 06:07   Cain/src/stochastic/NextReaction.ipp
     5862  2012-07-02 06:07   Cain/src/stochastic/OdeReaction.h
    19943  2012-07-02 06:07   Cain/src/stochastic/OdeReaction.ipp
        0  2012-07-02 06:07   Cain/src/stochastic/old/
    11223  2012-07-02 06:07   Cain/src/stochastic/old/StateThreaded.h
     8542  2012-07-02 06:07   Cain/src/stochastic/old/StateThreaded.ipp
     1332  2012-07-02 06:07   Cain/src/stochastic/old/tauLeapingConcurrent.h
     8465  2012-07-02 06:07   Cain/src/stochastic/old/tauLeapingConcurrent.ipp
     3577  2012-07-02 06:07   Cain/src/stochastic/old/TauLeapingData.h
     4569  2012-07-02 06:07   Cain/src/stochastic/old/TauLeapingData.ipp
     6076  2012-07-02 06:07   Cain/src/stochastic/old/TauLeapingOld.h
    16207  2012-07-02 06:07   Cain/src/stochastic/old/TauLeapingOld.ipp
     3345  2012-07-02 06:07   Cain/src/stochastic/old/TauLeapingSerial.h
     3111  2012-07-02 06:07   Cain/src/stochastic/old/TauLeapingSerial.ipp
     4129  2012-07-02 06:07   Cain/src/stochastic/old/TauLeapingThreaded.h
     3133  2012-07-02 06:07   Cain/src/stochastic/old/TauLeapingThreaded.ipp
     3428  2012-07-02 06:07   Cain/src/stochastic/Propensities.h
     2556  2012-07-02 06:07   Cain/src/stochastic/PropensitiesInhomogeneous.h
        0  2012-07-02 06:07   __MACOSX/Cain/src/stochastic/
      171  2012-07-02 06:07   __MACOSX/Cain/src/stochastic/._PropensitiesInhomogeneous.h
     1980  2012-07-02 06:07   Cain/src/stochastic/PropensityTimeDerivatives.h
    17102  2012-07-02 06:07   Cain/src/stochastic/Reaction.h
     8279  2012-07-02 06:07   Cain/src/stochastic/Reaction.ipp
     5776  2012-07-02 06:07   Cain/src/stochastic/ReactionPriorityQueue.h
     1238  2012-07-02 06:07   Cain/src/stochastic/reactionPropensityInfluence.h
     6261  2012-07-02 06:07   Cain/src/stochastic/reactionPropensityInfluence.ipp
     7782  2012-07-02 06:07   Cain/src/stochastic/ReactionSet.h
     3256  2012-07-02 06:07   Cain/src/stochastic/ReactionSet.ipp
     2905  2012-07-02 06:07   Cain/src/stochastic/Solver.h
     9780  2012-07-02 06:07   Cain/src/stochastic/State.h
     3614  2012-07-02 06:07   Cain/src/stochastic/State.ipp
    55389  2012-07-02 06:07   Cain/src/stochastic/stochastic.h
     8568  2012-07-02 06:07   Cain/src/stochastic/TauLeaping.h
    18719  2012-07-02 06:07   Cain/src/stochastic/TauLeaping.ipp
     8748  2012-07-02 06:07   Cain/src/stochastic/TauLeapingDynamic.h
     5235  2012-07-02 06:07   Cain/src/stochastic/TauLeapingDynamic.ipp
     4395  2012-07-02 06:07   Cain/src/stochastic/TauLeapingImplicit.h
     5943  2012-07-02 06:07   Cain/src/stochastic/TauLeapingImplicit.ipp
     5074  2012-07-02 06:07   Cain/src/stochastic/TauLeapingSal.h
     6478  2012-07-02 06:07   Cain/src/stochastic/TauLeapingSal.ipp
     7481  2012-07-02 06:07   Cain/src/stochastic/TerminationCondition.h
     4284  2012-07-02 06:07   Cain/src/stochastic/TimeEpochOffset.h
    12055  2012-07-02 06:07   Cain/src/stochastic/TrajectoryTreeFull.h
        0  2012-07-02 06:07   Cain/src/third-party/
        0  2012-07-02 06:07   Cain/src/third-party/Eigen/
     1156  2012-07-02 06:07   Cain/src/third-party/Eigen/Array
     1988  2012-07-02 06:07   Cain/src/third-party/Eigen/Cholesky
      827  2012-07-02 06:07   Cain/src/third-party/Eigen/CMakeLists.txt
     4710  2012-07-02 06:07   Cain/src/third-party/Eigen/Core
      140  2012-07-02 06:07   Cain/src/third-party/Eigen/Dense
       35  2012-07-02 06:07   Cain/src/third-party/Eigen/Eigen
     1269  2012-07-02 06:07   Cain/src/third-party/Eigen/Geometry
      523  2012-07-02 06:07   Cain/src/third-party/Eigen/LeastSquares
      634  2012-07-02 06:07   Cain/src/third-party/Eigen/LU
     6454  2012-07-02 06:07   Cain/src/third-party/Eigen/NewStdVector
     2257  2012-07-02 06:07   Cain/src/third-party/Eigen/QR
      934  2012-07-02 06:07   Cain/src/third-party/Eigen/QtAlignedMalloc
     2803  2012-07-02 06:07   Cain/src/third-party/Eigen/Sparse
        0  2012-07-02 06:07   Cain/src/third-party/Eigen/src/
        0  2012-07-02 06:07   Cain/src/third-party/Eigen/src/Array/
     4167  2012-07-02 06:07   Cain/src/third-party/Eigen/src/Array/BooleanRedux.h
      128  2012-07-02 06:07   Cain/src/third-party/Eigen/src/Array/CMakeLists.txt
    14632  2012-07-02 06:07   Cain/src/third-party/Eigen/src/Array/CwiseOperators.h
    10522  2012-07-02 06:07   Cain/src/third-party/Eigen/src/Array/Functors.h
     2833  2012-07-02 06:07   Cain/src/third-party/Eigen/src/Array/Norms.h
    13745  2012-07-02 06:07   Cain/src/third-party/Eigen/src/Array/PartialRedux.h
     5878  2012-07-02 06:07   Cain/src/third-party/Eigen/src/Array/Random.h
     6480  2012-07-02 06:07   Cain/src/third-party/Eigen/src/Array/Select.h
        0  2012-07-02 06:07   Cain/src/third-party/Eigen/src/Cholesky/
     1380  2012-07-02 06:07   Cain/src/third-party/Eigen/src/Cholesky/CholeskyInstantiations.cpp
      137  2012-07-02 06:07   Cain/src/third-party/Eigen/src/Cholesky/CMakeLists.txt
     7061  2012-07-02 06:07   Cain/src/third-party/Eigen/src/Cholesky/LDLT.h
     7961  2012-07-02 06:07   Cain/src/third-party/Eigen/src/Cholesky/LLT.h
      221  2012-07-02 06:07   Cain/src/third-party/Eigen/src/CMakeLists.txt
        0  2012-07-02 06:07   Cain/src/third-party/Eigen/src/Core/
        0  2012-07-02 06:07   Cain/src/third-party/Eigen/src/Core/arch/
        0  2012-07-02 06:07   Cain/src/third-party/Eigen/src/Core/arch/AltiVec/
      161  2012-07-02 06:07   Cain/src/third-party/Eigen/src/Core/arch/AltiVec/CMakeLists.txt
    12343  2012-07-02 06:07   Cain/src/third-party/Eigen/src/Core/arch/AltiVec/PacketMath.h
       47  2012-07-02 06:07   Cain/src/third-party/Eigen/src/Core/arch/CMakeLists.txt
        0  2012-07-02 06:07   Cain/src/third-party/Eigen/src/Core/arch/SSE/
      149  2012-07-02 06:07   Cain/src/third-party/Eigen/src/Core/arch/SSE/CMakeLists.txt
    14055  2012-07-02 06:07   Cain/src/third-party/Eigen/src/Core/arch/SSE/PacketMath.h
    17455  2012-07-02 06:07   Cain/src/third-party/Eigen/src/Core/Assign.h
    29711  2012-07-02 06:07   Cain/src/third-party/Eigen/src/Core/Block.h
    29879  2012-07-02 06:07   Cain/src/third-party/Eigen/src/Core/CacheFriendlyProduct.h
      172  2012-07-02 06:07   Cain/src/third-party/Eigen/src/Core/CMakeLists.txt
    15215  2012-07-02 06:07   Cain/src/third-party/Eigen/src/Core/Coeffs.h
     5606  2012-07-02 06:07   Cain/src/third-party/Eigen/src/Core/CommaInitializer.h
     1774  2012-07-02 06:07   Cain/src/third-party/Eigen/src/Core/CoreInstantiations.cpp
     8031  2012-07-02 06:07   Cain/src/third-party/Eigen/src/Core/Cwise.h
    12233  2012-07-02 06:07   Cain/src/third-party/Eigen/src/Core/CwiseBinaryOp.h
    26125  2012-07-02 06:07   Cain/src/third-party/Eigen/src/Core/CwiseNullaryOp.h
     7630  2012-07-02 06:07   Cain/src/third-party/Eigen/src/Core/CwiseUnaryOp.h
     4193  2012-07-02 06:07   Cain/src/third-party/Eigen/src/Core/DiagonalCoeffs.h
     5093  2012-07-02 06:07   Cain/src/third-party/Eigen/src/Core/DiagonalMatrix.h
     5048  2012-07-02 06:07   Cain/src/third-party/Eigen/src/Core/DiagonalProduct.h
    12669  2012-07-02 06:07   Cain/src/third-party/Eigen/src/Core/Dot.h
     4802  2012-07-02 06:07   Cain/src/third-party/Eigen/src/Core/Flagged.h
    15864  2012-07-02 06:07   Cain/src/third-party/Eigen/src/Core/Functors.h
     9758  2012-07-02 06:07   Cain/src/third-party/Eigen/src/Core/Fuzzy.h
     5777  2012-07-02 06:07   Cain/src/third-party/Eigen/src/Core/GenericPacketMath.h
     6024  2012-07-02 06:07   Cain/src/third-party/Eigen/src/Core/IO.h
     4174  2012-07-02 06:07   Cain/src/third-party/Eigen/src/Core/Map.h
     7587  2012-07-02 06:07   Cain/src/third-party/Eigen/src/Core/MapBase.h
    11867  2012-07-02 06:07   Cain/src/third-party/Eigen/src/Core/MathFunctions.h
    27208  2012-07-02 06:07   Cain/src/third-party/Eigen/src/Core/Matrix.h
    28743  2012-07-02 06:07   Cain/src/third-party/Eigen/src/Core/MatrixBase.h
     9878  2012-07-02 06:07   Cain/src/third-party/Eigen/src/Core/MatrixStorage.h
     4175  2012-07-02 06:07   Cain/src/third-party/Eigen/src/Core/Minor.h
     3686  2012-07-02 06:07   Cain/src/third-party/Eigen/src/Core/NestByValue.h
     4064  2012-07-02 06:07   Cain/src/third-party/Eigen/src/Core/NumTraits.h
    13848  2012-07-02 06:07   Cain/src/third-party/Eigen/src/Core/Part.h
    32868  2012-07-02 06:07   Cain/src/third-party/Eigen/src/Core/Product.h
     4145  2012-07-02 06:07   Cain/src/third-party/Eigen/src/Core/Redux.h
    13299  2012-07-02 06:07   Cain/src/third-party/Eigen/src/Core/SolveTriangular.h
     8558  2012-07-02 06:07   Cain/src/third-party/Eigen/src/Core/Sum.h
     5094  2012-07-02 06:07   Cain/src/third-party/Eigen/src/Core/Swap.h
     7629  2012-07-02 06:07   Cain/src/third-party/Eigen/src/Core/Transpose.h
        0  2012-07-02 06:07   Cain/src/third-party/Eigen/src/Core/util/
      141  2012-07-02 06:07   Cain/src/third-party/Eigen/src/Core/util/CMakeLists.txt
    10323  2012-07-02 06:07   Cain/src/third-party/Eigen/src/Core/util/Constants.h
      106  2012-07-02 06:07   Cain/src/third-party/Eigen/src/Core/util/DisableMSVCWarnings.h
       49  2012-07-02 06:07   Cain/src/third-party/Eigen/src/Core/util/EnableMSVCWarnings.h
     6033  2012-07-02 06:07   Cain/src/third-party/Eigen/src/Core/util/ForwardDeclarations.h
    10057  2012-07-02 06:07   Cain/src/third-party/Eigen/src/Core/util/Macros.h
    14568  2012-07-02 06:07   Cain/src/third-party/Eigen/src/Core/util/Memory.h
     8064  2012-07-02 06:07   Cain/src/third-party/Eigen/src/Core/util/Meta.h
     6491  2012-07-02 06:07   Cain/src/third-party/Eigen/src/Core/util/StaticAssert.h
     9374  2012-07-02 06:07   Cain/src/third-party/Eigen/src/Core/util/XprHelper.h
     6731  2012-07-02 06:07   Cain/src/third-party/Eigen/src/Core/Visitor.h
        0  2012-07-02 06:07   Cain/src/third-party/Eigen/src/Geometry/
     6884  2012-07-02 06:07   Cain/src/third-party/Eigen/src/Geometry/AlignedBox.h
     7715  2012-07-02 06:07   Cain/src/third-party/Eigen/src/Geometry/AngleAxis.h
      137  2012-07-02 06:07   Cain/src/third-party/Eigen/src/Geometry/CMakeLists.txt
     3297  2012-07-02 06:07   Cain/src/third-party/Eigen/src/Geometry/EulerAngles.h
    11220  2012-07-02 06:07   Cain/src/third-party/Eigen/src/Geometry/Hyperplane.h
     4591  2012-07-02 06:07   Cain/src/third-party/Eigen/src/Geometry/OrthoMethods.h
     6401  2012-07-02 06:07   Cain/src/third-party/Eigen/src/Geometry/ParametrizedLine.h
    18563  2012-07-02 06:07   Cain/src/third-party/Eigen/src/Geometry/Quaternion.h
     5659  2012-07-02 06:07   Cain/src/third-party/Eigen/src/Geometry/Rotation2D.h
     5312  2012-07-02 06:07   Cain/src/third-party/Eigen/src/Geometry/RotationBase.h
     6377  2012-07-02 06:07   Cain/src/third-party/Eigen/src/Geometry/Scaling.h
    28599  2012-07-02 06:07   Cain/src/third-party/Eigen/src/Geometry/Transform.h
     6797  2012-07-02 06:07   Cain/src/third-party/Eigen/src/Geometry/Translation.h
        0  2012-07-02 06:07   Cain/src/third-party/Eigen/src/LeastSquares/
      150  2012-07-02 06:07   Cain/src/third-party/Eigen/src/LeastSquares/CMakeLists.txt
     7738  2012-07-02 06:07   Cain/src/third-party/Eigen/src/LeastSquares/LeastSquares.h
        0  2012-07-02 06:07   Cain/src/third-party/Eigen/src/LU/
      120  2012-07-02 06:07   Cain/src/third-party/Eigen/src/LU/CMakeLists.txt
     4095  2012-07-02 06:07   Cain/src/third-party/Eigen/src/LU/Determinant.h
    14046  2012-07-02 06:07   Cain/src/third-party/Eigen/src/LU/Inverse.h
    21504  2012-07-02 06:07   Cain/src/third-party/Eigen/src/LU/LU.h
        0  2012-07-02 06:07   Cain/src/third-party/Eigen/src/QR/
      119  2012-07-02 06:07   Cain/src/third-party/Eigen/src/QR/CMakeLists.txt
    21569  2012-07-02 06:07   Cain/src/third-party/Eigen/src/QR/EigenSolver.h
     8662  2012-07-02 06:07   Cain/src/third-party/Eigen/src/QR/HessenbergDecomposition.h
    11744  2012-07-02 06:07   Cain/src/third-party/Eigen/src/QR/QR.h
     1751  2012-07-02 06:07   Cain/src/third-party/Eigen/src/QR/QrInstantiations.cpp
    13302  2012-07-02 06:07   Cain/src/third-party/Eigen/src/QR/SelfAdjointEigenSolver.h
    16754  2012-07-02 06:07   Cain/src/third-party/Eigen/src/QR/Tridiagonalization.h
        0  2012-07-02 06:07   Cain/src/third-party/Eigen/src/Sparse/
    10267  2012-07-02 06:07   Cain/src/third-party/Eigen/src/Sparse/AmbiVector.h
     6700  2012-07-02 06:07   Cain/src/third-party/Eigen/src/Sparse/CholmodSupport.h
      148  2012-07-02 06:07   Cain/src/third-party/Eigen/src/Sparse/CMakeLists.txt
     7128  2012-07-02 06:07   Cain/src/third-party/Eigen/src/Sparse/CompressedStorage.h
     2579  2012-07-02 06:07   Cain/src/third-party/Eigen/src/Sparse/CoreIterators.h
    10203  2012-07-02 06:07   Cain/src/third-party/Eigen/src/Sparse/DynamicSparseMatrix.h
     6363  2012-07-02 06:07   Cain/src/third-party/Eigen/src/Sparse/MappedSparseMatrix.h
    12451  2012-07-02 06:07   Cain/src/third-party/Eigen/src/Sparse/RandomSetter.h
        0  2012-07-02 06:07   Cain/src/third-party/Eigen/src/Sparse/SparseAssign.h
    17481  2012-07-02 06:07   Cain/src/third-party/Eigen/src/Sparse/SparseBlock.h
     7192  2012-07-02 06:07   Cain/src/third-party/Eigen/src/Sparse/SparseCwise.h
    18242  2012-07-02 06:07   Cain/src/third-party/Eigen/src/Sparse/SparseCwiseBinaryOp.h
     6554  2012-07-02 06:07   Cain/src/third-party/Eigen/src/Sparse/SparseCwiseUnaryOp.h
     7028  2012-07-02 06:07   Cain/src/third-party/Eigen/src/Sparse/SparseDiagonalProduct.h
     3341  2012-07-02 06:07   Cain/src/third-party/Eigen/src/Sparse/SparseDot.h
     3690  2012-07-02 06:07   Cain/src/third-party/Eigen/src/Sparse/SparseFlagged.h
     1763  2012-07-02 06:07   Cain/src/third-party/Eigen/src/Sparse/SparseFuzzy.h
    12486  2012-07-02 06:07   Cain/src/third-party/Eigen/src/Sparse/SparseLDLT.h
     7090  2012-07-02 06:07   Cain/src/third-party/Eigen/src/Sparse/SparseLLT.h
     5015  2012-07-02 06:07   Cain/src/third-party/Eigen/src/Sparse/SparseLU.h
    14521  2012-07-02 06:07   Cain/src/third-party/Eigen/src/Sparse/SparseMatrix.h
    27178  2012-07-02 06:07   Cain/src/third-party/Eigen/src/Sparse/SparseMatrixBase.h
    16239  2012-07-02 06:07   Cain/src/third-party/Eigen/src/Sparse/SparseProduct.h
     1599  2012-07-02 06:07   Cain/src/third-party/Eigen/src/Sparse/SparseRedux.h
     3119  2012-07-02 06:07   Cain/src/third-party/Eigen/src/Sparse/SparseTranspose.h
     5758  2012-07-02 06:07   Cain/src/third-party/Eigen/src/Sparse/SparseUtil.h
    11186  2012-07-02 06:07   Cain/src/third-party/Eigen/src/Sparse/SparseVector.h
    16653  2012-07-02 06:07   Cain/src/third-party/Eigen/src/Sparse/SuperLUSupport.h
     6663  2012-07-02 06:07   Cain/src/third-party/Eigen/src/Sparse/TaucsSupport.h
     5724  2012-07-02 06:07   Cain/src/third-party/Eigen/src/Sparse/TriangularSolver.h
    10175  2012-07-02 06:07   Cain/src/third-party/Eigen/src/Sparse/UmfPackSupport.h
        0  2012-07-02 06:07   Cain/src/third-party/Eigen/src/SVD/
      122  2012-07-02 06:07   Cain/src/third-party/Eigen/src/SVD/CMakeLists.txt
    19175  2012-07-02 06:07   Cain/src/third-party/Eigen/src/SVD/SVD.h
     5534  2012-07-02 06:07   Cain/src/third-party/Eigen/StdVector
      556  2012-07-02 06:07   Cain/src/third-party/Eigen/SVD
        0  2012-07-02 06:07   Cain/state/
        0  2012-07-02 06:07   Cain/state/__init__.py
     2869  2012-07-02 06:07   Cain/state/convert.py
    14490  2012-07-02 06:07   Cain/state/Histogram.py
     2527  2012-07-02 06:07   Cain/state/HistogramAverage.py
     3734  2012-07-02 06:07   Cain/state/HistogramFrames.py
     3165  2012-07-02 06:07   Cain/state/Identifier.py
    10207  2012-07-02 06:07   Cain/state/Method.py
    39726  2012-07-02 06:07   Cain/state/Model.py
      671  2012-07-02 06:07   Cain/state/Mt19937.py
    13902  2012-07-02 06:07   Cain/state/ParameterEvaluation.py
    15417  2012-07-02 06:07   Cain/state/PoissonSampler.py
    20956  2012-07-02 06:07   Cain/state/Reaction.py
    12557  2012-07-02 06:07   Cain/state/simulationMethods.py
      803  2012-07-02 06:07   Cain/state/SimulationOutput.py
     4335  2012-07-02 06:07   Cain/state/Species.py
     1590  2012-07-02 06:07   Cain/state/SpeciesReference.py
    81638  2012-07-02 06:07   Cain/state/State.py
        0  2012-07-02 06:07   __MACOSX/Cain/state/
      171  2012-07-02 06:07   __MACOSX/Cain/state/._State.py
     2927  2012-07-02 06:07   Cain/state/StatisticsAverage.py
     3812  2012-07-02 06:07   Cain/state/StatisticsFrames.py
     2527  2012-07-02 06:07   Cain/state/TimeEvent.py
     4826  2012-07-02 06:07   Cain/state/TimeSeriesAllReactions.py
     4513  2012-07-02 06:07   Cain/state/TimeSeriesFrames.py
     6200  2012-07-02 06:07   Cain/state/TrajectoryCalculator.py
     3611  2012-07-02 06:07   Cain/state/TriggerEvent.py
      479  2012-07-02 06:07   Cain/state/Utilities.py
     4838  2012-07-02 06:07   Cain/state/Value.py
---------                     -------
 33659889                     2309 files

   MD5 (Cain-1_10.zip): ef4c83c0e637c95008744fbd10cbd8c5
  SHA1 (Cain-1_10.zip): 27a20ea5835e2c3e35a2d13c988f88e5fcb44669
SHA256 (Cain-1_10.zip): 1c6c4c9daf6f2d238495f7a931428e83d76b586caa740970d72627e473e85950

Home  |  About  |  Features  |  All  |  Newest  |  Dox  |  Diffs  |  RSS Feeds  |  Screenshots  |  Comments  |  Imprint  |  Privacy  |  HTTP(S)